[[{"header":{"parameterUnit":"m.s-1","parameterCategory":1,"la1":30.6,"la2":29.2853,"lo1":-89.7004,"lo2":-87.6739,"dy":0.0162,"dx":0.0183,"nx":112,"ny":82,"refTime":"2025-08-17T06:00:00:Z","depth":0,"parameterNumber":2,"parameterNumberName":"U-component_of_WINDS"},"data":[0.0,0.0,0.0,0.0,0.0,0.0,0.0,0.0,0.0,0.0,0.0,0.0,0.0,0.0,0.0,0.0,0.0,0.0,0.0,0.0,0.0,0.0,0.0,0.0,0.0,0.0,0.0,0.0,0.0,0.0,0.0,0.0,0.0,0.0,0.0,0.0,0.0,0.0,0.0,0.0,0.0,0.0,0.0,0.0,0.0,0.0,0.0,0.0,0.0,0.0,0.0,0.0,0.0,0.0,0.0,0.0,0.0,0.0,0.0,0.0,0.0,0.0,0.0,0.0,0.0,0.0,0.0,0.0,0.0,0.0,0.0,0.0,0.0,0.0,0.0,0.0,0.0,0.0,0.0,0.0,0.0,0.0,0.0,0.0,0.0,0.0,0.0,0.0,0.0,0.0,1.1943,1.1911,1.3158,1.4886,1.7083,1.8028,1.9367,2.1393,0.0,0.0,0.0,0.0,0.0,0.0,0.0,0.0,0.0,0.0,0.0,0.0,0.0,0.0,0.0,0.0,0.0,0.0,0.0,0.0,0.0,0.0,0.0,0.0,0.0,0.0,0.0,0.0,0.0,0.0,0.0,0.0,0.0,0.0,0.0,0.0,0.0,0.0,0.0,0.0,0.0,0.0,0.0,0.0,0.0,0.0,0.0,0.0,0.0,0.0,0.0,0.0,0.0,0.0,0.0,0.0,0.0,0.0,0.0,0.0,0.0,0.0,0.0,0.0,0.0,0.0,0.0,0.0,0.0,0.0,0.0,0.0,0.0,0.0,0.0,0.0,0.0,0.0,0.0,0.0,0.0,0.0,0.0,0.0,0.0,0.0,0.0,0.0,0.0,0.0,0.0,0.0,0.0,0.0,0.0,0.0,0.0,0.0,0.0,0.0,0.0,0.0,0.0,0.0,1.1024,1.1081,1.3074,1.4427,1.4493,1.7777,1.9682,1.9383,0.0,0.0,0.0,0.0,0.0,0.0,0.0,0.0,0.0,0.0,0.0,0.0,0.0,0.0,0.0,0.0,0.0,0.0,0.0,0.0,0.0,0.0,0.0,0.0,0.0,0.0,0.0,0.0,0.0,0.0,0.0,0.0,0.0,0.0,0.0,0.0,0.0,0.0,0.0,0.0,0.0,0.0,0.0,0.0,0.0,0.0,0.0,0.0,0.0,0.0,0.0,0.0,0.0,0.0,0.0,0.0,0.0,0.0,0.0,0.0,0.0,0.0,0.0,0.0,0.0,0.0,0.0,0.0,0.0,0.0,0.0,0.0,0.0,0.0,0.0,0.0,0.0,0.0,0.0,0.0,0.0,0.0,0.0,0.0,0.0,0.0,0.0,0.0,0.0,0.0,0.0,0.0,0.0,0.0,0.0,0.0,0.0,0.0,0.0,0.0,0.0,0.0,0.0,1.1399,1.1287,1.0878,1.2569,1.3887,1.4261,1.7099,1.888,1.8947,1.9668,0.0,0.0,0.0,0.0,0.0,0.0,0.0,0.0,0.0,0.0,0.0,0.0,0.0,0.0,0.0,0.0,0.0,0.0,0.0,0.0,0.0,0.0,0.0,0.0,0.0,0.0,0.0,0.0,0.0,0.0,0.0,0.0,0.0,0.0,0.0,0.0,0.0,0.0,0.0,0.0,0.0,0.0,0.0,0.0,0.0,0.0,0.0,0.0,0.0,0.0,0.0,0.0,0.0,0.0,0.0,0.0,0.0,0.0,0.0,0.0,0.0,0.0,0.0,0.0,0.0,0.0,0.0,0.0,0.0,0.0,0.0,0.0,0.0,0.0,0.0,0.0,0.0,0.0,0.0,0.0,0.0,0.0,0.0,0.0,0.0,0.0,0.0,0.0,0.0,0.0,0.0,0.0,0.0,0.0,0.0,0.0,0.0,0.0,0.0,0.0,0.0,0.0,1.1766,1.167,1.1038,1.2303,1.3516,1.4276,1.645,1.8015,1.8639,1.9662,0.0,0.0,0.0,0.0,0.0,0.0,0.0,0.0,0.0,0.0,0.0,0.0,0.0,0.0,0.0,0.0,0.0,0.0,0.0,0.0,0.0,0.0,0.0,0.0,0.0,0.0,0.0,0.0,0.0,0.0,0.0,0.0,0.0,0.0,0.0,0.0,0.0,0.0,0.0,0.0,0.0,0.0,0.0,0.0,0.0,0.0,0.0,0.0,0.0,0.0,0.0,0.0,0.0,0.0,0.0,0.0,0.0,0.0,0.0,0.0,0.0,0.0,0.0,0.0,0.0,0.0,0.0,0.0,0.0,0.0,0.0,0.0,0.0,0.0,0.0,0.0,0.0,0.0,0.0,0.0,0.0,0.0,0.0,0.0,0.0,0.0,0.0,0.0,0.0,0.0,0.0,0.0,0.0,0.0,0.0,0.0,0.0,0.0,0.0,0.0,0.0,0.0,1.156,1.1651,1.1455,1.2657,1.3491,1.3564,1.6055,1.7643,1.7687,1.922,0.0,0.0,0.0,0.0,0.0,0.0,0.0,0.0,0.0,0.0,0.0,0.0,0.0,0.0,0.0,0.0,0.0,0.0,0.0,0.0,0.0,0.0,0.0,0.0,0.0,0.0,0.0,0.0,0.0,0.0,0.0,0.0,0.0,0.0,0.0,0.0,0.0,0.0,0.0,0.0,0.0,0.0,0.0,0.0,0.0,0.0,0.0,0.0,0.0,0.0,0.0,0.0,0.0,0.0,0.0,0.0,0.0,0.0,0.0,0.0,0.0,0.0,0.0,0.0,0.0,0.0,0.0,0.0,0.0,0.0,0.0,0.0,0.0,0.0,0.0,0.0,0.0,0.0,0.0,0.0,0.0,0.0,0.0,0.0,0.0,0.0,0.0,0.0,0.0,0.0,0.0,0.0,0.0,0.0,0.0,0.0,0.0,0.0,0.0,0.0,0.0,0.0,1.2375,1.2429,0.0,1.3103,1.3882,1.3762,1.6184,1.771,1.7662,0.0,0.0,0.0,0.0,0.0,0.0,0.0,0.0,0.0,0.0,0.0,0.0,0.0,0.0,0.0,0.0,0.0,0.0,0.0,0.0,0.0,0.0,0.0,0.0,0.0,0.0,0.0,0.0,0.0,0.0,0.0,0.0,0.0,0.0,0.0,0.0,0.0,0.0,0.0,0.0,0.0,0.0,0.0,0.0,0.0,0.0,0.0,0.0,0.0,0.0,0.0,0.0,0.0,0.0,0.0,0.0,0.0,0.0,0.0,0.0,0.0,0.0,0.0,0.0,0.0,0.0,0.0,0.0,0.0,0.0,0.0,0.0,0.0,0.0,0.0,0.0,0.0,0.0,0.0,0.0,0.0,0.0,0.0,0.0,0.0,0.0,0.0,0.0,0.0,0.0,0.0,0.0,0.0,0.0,0.0,0.0,0.0,0.0,0.0,0.0,0.0,0.0,1.2566,1.3158,1.3355,0.0,1.3723,1.4364,1.4296,1.641,1.7597,1.727,0.0,0.0,0.0,0.0,0.0,0.0,0.0,0.0,0.0,0.0,0.0,0.0,0.0,0.0,0.0,0.0,0.0,0.0,0.0,0.0,0.0,0.0,0.0,0.0,0.0,0.0,0.0,0.0,0.0,0.0,0.0,0.0,0.0,0.0,0.0,0.0,0.0,0.0,0.0,0.0,0.0,0.0,0.0,0.0,0.0,0.0,0.0,0.0,0.0,0.0,0.0,0.0,0.0,0.0,0.0,0.0,0.0,0.0,0.0,0.0,0.0,0.0,0.0,0.0,0.0,0.0,0.0,0.0,0.0,0.0,0.0,0.0,0.0,0.0,0.0,0.0,0.0,0.0,0.0,0.0,0.0,0.0,0.0,0.0,0.0,0.0,0.0,0.0,0.0,0.0,0.0,0.0,0.0,0.0,0.0,0.0,0.0,0.0,0.0,0.0,0.0,0.0,1.2898,1.3782,1.4305,1.4036,1.4474,1.4884,1.5089,1.6632,1.7216,0.0,0.0,0.0,0.0,0.0,0.0,0.0,0.0,0.0,0.0,0.0,0.0,0.0,0.0,0.0,0.0,0.0,0.0,0.0,0.0,0.0,0.0,0.0,0.0,0.0,0.0,0.0,0.0,0.0,0.0,0.0,0.0,0.0,0.0,0.0,0.0,0.0,0.0,0.0,0.0,0.0,0.0,0.0,0.0,0.0,0.0,0.0,0.0,0.0,0.0,0.0,0.0,0.0,0.0,0.0,0.0,0.0,0.0,0.0,0.0,0.0,0.0,0.0,0.0,0.0,0.0,0.0,0.0,0.0,0.0,0.0,0.0,0.0,0.0,0.0,0.0,0.0,0.0,0.0,0.0,0.0,0.0,0.0,0.0,0.0,0.0,0.0,0.0,0.0,0.0,0.0,0.0,0.0,0.0,0.0,0.0,0.0,0.0,0.0,0.0,0.0,0.0,0.0,1.3176,1.4013,1.4528,1.4309,1.4637,1.4978,1.5222,1.6134,1.6613,1.6445,0.0,0.0,0.0,0.0,0.0,0.0,0.0,0.0,0.0,0.0,0.0,0.0,0.0,0.0,0.0,0.0,0.0,0.0,0.0,0.0,0.0,0.0,0.0,0.0,0.0,0.0,0.0,0.0,0.0,0.0,0.0,0.0,0.0,0.0,0.0,0.0,0.0,0.0,0.0,0.0,0.0,0.0,0.0,0.0,0.0,0.0,0.0,0.0,0.0,0.0,0.0,0.0,0.0,0.0,0.0,0.0,0.0,0.0,0.0,0.0,0.0,0.0,0.0,0.0,0.0,0.0,0.0,0.0,0.0,0.0,0.0,0.0,0.0,0.0,0.0,0.0,0.0,0.0,0.0,0.0,0.0,0.0,0.0,0.0,0.0,0.0,0.0,0.0,0.0,0.0,0.0,0.0,0.0,0.0,0.0,0.0,0.0,0.0,0.0,0.0,0.0,0.0,1.3272,1.4309,1.4847,1.4417,1.4733,1.5012,1.5131,1.5846,1.6158,1.5875,0.0,0.0,0.0,0.0,0.0,0.0,0.0,0.0,0.0,0.0,0.0,0.0,0.0,0.0,0.0,0.0,0.0,0.0,0.0,0.0,0.0,0.0,0.0,0.0,0.0,0.0,0.0,0.0,0.0,0.0,0.0,0.0,0.0,0.0,0.0,0.0,0.0,0.0,0.0,0.0,0.0,0.0,0.0,0.0,0.0,0.0,0.0,0.0,0.0,0.0,0.0,0.0,0.0,0.0,0.0,0.0,0.0,0.0,0.0,0.0,0.0,0.0,0.0,0.0,0.0,0.0,0.0,0.0,0.0,0.0,0.0,0.0,0.0,0.0,0.0,0.0,0.0,0.0,0.0,0.0,0.0,0.0,0.0,0.0,0.0,0.0,0.0,0.0,0.0,0.0,0.0,0.0,0.0,0.0,0.0,0.0,0.0,0.0,0.0,0.0,0.0,0.0,1.3268,1.4554,1.5142,1.439,1.4775,1.5039,1.4926,1.5691,1.5817,1.4963,0.0,0.0,0.0,0.0,0.0,0.0,0.0,0.0,0.0,0.0,0.0,0.0,0.0,0.0,0.0,0.0,0.0,0.0,0.0,0.0,0.0,0.0,0.0,0.0,0.0,0.0,0.0,0.0,0.0,0.0,0.0,0.0,0.0,0.0,0.0,0.0,0.0,0.0,0.0,0.0,0.0,0.0,0.0,0.0,0.0,0.0,0.0,0.0,0.0,0.0,0.0,0.0,0.0,0.0,0.0,0.0,0.0,0.0,0.0,0.0,-0.1131,0.0,0.0,0.0,0.0,0.0,0.0,0.0,0.0,0.0,0.0,0.0,0.0,0.0,0.0,0.0,0.0,0.0,0.0,0.0,0.0,0.0,0.0,0.0,0.0,0.0,0.0,0.0,0.0,0.0,0.0,0.0,0.0,0.0,0.0,0.0,0.0,0.0,0.0,0.0,0.0,0.0,1.3268,1.4276,1.4815,1.4428,1.4758,1.5037,1.5057,1.5196,1.5222,1.5066,1.5369,0.0,0.0,0.0,0.0,0.0,0.0,0.0,0.0,0.0,0.0,0.0,0.0,0.0,0.0,0.0,0.0,0.0,0.0,0.0,0.0,0.0,0.0,0.0,0.0,0.0,0.0,0.0,0.0,0.0,0.0,0.0,0.0,0.0,0.0,0.0,0.0,0.0,0.0,0.0,0.0,0.0,0.0,0.0,0.0,0.0,0.0,0.0,0.0,0.0,0.0,0.0,0.0,0.0,0.0,0.0,0.0,0.0,0.0,0.0,0.0,-0.6228,0.0,0.0,0.0,0.0,0.0,0.0,0.0,0.0,0.0,0.0,0.0,0.0,0.0,0.0,0.0,0.0,0.0,0.0,0.0,0.0,0.0,0.0,0.0,0.0,0.0,0.0,0.0,0.0,0.0,0.0,0.0,0.0,0.0,0.0,0.0,0.0,0.0,0.0,0.0,0.0,1.3802,1.4578,1.5054,1.4936,1.4937,1.4996,1.5098,1.5012,1.4977,1.4998,1.5098,0.0,0.0,0.0,0.0,0.0,0.0,0.0,0.0,0.0,0.0,0.0,0.0,0.0,0.0,0.0,0.0,0.0,0.0,0.0,0.0,0.0,0.0,0.0,0.0,0.0,0.0,0.0,0.0,0.0,0.0,0.0,0.0,0.0,0.0,0.0,0.0,0.0,0.0,0.0,0.0,0.0,0.0,0.0,0.0,0.0,0.0,0.0,0.0,0.0,0.0,0.0,0.0,0.0,-1.9899,-1.9165,-1.8807,-1.8579,-1.8971,-1.963,-1.5737,-1.3954,-1.3524,0.0,0.0,0.0,0.0,0.0,0.0,0.0,0.0,0.0,0.0,0.0,0.0,0.0,0.0,0.0,0.0,0.0,0.0,0.0,0.0,0.0,0.0,0.0,0.0,0.0,-0.8341,-0.6556,0.0,0.0,0.0,0.0,0.0,0.0,0.0,0.0,0.0,0.0,0.0,0.0,1.454,1.5003,1.5376,1.5555,1.5061,1.4771,1.4857,1.476,1.468,1.4602,1.4813,1.5016,0.0,0.0,0.0,0.0,0.0,0.0,0.0,0.0,0.0,0.0,0.0,0.0,0.0,0.0,0.0,0.0,0.0,0.0,0.0,0.0,0.0,0.0,0.0,0.0,0.0,0.0,0.0,0.0,0.0,0.0,0.0,0.0,1.0646,0.7081,0.0,0.0,0.0,0.0,0.0,0.0,0.0,0.0,0.0,0.0,0.0,0.0,0.0,-2.2277,-2.2904,-2.3416,-2.3621,-2.3533,-2.2721,-2.2252,-2.2065,-2.1385,-2.1389,-2.1869,-2.1266,0.0,-1.8301,-1.6867,0.0,0.0,0.0,0.0,0.0,0.0,0.0,0.0,0.0,0.0,0.0,0.0,0.0,0.0,0.0,0.0,0.0,0.0,0.0,0.0,0.0,0.0,-1.4547,-1.5053,-1.3936,-1.1855,0.0,-0.3136,0.1909,0.462,0.0,0.0,0.0,0.0,0.0,0.0,0.0,0.0,1.5314,1.5119,1.5135,1.578,1.4752,1.4018,1.3972,1.3963,1.3791,1.3441,1.4203,1.4921,1.5514,1.492,0.0,0.0,0.0,0.0,0.0,0.0,0.0,0.0,0.0,0.0,0.0,0.0,0.0,0.0,0.0,0.0,0.0,0.0,0.0,0.0,0.0,0.0,0.0,0.0,0.0,0.0,0.0,0.0,0.0,1.0678,0.6608,0.1956,0.1502,0.1021,0.0,0.0,0.0,0.0,0.0,0.0,0.0,0.0,0.0,-2.3344,-2.3265,-2.3354,-2.3636,-2.4174,-2.4369,-2.4157,-2.3529,-2.3062,-2.267,-2.2203,-2.2107,-2.231,-2.2023,-2.1573,-2.0898,-1.9605,-1.8042,-1.6209,0.0,0.0,0.0,0.0,0.0,-0.955,-1.006,-1.0435,0.0,0.0,0.0,0.0,0.0,0.0,0.0,0.0,0.0,0.0,0.0,0.0,0.0,-1.7421,-1.6191,-1.4317,-1.1323,-0.7172,-0.2812,0.0,0.4338,0.6601,0.7688,0.0,0.0,0.0,0.0,1.4509,1.564,1.5535,1.5639,1.6373,1.5299,1.4549,1.4649,1.4492,1.4296,1.4007,1.4293,1.4491,1.4524,1.4824,1.501,0.0,0.0,0.0,0.0,0.0,0.0,0.0,0.0,0.0,0.0,0.0,0.0,0.0,0.0,0.0,0.0,0.0,0.0,0.0,0.0,0.0,0.0,0.0,0.0,0.0,0.0,0.0,0.0,0.6513,0.1888,-0.3304,-0.4285,-0.5011,0.0,0.0,0.0,0.0,0.0,0.0,-2.4019,-2.4062,-2.4022,-2.4077,-2.4034,-2.4063,-2.4211,-2.4601,-2.4632,-2.4285,-2.3752,-2.3213,-2.2706,-2.2312,-2.2119,-2.2102,-2.1653,-2.1632,-2.1873,-2.0718,-1.9823,-1.898,-1.6754,-1.5271,-1.437,-1.4292,-1.4494,-1.4976,-1.5928,-1.6481,-1.6488,-1.5019,0.0,-1.1231,-0.9364,0.0,0.0,0.0,0.0,-1.6061,-1.7965,-1.8962,-1.9244,-1.8341,-1.707,-1.5318,-1.2462,-0.971,-0.638,0.0,0.223,0.4931,0.6052,0.0,0.0,0.0,0.0,1.4802,1.6192,1.6035,1.6101,1.692,1.5617,1.4761,1.4937,1.4736,1.4489,1.4183,1.4187,1.4016,1.3541,1.4138,1.4084,1.321,0.0,0.0,0.0,0.0,0.0,0.0,0.0,0.0,0.0,0.0,0.0,0.0,0.0,0.0,0.0,0.0,0.0,0.0,0.0,0.0,0.0,0.0,0.0,0.0,0.0,0.0,0.0,0.0,0.0,-0.9374,-0.939,0.0,0.0,0.0,0.0,-1.6901,-1.9694,-2.2164,-2.426,-2.467,-2.4938,-2.5113,-2.4876,-2.4837,-2.5028,-2.4868,-2.4626,-2.4299,-2.3765,-2.3213,-2.2664,-2.1975,-2.1653,-2.1608,-2.1222,-2.105,-2.1038,-2.0505,-2.0525,-2.0634,-1.8115,-1.7047,-1.6956,-1.6426,-1.6598,-1.7333,-1.9259,-1.9996,-2.0,-1.9644,-1.7285,-1.4171,-1.1816,-1.2047,0.0,0.0,-1.5973,-1.7478,-1.9177,-1.9281,-1.8817,-1.8224,-1.6793,-1.5014,-1.3074,-1.0556,-0.7325,0.0,0.0334,0.3007,0.512,0.0,0.994,1.1997,1.3435,1.5099,1.7311,1.655,1.6188,1.7164,1.5232,1.3883,1.3961,1.3909,1.362,1.301,1.3468,1.3515,1.3042,1.2237,1.1885,1.2088,1.3107,0.0,0.0,0.0,0.0,0.0,0.0,0.0,0.0,0.0,0.0,0.0,0.0,0.0,0.0,0.0,0.0,0.0,0.0,0.0,0.0,0.0,0.0,0.0,0.0,0.0,0.0,0.0,0.0,-1.3633,-1.4613,0.0,-1.6316,-1.6903,-1.7987,-1.9829,-2.1826,-2.3539,-2.4853,-2.5188,-2.5352,-2.5391,-2.5291,-2.5185,-2.5034,-2.4649,-2.4239,-2.3783,-2.3231,-2.2642,-2.1968,-2.1714,-2.1467,-2.1177,-2.0744,-2.0722,-2.0952,-2.0224,-2.0175,-2.0362,-1.8484,-1.7801,-1.7706,-1.717,-1.7505,-1.8389,-1.9455,-2.0222,-2.0682,-2.0273,-1.8695,-1.6762,-1.5948,-1.5532,-1.556,-1.63,-1.6879,-1.7477,-1.8405,-1.8535,-1.8171,-1.7218,-1.5905,-1.4224,-1.1895,-0.9227,-0.6443,-0.3495,-0.0927,0.1527,0.3807,0.6584,0.9054,1.0682,1.3025,1.4921,1.5739,1.599,1.6151,1.6204,1.5236,1.4609,1.4667,1.4616,1.4296,1.3659,1.3838,1.3517,1.2523,1.2857,1.2357,1.0864,1.3168,1.2987,0.0,0.0,0.0,0.0,0.0,0.0,0.0,0.0,0.0,0.0,0.0,0.0,0.0,0.0,0.0,0.0,0.0,0.0,0.0,0.0,0.0,0.0,0.0,0.0,0.0,0.0,-1.2834,-1.6388,-1.755,-1.8389,-1.9095,-1.9677,-2.043,-2.148,-2.2896,-2.4137,-2.5057,-2.543,-2.5547,-2.5449,-2.5449,-2.5243,-2.481,-2.4479,-2.3971,-2.3316,-2.2767,-2.2178,-2.1599,-2.1313,-2.1021,-2.0742,-2.0109,-2.001,-2.0223,-1.945,-1.9316,-1.9476,-1.848,-1.7997,-1.7786,-1.7449,-1.7706,-1.8413,-1.9095,-1.9808,-2.0405,-1.9943,-1.9134,-1.8264,-1.7946,-1.7323,-1.6824,-1.7214,-1.7286,-1.7396,-1.7702,-1.7638,-1.722,-1.6058,-1.4729,-1.3129,-1.0785,-0.8189,-0.5705,-0.3359,-0.1167,0.1067,0.3377,0.6117,0.8678,1.0544,1.3009,1.477,1.519,1.5671,1.5893,1.563,1.5151,1.4922,1.51,1.5059,1.4762,1.4148,1.4392,1.4087,1.301,1.3457,1.2921,1.1202,1.2499,1.1882,0.9247,0.0,0.0,0.0,0.0,0.0,0.0,0.0,0.0,0.0,0.0,0.0,0.0,0.0,0.0,0.0,0.0,0.0,0.0,0.0,0.0,0.0,0.0,0.0,-0.8029,-1.1777,-1.5286,-1.7717,-1.8051,-1.8521,-1.9588,-1.9637,-2.0261,-2.1786,-2.2841,-2.3855,-2.4843,-2.5312,-2.5488,-2.5312,-2.533,-2.5035,-2.4406,-2.4298,-2.3824,-2.2949,-2.2365,-2.1891,-2.1521,-2.0682,-2.0258,-2.0171,-1.9277,-1.8863,-1.8796,-1.8307,-1.8078,-1.8037,-1.8068,-1.7742,-1.7288,-1.7213,-1.7213,-1.7329,-1.837,-1.8977,-1.9266,-1.8878,-1.8753,-1.8557,-1.7572,-1.7232,-1.7218,-1.7212,-1.722,-1.7223,-1.7138,-1.6701,-1.5997,-1.4746,-1.3273,-1.1667,-0.9707,-0.7573,-0.5241,-0.2661,-0.046,0.1669,0.3963,0.6329,0.889,1.173,1.3372,0.0,1.5852,1.5641,1.5414,1.5527,1.4975,1.4726,1.5063,1.5122,1.4921,1.4384,1.5102,1.525,1.4545,1.3839,1.3306,1.2997,1.0695,0.9933,1.0694,0.0,0.0,0.0,0.0,0.0,0.0,0.0,0.0,0.0,0.0,0.0,0.0,0.0,0.0,0.0,0.0,0.0,0.0,0.0,0.0,0.0,-0.6444,-0.9025,-1.0236,-1.3552,-1.6397,-1.7892,-1.8099,-1.8361,-1.9059,-1.9649,-2.0609,-2.2005,-2.313,-2.4129,-2.4998,-2.4805,-2.4883,-2.5369,-2.4465,-2.406,-2.4326,-2.3676,-2.3009,-2.2368,-2.2282,-2.1693,-2.0647,-2.0252,-1.9573,-1.8678,-1.8317,-1.8018,-1.7752,-1.8016,-1.7588,-1.6876,-1.6862,-1.6789,-1.6506,-1.5182,-1.4934,-1.5362,-1.6025,-1.696,-1.7799,-1.7692,-1.7357,-1.7005,-1.6747,-1.6077,-1.5395,-1.5413,-1.5396,-1.5405,-1.5391,-1.4919,-1.4171,-1.3176,-1.15,-0.9597,-0.7446,-0.5388,-0.3294,-0.1154,0.0869,0.2805,0.4619,0.6947,0.9173,1.0966,1.2701,0.0,1.379,1.4433,1.4689,1.4143,1.4386,1.4726,1.5005,1.5708,1.5902,1.5424,1.6139,1.6178,1.5261,1.4976,1.3334,1.0112,0.5927,0.3206,0.0,0.0,0.0,0.0,0.0,0.0,0.0,0.0,0.0,0.0,0.0,0.0,0.0,0.0,0.0,0.0,0.0,0.0,0.0,0.0,0.0,0.0,-0.8438,-1.0794,-1.1813,-1.4345,-1.6493,-1.7625,-1.7557,-1.7599,-1.8108,-1.8906,-1.9878,-2.1059,-2.218,-2.3105,-2.3811,-2.3638,-2.3667,-2.4013,-2.3224,-2.2771,-2.2655,-2.2135,-2.1506,-2.0805,-2.0695,-2.016,-1.9209,-1.8913,-1.8287,0.0,-1.7357,-1.6946,-1.6318,-1.6639,-1.6255,0.0,0.0,0.0,0.0,0.0,-1.3636,-1.4193,-1.4501,-1.5311,-1.6138,-1.6158,-1.5923,-1.568,-1.57,-1.5219,-1.4688,-1.4688,-1.4519,-1.4182,-1.3784,-1.3207,-1.2311,-1.09,-0.957,-0.8003,-0.5736,-0.3816,-0.1977,-0.0092,0.0,0.0,0.5634,0.7466,0.9336,1.1222,1.2592,1.3271,1.3011,1.379,1.4089,1.3424,1.4015,1.4614,1.4929,1.5848,0.0,0.0,0.0,1.7192,1.6008,1.5255,0.0,0.0,0.0,0.0,0.0,0.0,0.0,0.0,-0.4428,-0.4717,0.0,0.0,0.0,0.0,0.0,0.0,0.0,0.0,0.0,0.0,0.0,0.0,0.0,0.0,0.0,0.0,-0.9711,-1.2015,-1.2821,-1.42,-1.5595,-1.6793,-1.6505,-1.6399,-1.6806,-1.7581,-1.8453,-1.9444,-2.0563,-2.1412,-2.1935,0.0,0.0,0.0,0.0,-2.1226,-2.0323,-2.02,-1.9739,-1.8852,-1.8554,-1.8115,-1.7537,-1.7177,-1.6721,-1.6228,-1.6206,-1.5633,-1.4651,-1.4696,-1.437,-1.3935,-1.5423,-1.492,-1.3268,-1.2598,-1.2745,0.0,0.0,0.0,0.0,-1.4494,-1.4495,-1.4473,-1.451,-1.4395,-1.425,-1.425,-1.3758,-1.3012,-1.2219,-1.1396,-1.0348,-0.8318,-0.7504,-0.6541,-0.4241,-0.2625,-0.1057,0.0752,0.2868,0.4957,0.6706,0.7858,0.9394,1.1962,1.2693,0.0,1.3044,1.3472,1.3612,1.3127,0.0,0.0,1.4826,1.5838,1.6402,1.631,1.7841,1.8067,1.6569,1.4756,1.2102,0.8492,0.3885,0.0143,-0.2622,-0.6147,-0.7871,-0.7834,-0.7593,-0.6742,0.0,0.0,0.0,0.0,0.0,0.0,0.0,0.0,0.0,0.0,0.0,0.0,0.0,0.0,0.0,-1.0581,-1.1433,-1.2265,-1.2957,-1.2687,-1.3033,-1.4596,-1.4676,-1.4752,-1.5268,-1.6114,-1.7136,-1.8401,-1.974,-2.0658,-2.103,-2.0827,0.0,-2.1283,-2.0188,-1.9678,-1.9911,-1.9462,-1.8812,-1.7963,0.0,0.0,-1.6702,-1.6439,-1.5669,-1.4575,-1.4523,-1.3924,-1.3043,-1.308,-1.2594,-1.1959,-1.3074,-1.2638,-1.1268,-1.0597,-1.0462,-1.0561,-1.0549,-1.172,-1.3182,-1.3152,-1.3172,-1.3175,-1.3178,-1.2396,0.0,-1.1541,-1.0972,-1.0267,-1.009,-0.9022,-0.7691,-0.66,-0.5474,-0.4229,-0.258,-0.1248,0.0177,0.1993,0.3447,0.5086,0.7231,0.8212,0.9385,1.1594,1.197,1.2195,1.2584,1.2898,1.3058,1.294,1.3482,1.4044,1.4603,1.6305,1.7406,1.7549,1.8488,1.8109,1.6038,1.3317,0.9276,0.3829,-0.0043,-0.382,-0.7541,-0.9318,-0.9906,-0.9372,-0.8736,-0.7359,0.0,0.0,0.0,0.0,0.0,0.0,0.0,0.0,0.0,0.0,0.0,-0.966,-1.0356,0.0,-1.1916,-1.1426,-1.2071,-1.2352,-1.1675,-1.1409,-1.1839,-1.3229,-1.289,-1.2805,-1.358,-1.3937,-1.4853,-1.6615,-1.7566,-1.8378,-1.9154,-1.9022,-1.903,-1.9345,-1.8528,-1.8035,-1.7902,-1.75,-1.6783,-1.577,-1.5992,-1.5524,-1.4432,-1.4306,-1.3779,-1.2938,-1.29,-1.2346,-1.137,-1.0845,-1.0398,-1.0015,-1.0079,-1.0176,-1.0202,-0.9559,-0.9528,-0.9775,-0.9821,-1.0672,-1.179,-1.1783,-1.1823,-1.1751,-1.1384,-1.0772,-1.0171,-0.9734,-0.9058,-0.8311,-0.7842,-0.6872,-0.5737,-0.4585,-0.3584,-0.2554,-0.1205,0.0265,0.1677,0.2879,0.453,0.6156,0.7541,0.8698,0.9992,1.1542,1.1776,1.1862,1.2205,1.2507,1.2692,1.2642,1.3394,1.424,1.5136,1.7138,1.8513,1.8932,1.8877,1.7937,1.5887,1.1963,0.7351,0.2062,-0.2103,-0.5872,-0.9299,-0.9917,-0.9908,-0.9238,-0.8856,-0.7729,0.0,0.0,0.0,0.0,0.0,0.0,0.0,-0.907,-1.0791,-1.1043,-1.2083,-1.2795,-1.2444,-1.3227,-1.3411,-1.184,-1.2372,-1.2304,-1.0361,-1.0311,-1.0774,-1.1549,-1.1019,-1.092,-1.1757,-1.174,-1.2508,-1.4443,-1.5051,-1.5805,-1.6912,-1.7056,-1.712,-1.7082,-1.6791,-1.6301,-1.5578,-1.5242,-1.4578,-1.3542,-1.3527,-1.3025,-1.2112,-1.2112,-1.174,-1.1137,-1.095,-1.0299,-0.9343,-0.8601,-0.8205,-0.8045,-0.7398,-0.7974,-0.9023,-0.8488,-0.8645,-0.912,-0.912,-0.958,-1.0136,-1.0198,-1.019,-1.0044,-0.9487,-0.9103,-0.8714,-0.8054,-0.7195,-0.6388,-0.5582,-0.4754,-0.3774,-0.2471,-0.1641,-0.0794,0.031,0.1855,0.3212,0.388,0.5647,0.7273,0.8115,0.9437,1.0644,1.1494,1.1699,1.1829,1.1948,1.2286,1.2501,1.2434,1.3365,1.4556,1.5948,1.7853,1.9259,1.9945,1.9144,1.7742,1.5719,1.0934,0.6255,0.1796,-0.2804,-0.6458,-0.9133,-0.9077,-0.8843,-0.843,-0.832,-0.76,1.9661,1.2316,0.3337,-0.2904,-0.6713,-0.9158,0.0,-1.0582,-1.1141,-1.2318,-1.3138,-1.3981,-1.4963,-1.49,-1.4448,-1.3856,-1.3133,-1.2066,-1.0342,-0.9395,-0.8731,-0.8384,-0.9059,-0.9608,-0.9716,-1.0049,-1.0716,-1.1914,-1.3095,-1.4018,-1.4648,-1.5355,-1.5595,-1.5309,-1.4848,-1.4441,-1.4041,-1.3544,-1.3031,-1.2564,-1.2575,-1.2042,-1.1065,-1.1065,-1.0255,-0.8815,-0.7858,-0.7111,-0.6562,-0.6758,-0.6518,-0.605,-0.6274,-0.6447,-0.6591,-0.6531,-0.6623,-0.6762,-0.6762,-0.7227,-0.7788,-0.7941,-0.7943,-0.7955,-0.7853,-0.6951,-0.5935,-0.5855,-0.4754,-0.3566,-0.3422,-0.2383,-0.1163,-0.049,0.0578,0.1601,0.2262,0.3372,0.4513,0.5588,0.6451,0.7638,0.9603,1.0426,1.0856,1.0983,1.1588,1.1989,1.1764,1.2234,1.2584,1.2581,1.316,1.452,1.6846,1.7985,1.8944,1.9856,1.9201,1.7681,1.5177,1.0548,0.6292,0.2542,-0.1936,-0.5174,-0.7033,-0.6834,-0.7031,-0.7514,-0.6974,-0.6349,1.3563,0.6707,-0.0482,-0.6371,-0.9366,-1.0931,-1.1301,-1.134,-1.1481,-1.2055,-1.27,-1.3319,-1.3826,-1.3831,-1.3498,0.0,-1.2063,-1.1005,-0.9024,-0.7538,-0.6435,-0.5868,-0.561,-0.6108,-0.7765,-0.812,-0.8798,-1.0079,-1.0998,-1.1792,-1.2577,-1.3216,-1.352,-1.3382,-1.346,-1.3363,-1.2986,-1.2449,-1.1821,-1.1132,-1.0801,-1.0303,-0.9596,-0.9246,-0.8162,-0.6562,-0.6126,-0.5423,-0.4587,-0.4496,-0.4317,-0.4056,-0.384,-0.3808,-0.4062,-0.5631,-0.6258,-0.6265,-0.6265,-0.6261,-0.6197,-0.6256,-0.6044,-0.5659,-0.5238,-0.4664,-0.4063,-0.3204,-0.2451,-0.1776,-0.0971,-0.0045,0.0839,0.1411,0.248,0.3466,0.4025,0.5101,0.6132,0.6952,0.8041,0.916,1.005,1.1116,1.1812,1.1735,1.2239,1.2651,1.2729,1.2823,1.3016,1.3312,1.4114,1.5316,1.7044,1.7606,1.8432,1.975,1.8559,1.6967,1.5071,1.0646,0.6782,0.365,-0.0399,-0.2984,-0.4089,-0.371,-0.3852,-0.4477,-0.4247,-0.3931,0.8044,0.1924,-0.3557,-0.8655,-1.0919,-1.1728,-1.1254,-1.1116,-1.0988,-1.0837,-1.1036,-1.1378,-1.176,-1.1655,-1.1375,-1.1021,-1.0636,-0.9721,-0.7847,-0.6064,-0.4732,-0.4233,-0.296,-0.3024,-0.5286,-0.5952,-0.6768,-0.7999,-0.8759,-0.9572,-1.0557,-1.1126,-1.1483,-1.1612,-1.1859,-1.1869,-1.1567,-1.1044,-1.0449,-0.9793,-0.9239,-0.8709,-0.8214,-0.7113,-0.5849,-0.4503,-0.4331,-0.3807,-0.2991,-0.2724,-0.2602,-0.2551,-0.2137,-0.2021,-0.2327,-0.425,-0.501,-0.5056,-0.5036,-0.4759,-0.4405,-0.4448,-0.4007,-0.3414,-0.2848,-0.2411,-0.1904,-0.0873,-0.0313,0.0196,0.1138,0.1956,0.2654,0.3262,0.4268,0.5242,0.5788,0.6813,0.7807,0.8366,0.95,1.0475,1.0788,1.1777,1.254,1.2715,1.3132,1.3429,1.3441,1.3506,1.3792,1.4389,1.536,1.6337,1.7261,1.7659,1.8335,1.9505,1.8122,1.6593,1.5118,1.124,0.7895,0.5257,0.1952,-0.0182,-0.1093,-0.0546,-0.091,-0.2043,-0.1816,-0.1928,0.4474,-0.1528,-0.6867,-0.9976,-1.1544,-1.1808,-0.9976,-0.9475,-0.9197,-0.8637,-0.8036,-0.8101,-0.943,-0.866,-0.8171,-0.9433,-0.9197,-0.8454,-0.7204,-0.5476,-0.4119,-0.3596,-0.2017,-0.1223,0.0,-0.3465,-0.4722,-0.528,-0.6342,-0.7447,-0.8518,-0.9085,-0.9628,-1.0136,-0.9731,-0.9499,-0.9486,-0.9042,-0.8755,-0.8758,-0.8149,-0.7563,-0.6984,-0.4673,-0.3321,-0.276,-0.2146,-0.1875,-0.1844,-0.1846,-0.1839,-0.1811,-0.1817,-0.1822,-0.181,-0.1914,-0.2003,-0.2112,-0.2143,-0.2131,-0.2102,-0.2232,-0.1781,-0.1218,-0.1167,-0.0272,0.0791,0.0835,0.1663,0.2599,0.2645,0.3468,0.4458,0.4999,0.6062,0.7057,0.7622,0.8553,0.9472,1.0002,1.0534,1.1206,1.2258,1.2473,1.2801,1.3709,1.4187,1.4198,1.3419,1.4098,1.4945,1.576,1.68,1.7504,1.7668,1.8458,1.8964,1.9018,1.8186,1.6921,1.5257,1.2453,0.9833,0.7543,0.5298,0.3325,0.1671,0.239,0.1433,-0.1102,-0.0413,-0.0857,0.333,-0.258,-0.7826,-1.022,-1.0471,-0.9834,-0.8812,-0.7285,-0.5981,-0.5696,-0.479,-0.4357,-0.5261,-0.519,-0.55,-0.689,-0.6742,-0.6319,-0.6035,-0.4053,-0.2562,-0.2372,-0.0812,0.0,0.0,0.0,0.0,-0.4204,-0.4883,-0.5615,-0.6449,-0.6937,-0.7271,-0.7435,-0.7654,-0.7721,-0.7724,-0.7237,-0.6996,-0.6945,-0.5993,-0.5038,-0.4121,-0.3331,-0.2443,-0.1456,-0.0846,-0.0357,0.0045,0.0521,0.073,0.0736,0.08,0.0856,0.0855,0.0848,0.0836,0.0624,-0.0681,-0.0631,0.0046,0.01,0.0567,0.1157,0.1657,0.2114,0.2649,0.3365,0.3837,0.4221,0.437,0.5277,0.6153,0.6355,0.7276,0.8288,0.8807,0.9476,1.0101,1.062,1.1398,1.2089,1.2437,1.2768,1.3276,1.4149,1.4627,1.4892,1.4898,1.5177,1.5495,1.5861,1.6221,1.6729,1.7435,1.7291,1.7594,1.8663,1.7096,1.5834,1.5236,1.2378,0.9965,0.8246,0.6428,0.5048,0.4116,0.41,0.3186,0.1436,0.1862,0.1077,0.1947,-0.3427,-0.8076,-0.9423,-0.8959,-0.7772,-0.6253,-0.4365,-0.2679,-0.1806,-0.0858,-0.0364,-0.0862,-0.1525,-0.2411,-0.3817,-0.4221,-0.4505,-0.4824,-0.2899,-0.1568,-0.1828,-0.0207,0.069,0.0,0.0,0.0,-0.2717,-0.3219,-0.3778,-0.4472,-0.4741,-0.4962,-0.5172,-0.5487,-0.5688,-0.5688,-0.5327,-0.5076,-0.4857,-0.4164,-0.3081,-0.1733,-0.1744,-0.1076,0.009,0.0493,0.0894,0.1341,0.1783,0.2034,0.2087,0.2186,0.2223,0.2196,0.2204,0.2489,0.2681,0.0958,0.0859,0.1513,0.1614,0.2221,0.3076,0.3564,0.4045,0.4551,0.522,0.5728,0.6079,0.6237,0.7045,0.796,0.8544,0.9115,0.9727,1.0469,1.0993,1.1362,1.1508,1.2212,1.2816,1.3046,1.3559,1.413,1.4637,1.5074,1.5474,1.5863,1.6028,1.6151,1.639,1.6592,1.699,1.7623,1.7203,1.731,1.8223,1.6608,1.5386,1.4905,1.2596,1.0515,0.8844,0.7744,0.6699,0.5782,0.5418,0.453,0.3237,0.3232,0.2353,0.0285,-0.4135,-0.7722,-0.763,-0.7045,-0.5624,-0.253,-0.0833,0.0681,0.2804,0.3651,0.392,0.3484,0.0,0.0926,-0.039,-0.1788,-0.2945,-0.3607,-0.2096,-0.1164,0.0,0.0,0.0,0.0,0.0,0.0,-0.0736,0.0,-0.1985,-0.257,-0.2605,-0.2818,-0.3278,-0.3312,-0.3306,-0.3306,-0.3306,-0.304,-0.2515,-0.2507,-0.1583,0.0089,0.0089,0.0712,0.1784,0.1828,0.1919,0.2062,0.2133,0.224,0.2387,0.2426,0.2437,0.2441,0.2418,0.3238,0.412,0.2849,0.2414,0.2435,0.2444,0.3353,0.4494,0.457,0.5474,0.6504,0.6569,0.734,0.8223,0.8201,0.8822,0.9822,1.1342,1.1389,1.1376,1.2412,1.3022,1.3192,1.2695,1.2988,1.3518,1.4071,1.4843,1.536,1.5213,1.5566,1.5957,1.6274,1.6581,1.6926,1.7272,1.7827,1.8166,1.8166,1.8166,1.8028,1.7703,1.671,1.56,1.4396,1.3075,1.1486,0.9541,0.9288,0.8334,0.672,0.6429,0.5596,0.4264,0.3733,0.307,-0.1325,-0.3833,-0.573,-0.5292,-0.4031,-0.2321,-0.0041,0.2771,0.5239,0.6269,0.7581,0.811,0.6679,0.5704,0.4138,0.1143,0.0388,0.0,-0.2181,-0.1552,0.0,-0.1149,-0.0325,0.0167,0.0,0.0499,0.0,0.0,-0.0465,-0.1205,-0.1351,-0.1353,-0.1161,-0.0755,-0.0843,-0.0886,-0.0886,-0.0797,-0.0487,0.0,0.0088,0.0576,0.134,0.1335,0.1511,0.1823,0.2271,0.2541,0.2737,0.3877,0.4403,0.4565,0.5239,0.5504,0.5475,0.5483,0.5712,0.5964,0.5623,0.5425,0.5354,0.5466,0.5716,0.6159,0.6666,0.7427,0.8196,0.8521,0.9224,0.9761,0.9523,1.027,1.1177,1.161,1.2253,1.2861,1.3133,1.3548,1.3859,1.372,1.4437,1.5128,1.5273,1.6062,1.6642,1.659,1.6517,1.6445,1.6305,1.6581,1.6926,1.7272,1.7664,1.7905,1.7905,1.7669,1.7482,1.7405,1.6087,1.5154,1.484,1.297,1.1643,1.1055,1.0257,0.9325,0.8332,0.7955,0.7043,0.5673,0.521,0.4258,-0.1707,-0.3225,-0.4129,-0.2719,-0.1148,0.0866,0.3808,0.6586,0.8897,1.0177,1.0956,1.108,1.0,0.8013,0.5836,0.3815,0.2471,0.0,-0.0392,0.0,0.0316,0.0,0.055,0.0,0.0952,0.1339,0.1725,0.0,0.1075,0.0477,0.0484,0.0406,0.0572,0.098,0.0845,0.0809,0.087,0.1198,0.1586,0.1947,0.1898,0.2333,0.316,0.3004,0.3135,0.3539,0.0,0.4081,0.4504,0.5193,0.5636,0.5934,0.6426,0.6588,0.6622,0.6622,0.6993,0.7534,0.7534,0.7888,0.8193,0.7323,0.7233,0.7664,0.8345,0.9061,0.9695,0.9951,1.0525,1.1057,1.1149,1.1731,1.251,1.322,1.3754,1.4173,1.437,1.4607,1.4736,1.4514,1.5312,1.6024,1.5955,1.6778,1.7426,1.7371,1.7243,1.7074,1.6921,1.6706,1.6649,1.6825,1.715,1.7361,1.7361,1.7175,1.6929,1.658,1.5572,1.4759,1.4192,1.2648,1.1632,1.1297,1.0672,0.9939,0.9099,0.8706,0.7897,0.6829,0.6265,0.5567,-0.1282,-0.213,-0.2421,0.0074,0.1821,0.3976,0.8131,1.0351,1.2053,1.3951,1.3856,1.3397,1.307,0.989,0.7236,0.6943,0.4649,0.2615,0.1781,0.206,0.2117,0.1448,0.1893,0.223,0.2347,0.2456,0.2779,0.3531,0.3161,0.2847,0.2641,0.2487,0.2405,0.2499,0.2357,0.2377,0.2558,0.3088,0.345,0.3694,0.3477,0.3957,0.5065,0.4781,0.504,0.5733,0.0,0.0,0.6382,0.6272,0.6421,0.674,0.6972,0.6999,0.7015,0.7127,0.7929,0.8992,0.8992,0.9769,1.0485,0.8617,0.8436,0.9106,0.9672,1.0343,1.0956,1.1053,1.1554,1.2231,1.2881,1.323,1.3805,1.5251,1.5392,1.5313,1.5727,1.5807,1.5691,1.5221,1.5994,1.6661,1.6459,1.7398,1.8078,1.7882,1.7822,1.7812,1.7837,1.7087,1.6523,1.6428,1.6828,1.7029,1.6933,1.6961,1.667,1.5894,1.5411,1.4637,1.3468,1.252,1.1757,1.1316,1.0973,1.0444,0.9717,0.9292,0.8712,0.7949,0.7208,0.6832,-0.0041,0.0349,0.0976,0.3255,0.5219,0.7465,1.0816,1.3458,1.5345,1.5945,1.6276,1.6026,1.4563,1.2869,1.1082,0.9252,0.7664,0.6176,0.4843,0.3776,0.306,0.2961,0.2502,0.2435,0.3039,0.3666,0.0,0.0,0.0,0.6142,0.5016,0.4563,0.4588,0.504,0.502,0.5178,0.5483,0.5685,0.5788,0.5677,0.5741,0.5869,0.5966,0.5922,0.5974,0.6112,0.0,0.0,0.6422,0.7013,0.7351,0.7606,0.8785,0.9232,0.9327,0.9873,1.0233,1.045,1.045,1.061,1.0754,1.0367,1.0324,1.0458,1.0557,1.1073,1.1736,1.2295,1.2941,1.3596,1.4209,1.4786,1.5251,1.5519,1.5942,1.625,1.6318,1.6373,1.6348,1.6223,1.7068,1.7679,1.721,1.8379,1.9228,1.8762,1.862,1.8519,1.854,1.8132,1.7699,1.7197,1.7937,1.8235,1.7673,1.7836,1.7714,1.7213,1.6474,1.5791,1.5107,1.3708,1.3077,1.3356,1.2403,1.1733,1.1385,1.1292,1.0653,0.9429,0.8652,0.8013,0.2888,0.3414,0.4081,0.6567,0.8913,1.1383,1.4316,1.6227,1.7592,1.8033,1.7634,1.6876,1.5755,1.3968,1.2271,1.0889,0.9519,0.8208,0.6965,0.6221,0.581,0.5793,0.5187,0.4929,0.5483,0.5555,0.6005,0.7068,0.0,0.7695,0.6623,0.6657,0.6783,0.6978,0.7308,0.7408,0.7357,0.7721,0.7923,0.8005,0.7957,0.7911,0.7878,0.8063,0.8048,0.7859,0.7664,0.0,0.8658,0.8553,0.8797,0.9355,1.0083,1.0347,1.0366,1.0673,1.1039,1.1316,1.1334,1.1592,1.1891,1.1891,1.1651,1.141,1.1796,1.2327,1.2907,1.3219,1.3761,1.4409,1.5027,1.5384,1.5672,1.6009,1.6522,1.6913,1.6913,1.6913,1.6913,1.6913,1.7323,1.7689,1.7706,1.8598,1.9295,1.9301,1.9256,1.9227,1.9227,1.9086,1.8591,1.7608,1.7955,1.8091,1.7777,1.7608,1.733,1.6905,1.6264,1.5676,1.5196,1.39,1.3437,1.3884,1.2796,1.2044,1.1782,1.1801,1.131,1.0296,0.9932,0.9599,0.6266,0.666,0.724,0.9992,1.2471,1.489,1.741,1.8545,1.9155,1.9527,1.8398,1.7233,1.6676,1.4744,1.3081,1.2607,1.1344,1.0148,0.9349,0.8931,0.8751,0.8745,0.8051,0.7717,0.8178,0.7655,0.0,0.9052,0.0,0.0,0.8257,0.859,0.8779,0.8668,0.9129,0.9235,0.8922,0.9369,0.9703,0.9955,0.9718,0.9627,0.9686,0.9982,0.9935,0.9699,0.9402,0.0,0.0,0.9999,1.0105,1.0825,1.0954,1.0998,1.1054,1.1177,1.1554,1.203,1.2184,1.2607,1.3125,1.3262,1.2734,1.2144,1.2871,1.3409,1.3831,1.4121,1.4529,1.5012,1.5656,1.5807,1.5899,1.6386,1.682,1.7166,1.728,1.7201,1.717,1.7273,1.7282,1.7437,1.7862,1.8454,1.9031,1.945,1.9617,1.969,1.969,1.969,1.9286,1.8253,1.8144,1.8068,1.7926,1.7555,1.7143,1.6707,1.6173,1.5705,1.5277,1.4277,1.3872,1.4236,1.3113,1.2464,1.2215,1.2089,1.1657,1.1032,1.1032,1.0948,0.9485,0.995,1.0699,1.3435,1.5358,1.7108,1.9126,1.9868,2.0042,1.9687,1.876,1.7854,1.7299,1.6164,1.533,1.5229,0.0,1.3032,1.2939,1.1664,1.0726,1.0717,0.9767,0.9386,1.0082,0.9688,0.9767,0.0,0.0,0.0,1.0166,1.0176,1.0212,1.0212,1.0238,1.0393,1.0571,1.064,1.0671,1.072,1.0649,1.0664,1.0651,1.0697,1.0704,1.0677,1.063,0.0,0.0,1.0698,1.0738,1.0854,1.1493,1.1719,1.1798,1.2483,1.2754,1.2891,1.3429,1.3675,1.3803,1.4348,1.3754,1.291,1.3537,1.3744,1.401,1.5147,1.5449,1.5683,1.6262,1.6398,1.6441,1.6466,1.6534,1.6725,1.7194,1.6922,1.6704,1.7232,1.7282,1.7294,1.7383,1.8232,1.8936,1.8984,1.9391,1.969,1.969,1.969,1.963,1.951,1.9536,1.9286,1.8654,1.8681,1.8493,1.7993,1.7437,1.6909,1.6361,1.5732,1.5392,1.5429,1.4286,1.3634,1.3616,1.3086,1.2395,1.171,1.171,1.1403,1.3542,1.3852,1.4304,1.6611,1.8476,1.9949,2.0847,2.1042,2.091,2.0522,1.9462,1.8419,1.7867,1.7162,1.6275,0.0,0.0,0.0,1.379,1.3192,1.2928,1.3185,1.2473,1.1873,0.0,0.0,1.1116,0.0,0.0,0.0,1.3017,1.2289,1.1914,1.1914,1.1914,1.1981,1.2048,1.2052,1.2049,1.2049,1.2059,1.1817,1.1436,1.1876,1.1801,1.1416,1.1416,0.0,0.0,1.1601,1.1678,1.2136,1.2781,1.2992,1.3095,1.3752,1.3984,1.4028,1.427,1.4337,1.4367,1.46,1.438,1.4043,1.4275,1.4617,1.497,1.5468,1.5874,1.6182,1.6454,1.6522,1.6522,1.6522,1.6982,1.7525,1.7733,1.7866,1.802,1.8222,1.7988,1.7788,1.7769,1.8398,1.8907,1.8912,1.9347,1.969,1.969,1.969,1.969,1.969,1.969,1.9591,1.9326,1.8768,1.8337,1.8118,1.7272,1.6714,1.6522,1.5901,1.5582,1.5584,1.4775,1.432,1.432,1.4104,1.3653,1.3012,1.3012,1.2657,1.6704,1.6992,1.7346,1.9227,2.0725,2.1846,2.2198,2.1893,2.1398,2.1084,1.9889,1.8755,1.8193,1.7786,1.7097,0.0,0.0,1.5504,1.5231,1.5278,1.5446,1.5766,0.0,1.4658,0.0,1.2976,0.0,0.0,0.0,0.0,0.0,1.4007,1.345,1.3448,1.3409,1.3443,1.3455,1.3445,1.3348,1.3193,1.3193,1.2803,1.2164,1.2677,1.2618,1.2115,0.0,0.0,0.0,1.2529,1.2686,1.3253,1.3854,1.4057,1.4129,1.4529,1.4698,1.4746,1.4879,1.496,1.5015,1.5171,1.5239,1.5223,1.5234,1.5426,1.566,1.5819,1.617,1.6522,1.6522,1.6522,1.6522,1.6522,1.7063,1.7728,1.8016,1.8275,1.8506,1.8825,1.8487,1.8166,1.8314,1.866,1.896,1.9109,1.9442,1.969,1.969,1.969,1.969,1.969,1.969,1.969,1.969,1.8738,1.8092,1.8118,1.7076,1.6522,1.6522,1.6095,1.5864,1.5864,1.5276,1.4971,1.4971,1.4789,1.4545,1.4301,1.4301,1.4062,1.8452,1.8905,1.9645,2.1179,2.1828,2.2278,2.3031,2.2312,2.1389,2.1089,1.9893,1.8721,1.8208,1.8142,1.8015,1.7471,1.7654,0.0,1.7859,1.8201,1.8453,1.8465,1.8012,1.7543,1.6993,1.5571,0.0,0.0,0.0,0.0,0.0,1.501,1.4662,1.4666,1.4688,1.4689,1.4681,1.467,1.4362,1.3793,1.3793,1.3468,1.2881,1.2881,1.2881,0.0,0.0,0.0,0.0,1.3554,1.3782,1.3839,1.4437,1.4676,1.467,1.4713,1.4713,1.4791,1.5392,1.5605,1.5684,1.6305,1.6466,1.6466,1.6479,1.6089,1.5727,1.6318,1.6522,1.6522,1.6522,1.6522,1.6522,1.6522,1.6522,1.6822,1.7879,1.7698,1.7619,1.8665,1.8477,1.8267,1.8811,1.8888,1.9084,1.9589,1.969,1.969,1.969,1.969,1.969,1.969,1.969,1.969,1.969,1.8729,1.8111,1.8106,1.7076,1.6522,1.6522,1.6466,1.6479,1.6479,1.5908,1.5588,1.5588,1.5005,1.4956,1.5474,1.5474,1.5378,1.9562,2.0331,2.1292,2.2589,2.323,2.351,2.3412,2.2579,2.1613,2.1105,1.9866,1.8724,1.8215,1.8131,1.8004,1.7412,1.7701,0.0,0.0,1.9263,1.9304,1.9246,1.7746,1.6646,0.0,0.0,0.0,0.0,0.0,0.0,0.0,1.6034,1.5536,1.471,1.4698,1.4718,1.4713,1.4701,1.4589,1.444,1.4439,1.4338,1.4139,1.4139,0.0,0.0,0.0,0.0,0.0,1.4337,1.4406,1.4492,1.5091,1.5332,1.5389,1.5775,1.5942,1.5954,1.6157,1.6237,1.625,1.6454,1.6522,1.659,1.6982,1.6683,1.625,1.6454,1.6522,1.6522,1.6522,1.6522,1.6522,1.6522,1.7076,1.7706,1.804,1.8561,1.9051,1.9388,1.9307,1.9131,1.892,1.9222,1.9382,1.9184,1.9479,1.969,1.969,1.969,1.969,1.969,1.969,1.969,1.969,1.8733,1.8091,1.808,1.7102,1.6522,1.6522,1.6522,1.6522,1.6522,1.6293,1.6435,1.6819,1.6638,1.6618,1.6726,1.6328,1.5814,2.0446,2.1417,2.2485,2.322,2.3611,2.375,2.345,2.2452,2.1409,2.083,1.9905,1.8994,1.8261,1.8502,1.862,1.802,1.8562,1.9341,2.0065,2.044,2.06,2.0348,0.0,0.0,0.0,0.0,0.0,0.0,0.0,0.0,0.0,1.6522,1.617,1.5392,1.5392,1.5392,1.5392,1.5392,1.5258,1.5045,1.504,1.4901,1.4688,1.4719,0.0,0.0,0.0,0.0,0.0,1.4971,1.5028,1.5075,1.5704,1.5949,1.5981,1.6343,1.6522,1.6522,1.6522,1.6522,1.6522,1.6522,1.6522,1.659,1.6969,1.7119,1.7132,1.7132,1.7132,1.716,1.7161,1.7144,1.72,1.7424,1.7998,1.8547,1.8725,1.9288,1.9756,1.9726,1.969,1.9579,1.9256,1.9483,1.9603,1.9244,1.9479,1.969,1.969,1.969,1.969,1.969,1.969,1.969,1.969,1.8711,1.8111,1.812,1.7072,1.6602,1.6832,1.6832,1.6913,1.7132,1.7132,1.7313,1.77,1.7895,1.7997,1.7922,1.7747,1.728,0.0,2.204,2.3152,2.3157,2.3183,2.3189,2.313,2.207,0.0,2.035,1.9936,1.9444,1.8465,1.9094,1.9642,1.9261,2.0073,2.0761,2.0879,2.1638,2.2052,0.0,1.998,0.0,0.0,0.0,0.0,0.0,0.0,0.0,0.0,1.6522,1.6522,1.6522,1.6522,1.6522,1.6522,1.6522,1.6237,1.566,1.566,1.5355,1.4816,1.4844,0.0,0.0,0.0,0.0,0.0,1.5435,1.5682,1.5704,1.6281,1.6522,1.6522,1.6522,1.6534,1.6547,1.6547,1.6615,1.6683,1.6683,1.6696,1.6751,1.6683,1.7351,1.816,1.8122,1.8162,1.8183,1.8188,1.824,1.8397,1.8963,1.916,1.935,1.9797,1.9972,1.9972,1.9786,1.9756,1.9756,1.9756,1.9741,1.969,1.969,1.969,1.969,1.969,1.9735,1.9765,1.9765,1.9801,1.9837,1.9837,1.8772,1.811,1.8112,1.7125,1.682,1.7364,1.7441,1.767,1.8205,1.8236,1.8244,1.8285,1.8821,1.9041,1.9067,1.9573,1.9379,2.0996,0.0,2.2814,2.2806,2.3018,2.3051,0.0,2.2216,2.1744,2.0595,2.0099,1.9778,1.9455,1.9281,1.9584,2.0721,2.1158,2.1592,2.2424,2.2076,0.0,2.1499,1.9668,1.835,0.0,0.0,0.0,0.0,0.0,0.0,0.0,1.6522,1.6522,1.6522,1.6522,1.6522,1.6522,1.6522,1.6441,1.6305,1.6305,1.6207,1.6078,1.6102,0.0,0.0,0.0,0.0,1.6102,1.6219,1.6281,1.6324,1.6448,1.6522,1.6522,1.6522,1.6807,1.72,1.72,1.7748,1.8465,1.8465,1.8785,1.9092,1.8548,1.8038,1.7573,1.7593,1.7884,1.8215,1.8214,1.856,1.8917,1.9065,1.9804,2.0368,1.9986,2.0641,2.1113,2.0582,2.0466,2.0466,2.0466,2.0029,1.969,1.969,1.969,1.969,1.969,2.0146,2.0467,2.0467,2.0907,2.1229,2.1229,1.9324,1.8106,1.8094,1.7536,1.7269,1.7364,1.7811,1.8047,1.8191,1.857,1.8797,1.8806,1.9332,1.9623,1.9636,1.9723,1.9379,2.1019,2.2344,2.367,2.3329,2.3484,2.3591,2.3177,2.2475,2.1693,2.1046,2.0584,2.022,1.9938,1.9836,2.0081,2.1013,2.1528,0.0,2.299,2.2184,2.1493,2.1493,1.9758,1.8486,0.0,0.0,0.0,0.0,0.0,0.0,0.0,1.6522,1.6522,1.6522,1.6522,1.6522,1.6522,1.6522,1.6522,1.6522,1.6522,1.6522,1.6522,1.6522,1.6522,0.0,0.0,0.0,1.6522,1.6522,1.6522,1.6522,1.6522,1.667,1.6888,1.6901,1.7433,1.8196,1.8168,1.8805,1.9505,1.9186,1.9342,1.9502,1.9162,1.8829,1.8595,1.8532,1.8697,1.8937,1.8937,1.9171,1.9564,2.0132,2.0785,2.1241,2.1211,2.1713,2.1944,2.1273,2.1182,2.1182,2.1166,2.0843,2.0602,2.0602,2.0339,2.0273,2.0579,2.0682,2.082,2.1129,2.1491,2.1723,2.1678,2.0279,1.9239,1.8961,1.8214,1.7886,1.812,1.8432,1.8678,1.8912,1.9233,1.9368,1.9368,1.9674,1.9798,1.9798,1.9798,1.9608,2.1009,2.292,2.4672,2.3918,2.3964,2.4167,2.396,2.2639,2.1466,2.1409,2.0984,2.0523,2.0099,2.0183,2.0429,2.0827,0.0,0.0,2.3053,2.2184,2.1493,2.1493,2.0022,0.0,0.0,0.0,0.0,0.0,0.0,0.0,0.0,1.6522,1.6539,1.6617,1.6617,1.6659,1.6756,1.6582,1.6552,1.6612,1.6625,1.662,1.6615,1.6615,1.659,0.0,0.0,0.0,1.6617,1.6612,1.6731,1.6893,1.6888,1.7256,1.7708,1.779,1.8495,1.9409,1.9564,1.9966,2.0263,1.9824,1.9636,1.9636,1.9522,1.9919,2.037,2.0167,2.0004,1.9952,1.994,1.9927,2.0231,2.1437,2.1769,2.2022,2.2607,2.2772,2.2664,2.1989,2.1858,2.1847,2.1868,2.1779,2.1694,2.1694,2.1203,2.1081,2.1651,2.1277,2.121,2.1781,2.1935,2.2002,2.2003,2.1499,2.0926,2.0343,1.9148,1.8676,1.9097,1.911,1.9323,1.9773,1.9798,1.9798,1.9798,1.9798,1.9822,1.996,1.996,1.9972,2.1087,2.2688,2.402,2.3036,2.3404,2.372,2.2804,2.2394,2.1983,2.1093,2.0348,1.9922,2.0104,1.9377,1.933,2.139,0.0,2.304,0.0,0.0,2.1493,2.1493,0.0,0.0,0.0,0.0,0.0,0.0,0.0,0.0,0.0,1.6522,1.6693,1.7143,1.7183,1.7423,1.7846,1.6957,1.6714,1.7193,1.719,1.718,1.7188,1.7188,1.6913,0.0,0.0,1.6751,1.7197,1.7179,1.7797,1.8714,1.8692,1.9105,1.9655,1.9691,2.0076,2.0759,2.1809,2.1858,2.1513,2.2002,2.2144,2.2043,2.1475,2.1766,2.2146,2.1565,2.1015,2.0643,2.0657,2.0677,2.0815,2.1518,2.2127,2.256,2.2673,2.3122,2.3293,2.2671,2.2542,2.2553,2.2536,2.2074,2.1699,2.1699,2.1625,2.1559,2.1699,2.2122,2.2405,2.2552,2.2975,2.3293,2.3329,2.2774,2.2381,2.2279,2.0677,1.9724,1.9661,1.9661,1.9725,1.9798,1.9798,1.9798,1.9798,1.9798,2.0042,2.057,2.057,2.0834,2.0357,2.1743,2.2878,2.1579,2.2325,2.3289,2.2766,2.16,2.0843,2.138,2.0422,1.9528,1.9949,1.9528,1.9731,2.1599,0.0,2.2628,2.3017,2.2184,2.1493,0.0,0.0,0.0,0.0,0.0,0.0,0.0,0.0,0.0,0.0,0.0,1.7491,1.773,1.7713,1.7875,1.8089,1.7625,1.749,1.7719,1.7431,1.7316,1.7306,1.7591,1.7433,1.6944,0.0,1.7704,1.8275,1.8275,1.8824,1.9656,1.9653,2.0003,2.0599,2.1263,2.1657,2.2025,2.2864,2.2978,2.2701,2.2701,2.2684,2.2621,2.2325,2.2446,2.2687,2.2701,2.2038,2.1274,2.1281,2.1274,2.1465,2.2094,2.2476,2.2805,2.3112,2.3389,2.3505,2.326,2.3208,2.3183,2.3183,2.2949,2.2744,2.2744,2.2468,2.2364,2.2685,2.2725,2.2844,2.3164,2.3441,2.3595,2.3595,2.3359,2.2893,2.2195,2.1059,2.0412,2.0335,1.9989,1.9798,1.9798,2.0178,2.0308,2.027,2.059,2.0881,2.112,2.112,2.1281,1.9735,2.0595,2.1233,1.9983,2.1193,2.2651,2.2456,2.0729,1.9668,2.1277,2.0135,1.9044,1.9516,1.9803,0.0,2.1267,2.1815,2.2335,2.283,2.2108,0.0,0.0,0.0,0.0,0.0,0.0,0.0,0.0,0.0,0.0,0.0,0.0,1.8182,1.8288,1.8289,1.8352,1.8451,1.85,1.8453,1.8291,1.7867,1.7691,1.7676,1.8113,1.7973,1.7518,1.8085,1.8712,1.928,1.946,1.9992,2.0699,2.0699,2.1055,2.1629,2.257,2.2891,2.2978,2.3419,2.3595,2.3507,2.3066,2.301,2.3143,2.3143,2.3246,2.3437,2.3732,2.3157,2.2322,2.2002,2.1805,2.189,2.2526,2.2805,2.3098,2.3699,2.3953,2.4059,2.4058,2.3951,2.3846,2.3834,2.3699,2.3595,2.3595,2.3198,2.3081,2.3522,2.3198,2.3081,2.3565,2.3595,2.367,2.3805,2.3984,2.3628,2.2663,2.1758,2.1195,2.1002,2.0668,2.0398,2.0268,2.0882,2.112,2.0911,2.155,2.1849,2.1937,2.1781,2.187,1.9719,1.9419,1.8904,1.8622,2.01,2.1574,2.1074,2.0053,1.9376,1.9924,1.894,1.8068,1.8496,1.9637,2.0445,2.0074,2.169,2.283,2.2447,0.0,0.0,0.0,0.0,0.0,0.0,0.0,0.0,0.0,0.0,0.0,0.0,0.0,0.0,1.8841,1.8849,1.9074,1.9588,1.9706,1.9445,1.8831,1.8821,1.8778,1.8797,1.8819,1.8541,1.8068,1.8759,1.9341,1.988,2.0494,2.1465,2.2499,2.2499,2.2877,2.3404,2.3492,2.3522,2.3522,2.358,2.3595,2.3595,2.3565,2.3941,2.4467,2.4467,2.4904,2.5269,2.4701,2.4476,2.4102,2.2944,2.2146,2.1866,2.2537,2.3187,2.3797,2.44,2.5017,2.5467,2.5455,2.494,2.4546,2.4507,2.4029,2.3595,2.3595,2.358,2.3565,2.3595,2.358,2.3565,2.3595,2.3595,2.3835,2.4492,2.5105,2.5418,2.531,2.3567,2.2309,2.1645,2.2205,2.2221,2.1574,2.2214,2.2247,2.1524,2.2207,2.2762,2.3273,2.2579,2.2917,1.8779,1.8691,1.8355,1.7494,1.8065,1.8967,1.9346,1.8037,1.7113,1.8379,1.7559,1.702,1.8281,0.0,1.9364,2.0417,2.079,2.1313,0.0,0.0,0.0,0.0,0.0,0.0,0.0,0.0,0.0,0.0,0.0,0.0,0.0,0.0,0.0,2.0637,2.0652,2.074,2.0937,2.0996,2.0886,2.0624,1.9893,1.9512,1.9513,1.9432,1.9338,1.9262,1.9815,2.0685,2.1671,2.1913,2.2499,2.3275,2.3275,2.3398,2.3595,2.3595,2.3595,2.3595,2.3595,2.3889,2.4217,2.4223,2.4672,2.5226,2.5206,2.5401,2.557,2.5299,2.5224,2.5014,2.4087,2.3714,2.3664,2.4317,2.4702,2.4944,2.5152,2.5439,2.559,2.5606,2.5409,2.5227,2.5213,2.5032,2.4852,2.4867,2.4832,2.4854,2.4854,2.4854,2.4854,2.4854,2.4866,2.4967,2.5194,2.5461,2.5619,2.56,2.4559,2.3828,2.3581,2.3434,2.321,2.2951,2.3622,2.3745,2.3423,2.4062,2.4231,2.3949,2.4163,2.4239,1.7922,1.7692,1.7462,1.6721,1.6701,1.7069,1.7991,1.6735,1.58,1.7539,1.707,1.676,1.792,0.0,0.0,0.0,2.05,0.0,0.0,0.0,0.0,0.0,0.0,0.0,0.0,0.0,0.0,0.0,0.0,0.0,0.0,0.0,0.0,0.0,2.171,2.1692,2.1703,2.19,2.204,2.2003,2.1162,2.0669,2.0466,2.037,2.0377,2.0493,2.106,2.1864,2.2733,2.2908,2.3224,2.3595,2.3595,2.3595,2.361,2.3831,2.3919,2.3934,2.4141,2.4541,2.4933,2.4912,2.5363,2.5909,2.5905,2.6051,2.6213,2.5983,2.5905,2.5819,2.5345,2.5061,2.5,2.5495,2.5764,2.5899,2.5918,2.6056,2.6208,2.6208,2.6075,2.5897,2.5931,2.5751,2.5616,2.562,2.5606,2.5588,2.5588,2.5591,2.5606,2.5606,2.5781,2.5931,2.5928,2.609,2.6221,2.6213,2.5859,2.5414,2.4996,2.4761,2.4497,2.4291,2.4973,2.514,2.4848,2.5467,2.553,2.5005,2.5252,2.5269,1.7218,1.6409,1.5807,1.6305,1.6277,1.6335,1.7173,1.63,1.5791,1.7587,1.7675,1.7377,1.7368,1.8772,0.0,1.9208,0.0,0.0,0.0,0.0,0.0,0.0,0.0,0.0,0.0,0.0,0.0,0.0,0.0,0.0,0.0,0.0,0.0,0.0,2.1724,2.1728,2.1735,2.2373,2.2694,2.2701,2.2701,2.2349,2.1719,2.1719,2.1719,2.1761,2.2428,2.2688,2.2732,2.3363,2.3595,2.3595,2.361,2.361,2.3683,2.4364,2.4602,2.4706,2.5379,2.5605,2.561,2.5635,2.6072,2.6593,2.6593,2.7085,2.7434,2.6811,2.6592,2.6603,2.6591,2.6144,2.563,2.563,2.6123,2.6624,2.6606,2.7127,2.7625,2.7625,2.706,2.6592,2.6592,2.6035,2.563,2.563,2.563,2.563,2.563,2.5609,2.5633,2.5633,2.622,2.6634,2.6591,2.7199,2.7625,2.7625,2.7625,2.6999,2.5667,2.6262,2.6312,2.5644,2.6255,2.6268,2.5523,2.6179,2.6491,2.6454,2.5738,2.5825,1.6597,1.6044,1.5786,1.6275,1.6471,1.6609,1.6875,1.5788,1.486,1.5452,1.5472,1.5739,1.7009,1.7901,0.0,0.0,0.0,0.0,0.0,0.0,0.0,0.0,0.0,0.0,0.0,0.0,0.0,0.0,0.0,0.0,0.0,0.0,0.0,0.0,2.3041,2.3035,2.3035,2.3238,2.3326,2.3316,2.3316,2.3001,2.2413,2.1925,2.1973,2.24,2.2615,2.2933,2.3363,2.3533,2.3595,2.367,2.4119,2.4015,2.3729,2.4882,2.5008,2.4694,2.5349,2.5901,2.6299,2.6283,2.6743,2.7319,2.7319,2.745,2.7545,2.7375,2.7294,2.7315,2.731,2.716,2.6991,2.6991,2.7141,2.731,2.7285,2.748,2.7625,2.7625,2.7419,2.7294,2.7294,2.7121,2.6991,2.6991,2.6991,2.6991,2.6991,2.7026,2.703,2.703,2.717,2.7285,2.7319,2.7475,2.7625,2.7625,2.7625,2.7415,2.7015,2.7215,2.7225,2.6991,2.721,2.7225,2.7001,2.7175,2.7027,2.6508,2.6823,2.6784,1.6356,1.6037,1.6018,1.6668,1.6876,1.685,1.6486,1.5841,1.5296,1.4882,1.4992,1.5512,1.6742,1.759,0.0,0.0,0.0,0.0,0.0,0.0,0.0,0.0,0.0,0.0,0.0,0.0,0.0,0.0,0.0,0.0,0.0,0.0,0.0,0.0,2.3595,2.3595,2.3595,2.3595,2.3595,2.3595,2.3595,2.3404,2.3051,2.2657,2.2669,2.3041,2.3065,2.3233,2.3595,2.3595,2.3595,2.3656,2.4338,2.4353,2.4164,2.5484,2.572,2.551,2.614,2.6672,2.7015,2.7015,2.728,2.7625,2.7625,2.7625,2.7625,2.7625,2.7625,2.7625,2.7625,2.7625,2.7625,2.7625,2.7625,2.7625,2.7625,2.7625,2.7625,2.7625,2.7625,2.7625,2.7625,2.7625,2.7625,2.7625,2.7625,2.7625,2.7625,2.7625,2.7625,2.7625,2.7625,2.7625,2.7625,2.7625,2.7625,2.7625,2.7625,2.7625,2.7625,2.7625,2.7625,2.7625,2.7625,2.7625,2.7625,2.7625,2.7386,2.6966,2.7386,2.7373,1.6403,1.6175,1.6228,1.7158,1.7349,1.7086,1.6156,1.6253,1.6298,1.5463,0.0,1.6117,1.6616,1.761,0.0,0.0,0.0,0.0,0.0,0.0,0.0,0.0,0.0,0.0,0.0,0.0,0.0,0.0,0.0,0.0,0.0,0.0,0.0,0.0,2.3595,2.3595,2.3595,2.3595,2.3595,0.0,2.3595,2.3595,2.3595,2.3595,2.3595,2.3595,2.3595,2.3595,2.3595,2.3595,2.3625,2.3744,2.4414,2.469,2.4826,2.6198,2.6665,2.6718,2.7345,2.7625,2.7625,2.7625,2.7625,2.7625,2.7625,2.7625,2.7625,2.7625,2.7625,2.7625,2.7625,2.7625,2.7625,2.7625,2.7625,2.7625,2.7625,2.7625,2.7625,2.7625,2.7625,2.7625,2.7625,2.7625,2.7625,2.7625,2.7625,2.7625,2.7625,2.7625,2.7625,2.7625,2.7625,2.7625,2.7625,2.7625,2.7625,2.7625,2.7625,2.7625,2.7625,2.7625,2.7625,2.7625,2.7625,2.7625,2.7625,2.7625,2.7625,2.7625,2.7625,2.7619,1.5761,1.5583,1.5871,1.7096,1.714,1.6708,1.616,1.5864,1.5532,1.4944,1.494,1.5314,1.6335,1.7222,0.0,0.0,0.0,0.0,0.0,0.0,0.0,0.0,0.0,0.0,0.0,0.0,0.0,0.0,0.0,0.0,0.0,0.0,0.0,2.3595,2.3595,2.3595,2.3595,2.3595,2.3595,0.0,2.3595,2.3595,2.3595,2.3595,2.3595,2.3595,2.3595,2.3595,2.3595,2.3595,2.3904,2.444,2.5123,2.5392,2.5535,2.6879,2.7052,2.6702,2.7387,2.7625,2.7625,2.7625,2.7625,2.7625,2.7625,2.7625,2.7625,2.7625,2.7625,2.7625,2.7625,2.7625,2.7625,2.7625,2.7625,2.7625,2.7625,2.7625,2.7625,2.7625,2.7625,2.7625,2.7625,2.7625,2.7625,2.7625,2.7625,2.7625,2.7625,2.7625,2.7625,2.7625,2.7625,2.7625,2.7625,2.7625,2.7625,2.7625,2.7625,2.7625,2.7625,2.7625,2.7625,2.7625,2.7625,2.7625,2.7625,2.7625,2.7625,2.7625,2.7625,2.7876,1.6218,1.6118,1.6262,1.7149,1.72,1.6882,1.6258,1.6037,1.582,1.5151,1.5067,1.5312,1.6333,0.0,0.0,0.0,0.0,0.0,0.0,0.0,0.0,0.0,0.0,0.0,0.0,0.0,0.0,0.0,0.0,0.0,0.0,2.3595,2.3595,2.3595,2.3595,2.3595,2.3595,2.3595,2.3786,2.4096,2.4096,2.4245,2.4541,2.3904,2.3595,2.361,2.3934,2.4096,2.4111,2.4438,2.4743,2.5138,2.5841,2.6087,2.6183,2.7245,2.7376,2.7116,2.7504,2.7625,2.7625,2.7625,2.7625,2.7625,2.7625,2.7625,2.7625,2.7625,2.7625,2.7625,2.7625,2.7625,2.7625,2.7625,2.7625,2.7625,2.7625,2.7625,2.7625,2.7625,2.7625,2.7625,2.7625,2.7861,2.8081,2.8081,2.8099,2.8177,2.8524,2.8551,2.8545,2.8539,2.8854,2.8899,2.8599,2.855,2.8551,2.8551,2.8551,2.8551,2.8551,2.8551,2.8396,2.8067,2.8081,2.8243,2.8576,2.8577,2.8539,2.8553,2.8553,2.8756,1.7045,1.7114,1.7056,1.7308,1.7377,1.717,1.6403,1.6457,1.653,1.5791,1.5694,1.5888,1.6595,0.0,0.0,0.0,0.0,0.0,0.0,0.0,0.0,0.0,0.0,0.0,0.0,0.0,0.0,0.0,0.0,0.0,2.3595,2.3595,2.3626,2.3747,2.3788,2.3818,2.3939,2.3936,2.423,2.478,2.4785,2.504,2.5574,2.4457,2.3938,2.3993,2.4541,2.478,2.4811,2.5364,2.5666,2.5834,2.6396,2.6672,2.6825,2.7515,2.767,2.7625,2.7735,2.767,2.7625,2.7625,2.7625,2.7625,2.7625,2.7625,2.7625,2.7625,2.7625,2.7625,2.7625,2.7625,2.7625,2.7625,2.7625,2.7625,2.7625,2.767,2.7765,2.7765,2.7876,2.7951,2.7955,2.8408,2.8785,2.8785,2.8769,2.8959,2.9544,2.9608,2.9577,2.9614,3.0087,3.0183,2.965,2.963,2.9617,2.9617,2.9617,2.9617,2.9617,2.9617,2.9394,2.8973,2.8814,2.9073,2.9581,2.9584,2.9585,2.9582,2.9599,2.9667,1.7388,1.7852,1.8113,1.7572,1.7399,1.7234,1.675,1.6645,1.6657,0.0,1.6792,1.708,0.0,0.0,0.0,0.0,0.0,0.0,0.0,0.0,0.0,0.0,0.0,0.0,0.0,0.0,0.0,0.0,0.0,0.0,2.3595,2.3595,2.3896,2.444,2.4447,2.473,2.533,2.5316,2.5364,2.5469,2.547,2.5516,2.5605,2.5395,2.5349,2.5349,2.5438,2.5469,2.5469,2.5558,2.594,2.6465,2.6598,2.6935,2.753,2.8142,2.8032,2.767,2.8173,2.8032,2.7625,2.7625,2.7625,2.7625,2.7625,2.7625,2.7625,2.7625,2.7625,2.7625,2.7625,2.7625,2.7625,2.7625,2.7625,2.7625,2.7625,2.8047,2.849,2.849,2.8931,2.9312,2.9327,2.9395,2.945,2.945,2.9491,2.9498,2.957,2.9618,2.9614,2.959,2.9669,2.9695,2.9594,2.9635,2.9591,2.9591,2.9591,2.9591,2.9591,2.9591,2.9824,3.022,2.9711,2.9508,2.9623,2.9594,2.9579,2.9592,2.961,2.9888,1.8141,1.8588,1.8818,1.8807,1.9029,1.8868,1.7684,1.7785,1.8017,1.7531,1.8029,0.0,0.0,0.0,0.0,0.0,0.0,0.0,0.0,0.0,0.0,0.0,0.0,0.0,0.0,0.0,0.0,0.0,0.0,2.3786,2.4141,2.4141,2.4487,2.5137,2.5146,2.5289,2.5614,2.5619,2.5794,2.6161,2.6162,2.6363,2.673,2.6314,2.5935,2.5605,2.601,2.615,2.6238,2.6946,2.7413,2.7685,2.8032,2.8364,2.8647,2.8915,2.8827,2.8639,2.8891,2.8851,2.8638,2.8638,2.836,2.8117,2.8094,2.7883,2.7625,2.7625,2.7625,2.7625,2.7625,2.7625,2.7625,2.7625,2.7625,2.7709,2.8092,2.836,2.8696,2.9094,2.943,2.9595,2.9625,2.9868,3.0089,3.0089,3.0115,3.0241,3.06,3.0704,3.0709,3.0679,3.1026,3.1114,3.0702,3.0644,3.0644,3.0644,3.0644,3.0644,3.0644,3.0644,3.0776,3.104,3.0454,3.0322,3.0644,3.0644,3.0644,3.0644,3.0678,3.0821,1.8904,1.9286,1.9479,1.978,2.0225,2.0257,1.8966,0.0,1.9467,0.0,1.9392,0.0,0.0,0.0,0.0,0.0,0.0,0.0,0.0,0.0,0.0,0.0,0.0,0.0,0.0,0.0,0.0,0.0,0.0,2.4148,2.4806,2.4836,2.5151,2.583,2.5843,2.5924,2.6096,2.6111,2.6358,2.6825,2.6825,2.714,2.756,2.706,2.6576,2.6152,2.6639,2.6869,2.6935,2.8032,2.8511,2.8559,2.9171,2.9422,2.9438,2.958,2.9557,2.9416,2.9566,2.951,2.9383,2.9383,2.9092,2.8706,2.8732,2.8403,2.8042,2.7845,2.781,2.781,2.7625,2.7745,2.7829,2.7829,2.7964,2.8271,2.8744,2.8986,2.9258,2.9941,3.007,3.0089,3.0089,3.0468,3.0746,3.0746,3.0741,3.0941,3.1407,3.1526,3.157,3.1537,3.2007,3.212,3.1539,3.1482,3.1482,3.1482,3.1482,3.1482,3.1482,3.1482,3.1482,3.1482,3.101,3.101,3.1482,3.1482,3.1482,3.1482,3.1482,3.1482,1.9317,1.9782,2.01,1.9767,2.0144,2.0549,2.0493,0.0,2.0522,2.0504,2.0696,0.0,0.0,0.0,0.0,0.0,0.0,0.0,0.0,0.0,0.0,0.0,0.0,0.0,0.0,0.0,0.0,0.0,0.0,2.4823,2.5497,2.5542,2.5863,2.654,2.6546,2.6862,2.75,2.7515,2.7515,2.7545,2.7545,2.756,2.7625,2.7545,2.755,2.7475,2.754,2.7535,2.7625,2.8253,2.8497,2.8556,2.9145,2.939,2.948,3.0055,2.9882,2.947,3.0034,2.9889,2.9399,2.9399,2.9376,2.9332,2.9361,2.9345,2.918,2.8591,2.8463,2.8319,2.776,2.8053,2.8547,2.8547,2.9026,2.953,2.9563,2.9987,3.0613,3.1245,3.1407,3.1422,3.1422,3.1437,3.1452,3.1452,3.1437,3.1437,3.1482,3.1495,3.1495,3.1524,3.1524,3.1524,3.1482,3.1482,3.1482,3.1482,3.1482,3.1482,3.1482,3.1482,3.1482,3.1482,3.1452,3.1452,3.1482,3.1482,3.1482,3.1482,3.1482,3.1482,2.1219,2.1586,2.1706,2.1465,2.1873,2.2065,2.1082,2.1156,2.1463,2.1463,0.0,0.0,0.0,0.0,0.0,0.0,0.0,0.0,0.0,0.0,0.0,0.0,0.0,0.0,0.0,0.0,0.0,0.0,0.0,0.0,2.6199,2.6266,2.6576,2.719,2.7259,2.7345,2.7625,2.7625,2.7625,2.7625,2.8001,2.8198,2.8195,2.8581,2.8777,2.8748,2.8744,2.8559,2.8204,2.8819,2.9309,2.9705,3.0297,3.0561,3.0578,3.0825,3.0735,3.0578,3.0825,3.1036,3.1274,3.1274,3.0988,3.0789,3.1263,3.0797,3.0066,2.992,2.9847,2.9713,2.9056,2.9041,2.922,2.922,2.9714,3.0182,3.0208,3.0698,3.1187,3.1452,3.1482,3.1482,3.1482,3.1482,3.1482,3.1482,3.1894,3.2064,3.1582,3.191,3.2007,3.1524,3.1482,3.1482,3.1482,3.1482,3.1482,3.1482,3.1482,3.1482,3.1482,3.1482,3.1482,3.1482,3.1482,3.1482,3.1482,3.1482,3.1482,3.1482,3.1482,3.1482,2.2111,2.2427,2.2637,2.2786,2.2884,2.285,2.2247,2.2055,2.2067,2.2261,0.0,0.0,0.0,0.0,0.0,0.0,0.0,0.0,0.0,0.0,0.0,0.0,0.0,0.0,0.0,0.0,0.0,0.0,0.0,0.0,2.6891,2.6961,2.715,2.761,2.7625,2.7685,2.7921,2.7685,2.7795,2.8253,2.841,2.8638,2.882,2.922,2.9395,2.9389,2.9421,2.9167,2.8844,2.9462,2.9962,3.037,3.0982,3.119,3.119,3.119,3.119,3.1241,3.1472,3.1877,3.2317,3.2594,3.2379,3.2147,3.263,3.2194,3.145,3.1294,3.1097,3.0763,3.0105,2.9931,2.9953,3.0178,3.0552,3.0851,3.0851,3.121,3.1482,3.1482,3.1482,3.1482,3.1482,3.1482,3.1482,3.1482,3.191,3.2064,3.1582,3.191,3.2064,3.1524,3.1482,3.1482,3.1482,3.1482,3.1482,3.1482,3.1482,3.1482,3.1482,3.1482,3.1482,3.1482,3.1482,3.1482,3.1482,3.1482,3.1482,3.1482,3.1482,3.1482,0.0,0.0,0.0,2.3389,2.299,0.0,2.3955,0.0,2.2455,2.2967,0.0,0.0,0.0,0.0,0.0,0.0,0.0,0.0,0.0,0.0,0.0,0.0,0.0,0.0,0.0,0.0,0.0,0.0,0.0,2.6901,2.7595,2.7625,2.764,2.7655,2.767,2.7951,2.8617,2.7986,2.8253,2.9473,2.8859,2.8841,2.9409,2.9426,2.9465,2.9459,2.9468,2.9446,2.9469,3.0077,3.0297,3.0387,3.0982,3.119,3.119,3.119,3.1207,3.1326,3.2039,3.2343,3.2478,3.3178,3.344,3.3457,3.3474,3.3457,3.3296,3.2741,3.2071,3.1437,3.0775,3.0556,3.0702,3.1375,3.1482,3.1482,3.1482,3.1482,3.1482,3.1482,3.1482,3.1482,3.1482,3.1482,3.1482,3.1482,3.1524,3.1524,3.1482,3.1524,3.1524,3.1482,3.1482,3.1482,3.1482,3.1482,3.1482,3.1482,3.1482,3.1482,3.1482,3.1482,3.1482,3.1482,3.1482,3.1482,3.1482,3.1482,3.1482,3.1482,3.1482,3.1482,2.2523,0.0,0.0,0.0,0.0,0.0,0.0,0.0,2.2455,2.2967,0.0,0.0,0.0,0.0,0.0,0.0,0.0,0.0,0.0,0.0,0.0,0.0,0.0,0.0,0.0,0.0,0.0,0.0,2.707,2.743,2.761,2.7993,2.8252,2.8316,2.8741,2.8837,2.8581,2.887,2.89,2.8779,2.9491,2.9873,3.0074,3.051,3.0701,3.0718,3.0694,3.0708,3.0674,3.043,3.0561,3.0982,3.114,3.119,3.119,3.119,3.1523,3.2015,3.2213,3.2995,3.393,3.4117,3.4201,3.4314,3.4851,3.4624,3.4155,3.4038,3.3551,3.2752,3.154,3.1219,3.13,3.1437,3.1482,3.1482,3.1482,3.1482,3.1482,3.1482,3.1482,3.1482,3.1482,3.1482,3.1482,3.1482,3.1951,3.212,3.1582,3.1951,3.212,3.1582,3.1482,3.1482,3.1482,3.1482,3.1482,3.1482,3.1482,3.1482,3.1482,3.1482,3.1482,3.1482,3.1482,3.1482,3.1482,3.1482,3.1482,3.1482,3.1482,3.1482,2.3151,0.0,0.0,0.0,0.0,0.0,2.3077,2.274,0.0,0.0,0.0,0.0,0.0,0.0,0.0,0.0,0.0,0.0,0.0,0.0,0.0,0.0,0.0,0.0,0.0,0.0,0.0,2.7036,2.7584,2.8091,2.8352,2.8685,2.9013,2.9366,2.9735,3.0017,3.0278,3.0349,3.0447,3.0577,3.0707,3.0903,3.115,3.1185,3.119,3.119,3.119,3.119,3.119,3.1162,3.1145,3.1224,3.1523,3.1664,3.1681,3.1998,3.2411,3.2823,3.3102,3.3787,3.4549,3.4873,3.4962,3.502,3.5476,3.5318,3.4958,3.5027,3.4333,3.3339,3.2256,3.1739,3.1482,3.1482,3.1482,3.1482,3.1482,3.1482,3.1482,3.1482,3.1482,3.1482,3.1482,3.1482,3.1482,3.1482,3.1853,3.2007,3.1582,3.1853,3.1951,3.1539,3.1482,3.1482,3.1482,3.1482,3.1482,3.1482,3.1482,3.1482,3.1482,3.1482,3.1482,3.1482,3.1482,3.1482,3.1482,3.1482,3.1482,3.1482,3.1482,3.1482,0.0,0.0,0.0,0.0,0.0,0.0,2.4739,2.3797,2.3075,0.0,0.0,0.0,0.0,0.0,0.0,0.0,0.0,0.0,0.0,0.0,0.0,0.0,0.0,0.0,0.0,2.7805,2.7835,2.7936,2.8517,2.9093,2.9627,2.9704,3.0055,3.0712,3.0795,3.1401,3.2577,3.2079,3.2351,3.3355,3.2171,3.1867,3.2293,3.1607,3.1275,3.119,3.1275,3.1309,3.1376,3.2104,3.1985,3.1393,3.2134,3.2429,3.2491,3.3163,3.344,3.3623,3.427,3.4578,3.474,3.538,3.5622,3.5622,3.5622,3.5622,3.5577,3.5515,3.4609,3.3443,3.2788,3.2064,3.1482,3.1482,3.1482,3.1482,3.1482,3.1482,3.1482,3.1482,3.1582,3.1582,3.1524,3.1582,3.164,3.164,3.164,3.164,3.164,3.164,3.1582,3.1539,3.1482,3.1482,3.1482,3.1482,3.1511,3.1586,3.1511,3.1511,3.1586,3.1511,3.1482,3.1482,3.1482,3.1482,3.1482,3.1482,3.1482,3.1482,3.1482,3.1482,0.0,0.0,0.0,0.0,0.0,0.0,2.3173,2.2775,2.2698,0.0,2.377,0.0,0.0,0.0,0.0,0.0,0.0,0.0,0.0,0.0,0.0,0.0,0.0,0.0,0.0,2.8876,2.9426,2.9971,3.06,3.1054,3.1173,3.1618,3.197,3.218,3.2667,3.2805,3.2606,3.2966,3.2981,3.2707,3.2908,3.2763,3.2307,3.2138,3.1749,3.1224,3.1816,3.211,3.2121,3.2882,3.2739,3.2141,3.2904,3.3195,3.3222,3.3322,3.3784,3.4303,3.4449,3.4903,3.538,3.5543,3.5622,3.5622,3.5622,3.5622,3.547,3.4941,3.4235,3.3443,3.2788,3.2064,3.1482,3.1482,3.1482,3.1482,3.1482,3.1482,3.1482,3.1482,3.1951,3.2231,3.1582,3.2007,3.2382,3.2382,3.2382,3.2382,3.2382,3.2382,3.2176,3.1582,3.1482,3.1482,3.1482,3.1482,3.1764,3.2287,3.1824,3.1764,3.2302,3.1824,3.1482,3.1482,3.1482,3.1482,3.1482,3.1482,3.1482,3.1482,3.1482,3.1482,0.0,0.0,0.0,2.4025,0.0,0.0,0.0,0.0,2.3506,2.5162,2.4955,2.4725,2.5427,0.0,0.0,0.0,0.0,0.0,0.0,0.0,0.0,0.0,0.0,0.0,0.0,2.99,3.0387,3.0998,3.1678,3.2171,3.2497,3.2767,3.3138,3.3533,3.3824,3.401,3.4112,3.4409,3.438,3.4058,3.3616,3.3406,3.3355,3.2628,3.229,3.2324,3.2679,3.2848,3.2899,3.3643,3.3744,3.3432,3.3812,3.3931,3.3977,3.4359,3.474,3.5037,3.5037,3.5296,3.5622,3.5622,3.5622,3.5622,3.5622,3.5622,3.5515,3.5207,3.4399,3.3547,3.3198,3.2312,3.1482,3.1482,3.1482,3.1482,3.1482,3.1482,3.1482,3.1482,3.212,3.2382,3.164,3.212,3.2492,3.212,3.2382,3.2492,3.212,3.2382,3.2465,3.2032,3.2018,3.2329,3.3038,3.2432,3.2464,3.3526,3.2297,3.1824,3.2482,3.1884,3.1482,3.1482,3.1482,3.1482,3.1482,3.1482,3.1482,3.1482,3.1482,3.1482,0.0,0.0,0.0,0.0,0.0,2.4908,0.0,0.0,0.0,0.0,0.0,0.0,0.0,0.0,0.0,0.0,0.0,0.0,0.0,0.0,0.0,0.0,0.0,0.0,0.0,3.1059,3.1435,3.2031,3.2578,3.3172,3.3803,3.3829,3.4083,3.4711,3.4728,3.5006,3.556,3.5622,3.5622,3.5605,3.4404,3.4066,3.4455,3.3254,3.2966,3.3406,3.3558,3.3609,3.3677,3.4404,3.4709,3.4709,3.4701,3.4703,3.4763,3.5379,3.5622,3.5622,3.5622,3.5622,3.5622,3.5622,3.5622,3.5622,3.5622,3.5622,3.5622,3.5622,3.4607,3.362,3.3617,3.2555,3.1482,3.1482,3.1482,3.1482,3.1482,3.1482,3.1482,3.1482,3.212,3.2382,3.164,3.2216,3.2586,3.1992,3.2422,3.2617,3.2175,3.2511,3.2829,3.2913,3.293,3.3465,3.48,3.3667,3.3459,3.4601,3.281,3.194,3.2482,3.1884,3.1482,3.1482,3.1482,3.1482,3.1482,3.1482,3.1482,3.1482,3.1482,3.1482,0.0,0.0,0.0,0.0,2.3736,0.0,0.0,0.0,0.0,0.0,0.0,0.0,0.0,0.0,0.0,0.0,0.0,0.0,0.0,0.0,0.0,0.0,0.0,0.0,0.0,0.0,3.3453,3.4177,3.4261,3.4583,3.529,3.5368,3.5402,3.5487,3.5487,3.5537,3.5622,3.5622,3.5622,3.5622,3.5453,3.5064,3.4489,3.432,3.3931,3.344,3.4083,3.437,3.4421,3.5182,3.5504,3.5504,3.5487,3.547,3.547,3.5588,3.5622,3.5622,3.5622,3.5622,3.5622,3.5622,3.5622,3.5622,3.5622,3.5622,3.5622,3.5622,3.4648,3.3598,3.362,3.2555,3.1482,3.1482,3.1482,3.1482,3.1482,3.1482,3.1482,3.1482,3.212,3.2382,3.164,3.261,3.3443,3.3375,3.3427,3.365,3.4165,3.3756,3.3661,3.4388,3.4465,3.4753,3.5623,3.4946,3.4541,3.4716,3.329,3.2466,3.2482,3.1884,3.1482,3.1482,3.1482,3.1482,3.1482,3.1482,3.1482,3.1482,3.1482,3.1482,0.0,0.0,0.0,0.0,0.0,0.0,2.515,0.0,2.4312,0.0,0.0,0.0,0.0,0.0,0.0,0.0,0.0,0.0,0.0,0.0,0.0,0.0,0.0,0.0,0.0,0.0,0.0,0.0,0.0,3.5487,3.6232,3.631,3.6305,3.6287,3.583,3.5622,3.5622,3.5622,3.5622,3.556,3.5182,3.503,3.5131,3.4692,3.4556,3.4709,3.5013,3.5148,3.5165,3.5487,3.5622,3.5622,3.5622,3.5622,3.5622,3.5622,3.5622,3.5622,3.5622,3.5622,3.5622,3.5622,3.5622,3.5622,3.5622,3.5622,3.5532,3.5121,3.4331,3.3499,3.3103,3.2256,3.1482,3.1482,3.1482,3.1482,3.1482,3.1482,3.1482,3.1482,3.212,3.2382,3.164,3.2367,3.2879,3.2461,3.3077,3.375,3.4022,3.4101,3.4581,3.5799,3.5466,3.5854,3.747,3.6158,3.562,3.6435,3.4778,3.3429,3.2611,3.2297,3.1968,3.1482,3.1482,3.1482,3.1482,3.1482,3.1482,3.1482,3.1482,3.1482,2.2994,0.0,0.0,0.0,0.0,0.0,0.0,0.0,0.0,0.0,0.0,0.0,0.0,0.0,0.0,0.0,0.0,0.0,0.0,0.0,0.0,0.0,0.0,0.0,0.0,0.0,0.0,0.0,0.0,0.0,3.703,3.6902,3.6793,3.6827,3.6219,3.5825,3.5622,3.5622,3.5622,3.556,3.5064,3.5081,3.5605,3.5064,3.5098,3.5622,3.5622,3.5622,3.5622,3.5622,3.5622,3.5622,3.5622,3.5622,3.5622,3.5622,3.5622,3.5622,3.5622,3.5622,3.5622,3.5622,3.5622,3.5622,3.5622,3.5622,3.5487,3.498,3.425,3.3475,3.3002,3.2216,3.1482,3.1482,3.1482,3.1582,3.1739,3.1796,3.1853,3.2048,3.2532,3.268,3.2145,3.2664,3.2879,3.2201,3.3287,3.4282,3.4508,3.4924,3.577,3.7213,3.6835,3.7254,3.909,3.7629,3.6898,3.7488,3.569,3.41,3.2931,3.2726,3.2243,3.1539,3.1482,3.1482,3.1482,3.1482,3.1482,3.1482,3.1482,3.1482,0.0,0.0,0.0,2.1766,0.0,0.0,0.0,0.0,2.5546,0.0,0.0,0.0,0.0,0.0,0.0,2.7793,0.0,0.0,0.0,0.0,0.0,0.0,0.0,0.0,0.0,0.0,0.0,0.0,0.0,0.0,3.7736,3.7203,3.6787,3.678,3.6789,3.6383,3.5622,3.5622,3.5622,3.5622,3.5588,3.5605,3.5622,3.5588,3.5605,3.5622,3.5622,3.5622,3.5622,3.5622,3.5622,3.5622,3.5622,3.5622,3.5622,3.5622,3.5622,3.5622,3.5622,3.5622,3.5622,3.5622,3.5622,3.5622,3.5622,3.5622,3.5577,3.5577,3.46,3.3615,3.3562,3.2571,3.1482,3.1482,3.1482,3.1697,3.2437,3.2532,3.2734,3.3391,3.3531,3.3531,3.3531,3.4087,3.4333,3.3633,3.4738,3.586,3.6516,3.6675,3.7261,3.8684,3.8821,3.9123,4.0003,3.9327,3.8321,3.6916,3.5493,3.4404,3.3682,3.299,3.2231,3.1524,3.1482,3.1482,3.1482,3.1482,3.1482,3.1482,3.1482,3.1482,0.0,0.0,2.2241,2.1801,0.0,0.0,0.0,0.0,0.0,0.0,0.0,0.0,0.0,0.0,2.8252,2.8528,0.0,0.0,0.0,0.0,0.0,0.0,0.0,0.0,0.0,0.0,0.0,0.0,0.0,0.0,0.0,3.8366,3.8267,3.8278,3.7787,3.7161,3.64,3.6383,3.6129,3.5622,3.5622,3.5622,3.5622,3.5622,3.5622,3.5622,3.5622,3.5622,3.5622,3.5622,3.5622,3.5622,3.5622,3.5622,3.5622,3.5622,3.5622,3.5622,3.5622,3.5622,3.5622,3.5622,3.5622,3.5622,3.5622,3.5622,3.5509,3.5082,3.4306,3.3512,3.303,3.222,3.1482,3.1482,3.1482,3.1682,3.2437,3.2586,3.2641,3.2895,3.3633,3.3987,3.3093,3.4252,3.4894,3.3786,3.4805,3.5943,3.6651,3.7167,3.8011,3.9527,3.9209,3.9209,4.002,3.9411,3.8603,3.7569,3.6577,3.5498,3.4392,3.3609,3.2639,3.1539,3.1482,3.1482,3.1482,3.1482,3.1482,3.1482,3.1482,3.1482,2.1614,2.1556,0.0,2.1188,2.1514,0.0,2.2842,0.0,0.0,0.0,0.0,0.0,0.0,0.0,0.0,2.8976,2.9428,0.0,0.0,3.0213,0.0,0.0,0.0,0.0,0.0,0.0,3.3042,3.5812,0.0,0.0,0.0,0.0,3.9022,3.8988,3.8531,3.7804,3.6789,3.6772,3.64,3.5622,3.5622,3.5622,3.5622,3.5622,3.5622,3.5622,3.5622,3.5622,3.5622,3.5622,3.5622,3.5622,3.5622,3.5622,3.5622,3.5622,3.5622,3.5622,3.5622,3.5622,3.5622,3.5622,3.5622,3.5622,3.5622,3.5622,3.5509,3.5099,3.4303,3.3475,3.3053,3.2255,3.1482,3.1482,3.1482,3.1796,3.2734,3.2949,3.3093,3.3547,3.4611,3.5101,3.4239,3.5381,3.5927,3.4576,3.5564,3.677,3.7486,3.8168,3.8989,3.9969,3.961,3.9558,4.007,3.9648,3.9208,3.8721,3.7935,3.6812,3.5189,3.4369,3.3184,3.1554,3.1482,3.1482,3.1482,3.1482,3.1482,3.1482,3.1482,3.1482]},{"header":{"parameterUnit":"m.s-1","parameterCategory":1,"la1":30.6,"la2":29.2853,"lo1":-89.7004,"lo2":-87.6739,"dy":0.0162,"dx":0.0183,"nx":112,"ny":82,"refTime":"2025-08-17T06:00:00:Z","depth":0,"parameterNumber":3,"parameterNumberName":"V-component_of_WINDS"},"data":[0.0,0.0,0.0,0.0,0.0,0.0,0.0,0.0,0.0,0.0,0.0,0.0,0.0,0.0,0.0,0.0,0.0,0.0,0.0,0.0,0.0,0.0,0.0,0.0,0.0,0.0,0.0,0.0,0.0,0.0,0.0,0.0,0.0,0.0,0.0,0.0,0.0,0.0,0.0,0.0,0.0,0.0,0.0,0.0,0.0,0.0,0.0,0.0,0.0,0.0,0.0,0.0,0.0,0.0,0.0,0.0,0.0,0.0,0.0,0.0,0.0,0.0,0.0,0.0,0.0,0.0,0.0,0.0,0.0,0.0,0.0,0.0,0.0,0.0,0.0,0.0,0.0,0.0,0.0,0.0,0.0,0.0,0.0,0.0,0.0,0.0,0.0,0.0,0.0,0.0,2.0075,1.8696,1.4486,0.9994,0.5633,0.3956,0.3197,0.3388,0.0,0.0,0.0,0.0,0.0,0.0,0.0,0.0,0.0,0.0,0.0,0.0,0.0,0.0,0.0,0.0,0.0,0.0,0.0,0.0,0.0,0.0,0.0,0.0,0.0,0.0,0.0,0.0,0.0,0.0,0.0,0.0,0.0,0.0,0.0,0.0,0.0,0.0,0.0,0.0,0.0,0.0,0.0,0.0,0.0,0.0,0.0,0.0,0.0,0.0,0.0,0.0,0.0,0.0,0.0,0.0,0.0,0.0,0.0,0.0,0.0,0.0,0.0,0.0,0.0,0.0,0.0,0.0,0.0,0.0,0.0,0.0,0.0,0.0,0.0,0.0,0.0,0.0,0.0,0.0,0.0,0.0,0.0,0.0,0.0,0.0,0.0,0.0,0.0,0.0,0.0,0.0,0.0,0.0,0.0,0.0,0.0,0.0,0.0,0.0,0.0,0.0,0.0,0.0,1.6734,1.3746,1.2298,0.9414,0.4088,0.2617,0.1592,0.0677,0.0,0.0,0.0,0.0,0.0,0.0,0.0,0.0,0.0,0.0,0.0,0.0,0.0,0.0,0.0,0.0,0.0,0.0,0.0,0.0,0.0,0.0,0.0,0.0,0.0,0.0,0.0,0.0,0.0,0.0,0.0,0.0,0.0,0.0,0.0,0.0,0.0,0.0,0.0,0.0,0.0,0.0,0.0,0.0,0.0,0.0,0.0,0.0,0.0,0.0,0.0,0.0,0.0,0.0,0.0,0.0,0.0,0.0,0.0,0.0,0.0,0.0,0.0,0.0,0.0,0.0,0.0,0.0,0.0,0.0,0.0,0.0,0.0,0.0,0.0,0.0,0.0,0.0,0.0,0.0,0.0,0.0,0.0,0.0,0.0,0.0,0.0,0.0,0.0,0.0,0.0,0.0,0.0,0.0,0.0,0.0,0.0,0.0,0.0,0.0,0.0,0.0,0.0,1.6742,1.4776,1.1514,1.0269,0.7619,0.2579,0.0597,-0.0494,-0.0827,0.0086,0.0,0.0,0.0,0.0,0.0,0.0,0.0,0.0,0.0,0.0,0.0,0.0,0.0,0.0,0.0,0.0,0.0,0.0,0.0,0.0,0.0,0.0,0.0,0.0,0.0,0.0,0.0,0.0,0.0,0.0,0.0,0.0,0.0,0.0,0.0,0.0,0.0,0.0,0.0,0.0,0.0,0.0,0.0,0.0,0.0,0.0,0.0,0.0,0.0,0.0,0.0,0.0,0.0,0.0,0.0,0.0,0.0,0.0,0.0,0.0,0.0,0.0,0.0,0.0,0.0,0.0,0.0,0.0,0.0,0.0,0.0,0.0,0.0,0.0,0.0,0.0,0.0,0.0,0.0,0.0,0.0,0.0,0.0,0.0,0.0,0.0,0.0,0.0,0.0,0.0,0.0,0.0,0.0,0.0,0.0,0.0,0.0,0.0,0.0,0.0,0.0,0.0,1.5196,1.3249,0.9895,0.8615,0.6089,0.1312,-0.1331,-0.2612,-0.2206,-0.2023,0.0,0.0,0.0,0.0,0.0,0.0,0.0,0.0,0.0,0.0,0.0,0.0,0.0,0.0,0.0,0.0,0.0,0.0,0.0,0.0,0.0,0.0,0.0,0.0,0.0,0.0,0.0,0.0,0.0,0.0,0.0,0.0,0.0,0.0,0.0,0.0,0.0,0.0,0.0,0.0,0.0,0.0,0.0,0.0,0.0,0.0,0.0,0.0,0.0,0.0,0.0,0.0,0.0,0.0,0.0,0.0,0.0,0.0,0.0,0.0,0.0,0.0,0.0,0.0,0.0,0.0,0.0,0.0,0.0,0.0,0.0,0.0,0.0,0.0,0.0,0.0,0.0,0.0,0.0,0.0,0.0,0.0,0.0,0.0,0.0,0.0,0.0,0.0,0.0,0.0,0.0,0.0,0.0,0.0,0.0,0.0,0.0,0.0,0.0,0.0,0.0,0.0,1.3655,1.1908,0.8021,0.768,0.5657,0.0533,-0.2867,-0.4481,-0.3962,-0.2872,0.0,0.0,0.0,0.0,0.0,0.0,0.0,0.0,0.0,0.0,0.0,0.0,0.0,0.0,0.0,0.0,0.0,0.0,0.0,0.0,0.0,0.0,0.0,0.0,0.0,0.0,0.0,0.0,0.0,0.0,0.0,0.0,0.0,0.0,0.0,0.0,0.0,0.0,0.0,0.0,0.0,0.0,0.0,0.0,0.0,0.0,0.0,0.0,0.0,0.0,0.0,0.0,0.0,0.0,0.0,0.0,0.0,0.0,0.0,0.0,0.0,0.0,0.0,0.0,0.0,0.0,0.0,0.0,0.0,0.0,0.0,0.0,0.0,0.0,0.0,0.0,0.0,0.0,0.0,0.0,0.0,0.0,0.0,0.0,0.0,0.0,0.0,0.0,0.0,0.0,0.0,0.0,0.0,0.0,0.0,0.0,0.0,0.0,0.0,0.0,0.0,0.0,1.2648,1.1094,0.0,0.6006,0.3655,0.0451,-0.231,-0.3764,-0.3513,0.0,0.0,0.0,0.0,0.0,0.0,0.0,0.0,0.0,0.0,0.0,0.0,0.0,0.0,0.0,0.0,0.0,0.0,0.0,0.0,0.0,0.0,0.0,0.0,0.0,0.0,0.0,0.0,0.0,0.0,0.0,0.0,0.0,0.0,0.0,0.0,0.0,0.0,0.0,0.0,0.0,0.0,0.0,0.0,0.0,0.0,0.0,0.0,0.0,0.0,0.0,0.0,0.0,0.0,0.0,0.0,0.0,0.0,0.0,0.0,0.0,0.0,0.0,0.0,0.0,0.0,0.0,0.0,0.0,0.0,0.0,0.0,0.0,0.0,0.0,0.0,0.0,0.0,0.0,0.0,0.0,0.0,0.0,0.0,0.0,0.0,0.0,0.0,0.0,0.0,0.0,0.0,0.0,0.0,0.0,0.0,0.0,0.0,0.0,0.0,0.0,0.0,1.2899,1.1744,1.0155,0.0,0.4658,0.1923,-0.0187,-0.2379,-0.354,-0.3279,0.0,0.0,0.0,0.0,0.0,0.0,0.0,0.0,0.0,0.0,0.0,0.0,0.0,0.0,0.0,0.0,0.0,0.0,0.0,0.0,0.0,0.0,0.0,0.0,0.0,0.0,0.0,0.0,0.0,0.0,0.0,0.0,0.0,0.0,0.0,0.0,0.0,0.0,0.0,0.0,0.0,0.0,0.0,0.0,0.0,0.0,0.0,0.0,0.0,0.0,0.0,0.0,0.0,0.0,0.0,0.0,0.0,0.0,0.0,0.0,0.0,0.0,0.0,0.0,0.0,0.0,0.0,0.0,0.0,0.0,0.0,0.0,0.0,0.0,0.0,0.0,0.0,0.0,0.0,0.0,0.0,0.0,0.0,0.0,0.0,0.0,0.0,0.0,0.0,0.0,0.0,0.0,0.0,0.0,0.0,0.0,0.0,0.0,0.0,0.0,0.0,0.0,1.2455,1.0816,0.9026,0.6998,0.3709,0.0747,-0.1619,-0.3384,-0.4173,0.0,0.0,0.0,0.0,0.0,0.0,0.0,0.0,0.0,0.0,0.0,0.0,0.0,0.0,0.0,0.0,0.0,0.0,0.0,0.0,0.0,0.0,0.0,0.0,0.0,0.0,0.0,0.0,0.0,0.0,0.0,0.0,0.0,0.0,0.0,0.0,0.0,0.0,0.0,0.0,0.0,0.0,0.0,0.0,0.0,0.0,0.0,0.0,0.0,0.0,0.0,0.0,0.0,0.0,0.0,0.0,0.0,0.0,0.0,0.0,0.0,0.0,0.0,0.0,0.0,0.0,0.0,0.0,0.0,0.0,0.0,0.0,0.0,0.0,0.0,0.0,0.0,0.0,0.0,0.0,0.0,0.0,0.0,0.0,0.0,0.0,0.0,0.0,0.0,0.0,0.0,0.0,0.0,0.0,0.0,0.0,0.0,0.0,0.0,0.0,0.0,0.0,0.0,1.2074,1.0417,0.843,0.5927,0.2581,-0.0294,-0.2275,-0.3283,-0.338,-0.2275,0.0,0.0,0.0,0.0,0.0,0.0,0.0,0.0,0.0,0.0,0.0,0.0,0.0,0.0,0.0,0.0,0.0,0.0,0.0,0.0,0.0,0.0,0.0,0.0,0.0,0.0,0.0,0.0,0.0,0.0,0.0,0.0,0.0,0.0,0.0,0.0,0.0,0.0,0.0,0.0,0.0,0.0,0.0,0.0,0.0,0.0,0.0,0.0,0.0,0.0,0.0,0.0,0.0,0.0,0.0,0.0,0.0,0.0,0.0,0.0,0.0,0.0,0.0,0.0,0.0,0.0,0.0,0.0,0.0,0.0,0.0,0.0,0.0,0.0,0.0,0.0,0.0,0.0,0.0,0.0,0.0,0.0,0.0,0.0,0.0,0.0,0.0,0.0,0.0,0.0,0.0,0.0,0.0,0.0,0.0,0.0,0.0,0.0,0.0,0.0,0.0,0.0,1.2055,1.0444,0.8061,0.4546,0.1451,-0.1181,-0.3216,-0.3513,-0.3361,-0.2763,0.0,0.0,0.0,0.0,0.0,0.0,0.0,0.0,0.0,0.0,0.0,0.0,0.0,0.0,0.0,0.0,0.0,0.0,0.0,0.0,0.0,0.0,0.0,0.0,0.0,0.0,0.0,0.0,0.0,0.0,0.0,0.0,0.0,0.0,0.0,0.0,0.0,0.0,0.0,0.0,0.0,0.0,0.0,0.0,0.0,0.0,0.0,0.0,0.0,0.0,0.0,0.0,0.0,0.0,0.0,0.0,0.0,0.0,0.0,0.0,0.0,0.0,0.0,0.0,0.0,0.0,0.0,0.0,0.0,0.0,0.0,0.0,0.0,0.0,0.0,0.0,0.0,0.0,0.0,0.0,0.0,0.0,0.0,0.0,0.0,0.0,0.0,0.0,0.0,0.0,0.0,0.0,0.0,0.0,0.0,0.0,0.0,0.0,0.0,0.0,0.0,0.0,1.2319,1.077,0.7966,0.3223,0.0548,-0.188,-0.428,-0.3912,-0.3724,-0.4149,0.0,0.0,0.0,0.0,0.0,0.0,0.0,0.0,0.0,0.0,0.0,0.0,0.0,0.0,0.0,0.0,0.0,0.0,0.0,0.0,0.0,0.0,0.0,0.0,0.0,0.0,0.0,0.0,0.0,0.0,0.0,0.0,0.0,0.0,0.0,0.0,0.0,0.0,0.0,0.0,0.0,0.0,0.0,0.0,0.0,0.0,0.0,0.0,0.0,0.0,0.0,0.0,0.0,0.0,0.0,0.0,0.0,0.0,0.0,0.0,1.7855,0.0,0.0,0.0,0.0,0.0,0.0,0.0,0.0,0.0,0.0,0.0,0.0,0.0,0.0,0.0,0.0,0.0,0.0,0.0,0.0,0.0,0.0,0.0,0.0,0.0,0.0,0.0,0.0,0.0,0.0,0.0,0.0,0.0,0.0,0.0,0.0,0.0,0.0,0.0,0.0,0.0,1.2319,1.1104,0.8597,0.4103,0.0903,-0.2046,-0.4856,-0.4036,-0.3062,-0.2386,-0.0805,0.0,0.0,0.0,0.0,0.0,0.0,0.0,0.0,0.0,0.0,0.0,0.0,0.0,0.0,0.0,0.0,0.0,0.0,0.0,0.0,0.0,0.0,0.0,0.0,0.0,0.0,0.0,0.0,0.0,0.0,0.0,0.0,0.0,0.0,0.0,0.0,0.0,0.0,0.0,0.0,0.0,0.0,0.0,0.0,0.0,0.0,0.0,0.0,0.0,0.0,0.0,0.0,0.0,0.0,0.0,0.0,0.0,0.0,0.0,0.0,1.8347,0.0,0.0,0.0,0.0,0.0,0.0,0.0,0.0,0.0,0.0,0.0,0.0,0.0,0.0,0.0,0.0,0.0,0.0,0.0,0.0,0.0,0.0,0.0,0.0,0.0,0.0,0.0,0.0,0.0,0.0,0.0,0.0,0.0,0.0,0.0,0.0,0.0,0.0,0.0,0.0,1.3984,1.2673,0.9917,0.5034,0.1143,-0.1908,-0.3869,-0.3812,-0.3458,-0.3086,-0.172,0.0,0.0,0.0,0.0,0.0,0.0,0.0,0.0,0.0,0.0,0.0,0.0,0.0,0.0,0.0,0.0,0.0,0.0,0.0,0.0,0.0,0.0,0.0,0.0,0.0,0.0,0.0,0.0,0.0,0.0,0.0,0.0,0.0,0.0,0.0,0.0,0.0,0.0,0.0,0.0,0.0,0.0,0.0,0.0,0.0,0.0,0.0,0.0,0.0,0.0,0.0,0.0,0.0,1.2677,1.3861,1.5781,1.5868,1.6131,1.6471,1.7024,1.77,1.8614,0.0,0.0,0.0,0.0,0.0,0.0,0.0,0.0,0.0,0.0,0.0,0.0,0.0,0.0,0.0,0.0,0.0,0.0,0.0,0.0,0.0,0.0,0.0,0.0,0.0,2.1589,2.1278,0.0,0.0,0.0,0.0,0.0,0.0,0.0,0.0,0.0,0.0,0.0,0.0,1.5389,1.3808,1.0867,0.6127,0.1517,-0.165,-0.2687,-0.3442,-0.4071,-0.4674,-0.3115,-0.1744,0.0,0.0,0.0,0.0,0.0,0.0,0.0,0.0,0.0,0.0,0.0,0.0,0.0,0.0,0.0,0.0,0.0,0.0,0.0,0.0,0.0,0.0,0.0,0.0,0.0,0.0,0.0,0.0,0.0,0.0,0.0,0.0,2.1121,2.3344,0.0,0.0,0.0,0.0,0.0,0.0,0.0,0.0,0.0,0.0,0.0,0.0,0.0,1.4467,1.0498,0.8813,0.8423,0.927,1.0475,1.1522,1.2484,1.4154,1.4359,1.3467,1.3548,0.0,1.4953,1.672,0.0,0.0,0.0,0.0,0.0,0.0,0.0,0.0,0.0,0.0,0.0,0.0,0.0,0.0,0.0,0.0,0.0,0.0,0.0,0.0,0.0,0.0,1.9217,1.8672,1.9903,2.1387,0.0,2.3424,2.4261,2.3495,0.0,0.0,0.0,0.0,0.0,0.0,0.0,0.0,1.3728,1.1865,0.9829,0.7611,0.237,-0.1535,-0.2938,-0.316,-0.3987,-0.5775,-0.4106,-0.3171,-0.3475,-0.3445,0.0,0.0,0.0,0.0,0.0,0.0,0.0,0.0,0.0,0.0,0.0,0.0,0.0,0.0,0.0,0.0,0.0,0.0,0.0,0.0,0.0,0.0,0.0,0.0,0.0,0.0,0.0,0.0,0.0,1.8778,2.403,2.4179,2.4563,2.4608,0.0,0.0,0.0,0.0,0.0,0.0,0.0,0.0,0.0,1.126,1.3297,1.3416,1.1464,0.8442,0.6701,0.636,0.8564,1.0147,1.1303,1.2949,1.3415,1.2881,1.2908,1.3091,1.3507,1.4908,1.6678,1.8647,0.0,0.0,0.0,0.0,0.0,2.048,2.0974,1.9625,0.0,0.0,0.0,0.0,0.0,0.0,0.0,0.0,0.0,0.0,0.0,0.0,0.0,1.804,1.9125,2.0542,2.2223,2.3643,2.4684,0.0,2.4918,2.4214,2.2327,0.0,0.0,0.0,0.0,1.6838,1.3595,1.0429,0.7543,0.5162,0.1271,-0.1529,-0.2517,-0.3213,-0.4066,-0.5202,-0.4679,-0.4638,-0.5322,-0.569,-0.5913,0.0,0.0,0.0,0.0,0.0,0.0,0.0,0.0,0.0,0.0,0.0,0.0,0.0,0.0,0.0,0.0,0.0,0.0,0.0,0.0,0.0,0.0,0.0,0.0,0.0,0.0,0.0,0.0,1.9899,2.3988,2.2789,2.3122,2.3575,0.0,0.0,0.0,0.0,0.0,0.0,0.7862,0.5944,0.5436,0.6508,0.9166,1.0588,1.059,0.758,0.5743,0.5051,0.7546,0.9438,1.083,1.2241,1.2899,1.289,1.2882,1.3256,1.3868,1.444,1.5488,1.6866,1.9104,2.0358,2.0909,2.0892,2.0226,1.9429,2.0024,1.8144,1.551,1.5553,0.0,1.9067,2.0909,0.0,0.0,0.0,0.0,1.9056,1.7887,1.7149,1.6951,1.7867,1.8875,2.0053,2.1695,2.3016,2.4233,0.0,2.5489,2.4788,2.2986,0.0,0.0,0.0,0.0,1.7178,1.2995,0.9258,0.59,0.3021,0.0921,-0.0838,-0.2199,-0.3099,-0.3882,-0.4574,-0.4989,-0.5663,-0.6678,-0.7399,-0.8338,-0.9597,0.0,0.0,0.0,0.0,0.0,0.0,0.0,0.0,0.0,0.0,0.0,0.0,0.0,0.0,0.0,0.0,0.0,0.0,0.0,0.0,0.0,0.0,0.0,0.0,0.0,0.0,0.0,0.0,0.0,1.87,1.8429,0.0,0.0,0.0,0.0,1.3264,1.0471,0.774,0.4881,0.1942,0.0381,0.0438,0.333,0.4884,0.4922,0.4721,0.5234,0.6511,0.8009,0.9438,1.0871,1.2244,1.2882,1.2919,1.2878,1.4198,1.6216,1.5173,1.498,1.5619,1.7958,1.9184,1.9679,2.0375,2.0135,1.9505,1.9684,1.7306,1.4069,1.3313,1.626,2.0144,2.0467,2.1078,0.0,0.0,1.9206,1.8498,1.6967,1.6909,1.7394,1.7987,1.9148,2.0476,2.1652,2.2899,2.4148,0.0,2.5506,2.5409,2.5168,0.0,1.8892,1.787,1.674,1.4645,1.0922,0.8432,0.5892,0.2988,0.2583,0.1093,-0.2368,-0.2547,-0.3082,-0.4511,-0.4969,-0.5947,-0.7568,-0.8332,-0.9624,-1.1521,-1.1801,0.0,0.0,0.0,0.0,0.0,0.0,0.0,0.0,0.0,0.0,0.0,0.0,0.0,0.0,0.0,0.0,0.0,0.0,0.0,0.0,0.0,0.0,0.0,0.0,0.0,0.0,0.0,0.0,1.834,1.7492,0.0,1.9531,1.8446,1.6995,1.5353,1.1241,0.6694,0.1847,0.0605,0.0,0.0,0.1049,0.2536,0.447,0.4513,0.5708,0.8015,1.0343,1.1661,1.2177,1.2663,1.3742,1.5245,1.521,1.5404,1.5717,1.58,1.5481,1.5136,1.7464,1.8433,1.8659,1.9153,1.8527,1.7451,1.7594,1.6086,1.4148,1.4528,1.654,1.8863,1.8922,1.9614,2.0187,1.934,1.8994,1.866,1.7773,1.7666,1.8013,1.8873,1.9817,2.0891,2.2255,2.3424,2.4257,2.4478,2.4983,2.4973,2.37,2.2229,2.0577,1.8595,1.5942,1.3201,1.0616,0.8368,0.6321,0.457,0.3378,0.1697,-0.0769,-0.1957,-0.2811,-0.3342,-0.5037,-0.6813,-0.8607,-0.9384,-1.1029,-1.3719,-1.1197,-0.8474,0.0,0.0,0.0,0.0,0.0,0.0,0.0,0.0,0.0,0.0,0.0,0.0,0.0,0.0,0.0,0.0,0.0,0.0,0.0,0.0,0.0,0.0,0.0,0.0,0.0,0.0,2.0146,1.8281,1.7474,1.7451,1.8521,1.7639,1.6544,1.5392,1.0374,0.5185,0.0273,0.0,0.0,0.0,0.1,0.3379,0.729,0.7309,0.8312,1.0199,1.2426,1.3524,1.3496,1.3907,1.4994,1.6499,1.6873,1.6717,1.6303,1.6833,1.657,1.5984,1.7384,1.8076,1.8338,1.8793,1.8335,1.7397,1.7118,1.6256,1.5306,1.5935,1.678,1.7638,1.8182,1.8988,1.9612,1.9035,1.8864,1.8655,1.8093,1.8264,1.8792,1.9567,2.0273,2.1114,2.2359,2.3124,2.3537,2.3531,2.4288,2.4449,2.2936,2.2058,2.0568,1.7635,1.5165,1.2839,1.0587,0.8509,0.6746,0.542,0.4273,0.2867,0.1056,-0.0756,-0.2042,-0.2654,-0.4297,-0.6199,-0.8368,-0.9555,-1.1482,-1.4274,-1.2554,-0.9409,-0.4865,0.0,0.0,0.0,0.0,0.0,0.0,0.0,0.0,0.0,0.0,0.0,0.0,0.0,0.0,0.0,0.0,0.0,0.0,0.0,0.0,0.0,0.0,0.0,2.2061,2.1028,1.9831,1.8187,1.8051,1.7653,1.6582,1.745,1.6628,1.3155,0.7753,0.33,0.0163,0.0,0.0056,0.011,0.3166,0.7356,1.2841,1.292,1.2935,1.2984,1.4112,1.4697,1.4791,1.5942,1.6478,1.6554,1.7587,1.8058,1.8072,1.8069,1.8078,1.8037,1.7755,1.8054,1.8702,1.9455,1.9715,1.9587,1.8531,1.7852,1.7424,1.7299,1.6885,1.6782,1.8436,1.9307,1.9633,1.9116,1.8792,1.8469,1.7824,1.863,1.9667,2.0019,2.0537,2.1156,2.1932,2.1994,2.2042,2.248,2.3413,2.3867,2.306,2.1367,1.8849,1.515,1.4529,0.0,1.0692,0.8804,0.7106,0.5536,0.534,0.4608,0.286,0.1024,-0.0782,-0.2666,-0.2527,-0.3661,-0.6514,-0.848,-1.0537,-1.2772,-1.5708,-0.9676,0.5597,0.0,0.0,0.0,0.0,0.0,0.0,0.0,0.0,0.0,0.0,0.0,0.0,0.0,0.0,0.0,0.0,0.0,0.0,0.0,0.0,0.0,2.5144,2.4629,2.2723,2.0868,1.9284,1.8207,1.7863,1.7424,1.6568,1.6782,1.5813,1.3092,0.964,0.5404,0.0273,0.0,0.0978,0.3171,0.8008,1.1347,1.2867,1.2922,1.3351,1.4181,1.3654,1.429,1.5987,1.554,1.5709,1.6381,1.6784,1.6876,1.6846,1.7474,1.7435,1.7098,1.8563,1.9229,1.9498,2.0424,2.0461,2.002,2.0146,1.9339,1.8271,1.8321,1.8532,1.8803,1.9266,1.9854,2.0338,2.0177,1.9795,1.9366,1.9177,2.0255,2.1209,2.0484,2.107,2.181,2.1935,2.2227,2.2376,2.2021,2.2112,2.2049,2.1502,2.0763,1.9341,1.6726,1.5272,0.0,1.152,0.9151,0.7525,0.709,0.5996,0.4608,0.2849,0.103,-0.1321,-0.4386,0.1022,0.3549,0.184,0.0359,-0.1667,-0.437,-0.4169,0.262,0.0,0.0,0.0,0.0,0.0,0.0,0.0,0.0,0.0,0.0,0.0,0.0,0.0,0.0,0.0,0.0,0.0,0.0,0.0,0.0,0.0,0.0,2.4506,2.3413,2.0986,1.9124,1.7921,1.7702,1.7328,1.6921,1.652,1.5724,1.4575,1.3032,1.0343,0.6789,0.2136,0.186,0.2592,0.4072,0.9148,1.2172,1.2948,1.2715,1.305,1.3967,1.3568,1.4182,1.5694,1.5315,1.5549,0.0,1.6834,1.6946,1.6824,1.7999,1.8373,0.0,0.0,0.0,0.0,0.0,2.1302,2.0651,2.1198,2.0597,1.9577,1.9256,1.9576,2.007,2.0277,2.0567,2.0783,2.0783,2.0735,2.0635,2.034,2.1135,2.1871,2.1277,2.1245,2.1404,2.1595,2.1639,2.1511,2.1172,0.0,0.0,2.0145,1.9707,1.8828,1.6955,1.5689,1.4357,1.2675,1.0486,0.8633,0.7326,0.6021,0.4573,0.2834,0.0588,0.0,0.0,0.0,0.6385,0.8333,0.6792,0.0,0.0,0.0,0.0,0.0,0.0,0.0,0.0,2.2259,2.3715,0.0,0.0,0.0,0.0,0.0,0.0,0.0,0.0,0.0,0.0,0.0,0.0,0.0,0.0,0.0,0.0,2.274,2.0916,1.8395,1.6998,1.6434,1.7015,1.6723,1.647,1.6587,1.5082,1.3905,1.3364,1.0365,0.7582,0.5266,0.0,0.0,0.0,0.0,1.1167,1.2699,1.2379,1.2454,1.3018,1.3605,1.4153,1.465,1.513,1.5661,1.6228,1.7228,1.7515,1.746,1.898,2.0146,2.0756,1.8138,1.962,2.3214,2.2963,2.2298,0.0,0.0,0.0,0.0,2.0226,2.0321,2.0862,2.131,2.1341,2.1227,2.1227,2.1595,2.1871,2.1271,2.1547,2.194,2.1954,2.1191,2.0588,2.1081,2.0634,2.0168,2.0279,2.0089,1.9698,1.907,1.8625,1.7855,1.6465,1.5958,0.0,1.3686,1.2184,1.0072,0.7054,0.0,0.0,0.2848,0.0242,-0.1833,-0.3097,0.1326,0.6665,1.2543,1.1119,1.2315,1.6848,1.9758,2.1816,2.3015,2.3143,2.3523,2.4111,2.3368,2.3708,0.0,0.0,0.0,0.0,0.0,0.0,0.0,0.0,0.0,0.0,0.0,0.0,0.0,0.0,0.0,2.2952,2.0415,1.8886,1.9483,1.8035,1.6908,1.6865,1.7183,1.7349,1.7107,1.7896,1.7745,1.5926,1.0551,0.7878,0.909,0.9164,0.0,0.6406,0.9575,1.119,1.0811,1.2161,1.2869,1.2991,0.0,0.0,1.4842,1.4608,1.5264,1.6547,1.6201,1.6668,1.7707,1.8594,2.0755,2.3345,2.1652,2.2,2.3492,2.3802,2.3777,2.3583,2.3417,2.2634,2.1723,2.1673,2.1707,2.1819,2.1931,2.2248,0.0,2.2528,2.2006,2.1524,2.1888,2.2054,2.1871,2.0774,2.0977,2.1263,2.064,2.0411,2.0312,2.0234,2.0058,1.9665,1.8961,1.8664,1.8125,1.6869,1.6628,1.5679,1.3261,1.2455,1.1055,0.8404,0.6795,0.5042,0.2872,0.2147,0.1103,-0.0574,0.4226,0.8396,1.1282,1.2638,1.4701,1.7636,1.9687,2.1122,2.1902,2.2777,2.3336,2.364,2.384,2.426,0.0,0.0,0.0,0.0,0.0,0.0,0.0,0.0,0.0,0.0,0.0,2.1953,2.1958,0.0,2.2177,2.1154,2.009,1.9295,1.8959,1.871,1.8231,1.7397,1.7261,1.7227,1.7149,1.7838,1.7314,1.5026,1.1572,1.0031,1.1003,1.1038,1.0548,0.9435,1.0914,1.1712,1.1737,1.2598,1.335,1.3891,1.3963,1.454,1.5544,1.5341,1.5712,1.6561,1.6812,1.6838,1.6856,1.8411,2.1201,2.4328,2.2771,2.2856,2.3889,2.4112,2.4187,2.4194,2.4006,2.3554,2.3015,2.2755,2.2712,2.2816,2.2958,2.31,2.3115,2.2794,2.2419,2.2081,2.1692,2.163,2.1413,2.0469,2.0589,2.0801,2.0433,2.0272,2.0184,2.0167,1.9821,1.9378,1.8903,1.8442,1.7842,1.6952,1.6358,1.532,1.332,1.2184,1.0792,0.8811,0.701,0.5359,0.3879,0.2906,0.2109,0.1407,0.5861,0.9238,1.0919,1.3642,1.5946,1.7752,2.0007,2.1173,2.1258,2.2672,2.3484,2.3755,2.4004,2.4329,0.0,0.0,0.0,0.0,0.0,0.0,0.0,2.4258,2.3543,2.2516,2.1034,1.9892,1.9723,1.9702,1.9696,1.9705,2.009,1.9787,1.8037,1.8893,1.9239,1.7954,1.7296,1.7058,1.7349,1.7242,1.6301,1.4255,1.32,1.2572,1.2344,1.2278,1.2155,1.2073,1.2144,1.2508,1.3187,1.3485,1.4201,1.5374,1.5492,1.5942,1.667,1.667,1.6767,1.6987,1.7869,1.7485,1.6347,1.8445,2.1516,2.4761,2.3287,2.3158,2.3817,2.3805,2.3915,2.4072,2.4072,2.4166,2.4172,2.3594,2.3576,2.3808,2.393,2.387,2.362,2.2902,2.2818,2.2651,2.1393,2.1012,2.0872,2.0496,2.0285,2.0199,2.033,2.0188,1.9998,1.9958,1.9532,1.907,1.8664,1.8031,1.7369,1.6724,1.581,1.4673,1.3211,1.171,1.0259,0.8869,0.7106,0.5734,0.4952,0.3551,0.2878,0.3293,0.6732,0.9483,1.1058,1.4185,1.6511,1.7839,2.0276,2.1288,2.0755,2.2327,2.3342,2.3805,2.3823,2.4104,-1.585,0.4758,2.5348,2.4536,2.3412,2.2526,0.0,2.2564,2.2468,2.2337,2.1545,2.0631,1.9857,1.9684,1.9704,1.9697,1.8844,1.8058,1.7822,1.8339,1.8513,1.7878,1.7589,1.7696,1.837,1.8413,1.8101,1.7336,1.54,1.4265,1.4269,1.3887,1.3438,1.296,1.337,1.3467,1.3208,1.4716,1.6163,1.7452,1.7468,1.7769,1.8325,1.8325,1.85,1.8797,1.8625,1.817,1.7668,1.8823,2.1658,2.5202,2.4704,2.3649,2.2431,2.2407,2.2909,2.3581,2.3581,2.4014,2.4515,2.4261,2.4445,2.4667,2.4351,2.4441,2.4486,2.3702,2.311,2.2512,2.1606,2.0919,2.0475,2.0404,2.0382,2.0347,2.0245,2.0149,1.9945,1.9488,1.9281,1.8906,1.7966,1.7524,1.6959,1.6056,1.5308,1.4162,1.2289,1.1309,1.0281,0.8933,0.7636,0.6427,0.5352,0.4945,0.4988,0.5507,0.7036,0.9009,1.1437,1.4062,1.6392,1.838,2.0102,2.0751,2.028,2.1191,2.2133,2.3126,2.3172,2.3695,0.1725,1.3982,2.2104,2.1681,2.1931,2.2288,2.23,2.287,2.341,2.3406,2.2794,2.2166,2.1807,2.0896,1.9731,0.0,1.8225,1.8406,1.8502,1.9135,1.9513,1.9344,1.9726,1.9823,1.9339,1.9129,1.8654,1.7815,1.6775,1.6009,1.5601,1.527,1.495,1.4732,1.4819,1.4907,1.5005,1.6223,1.7281,1.8078,1.7799,1.7935,1.8433,1.8545,1.8771,1.9058,1.9428,1.923,1.8744,1.9668,2.0986,2.2429,2.2348,2.2453,2.2746,2.3455,2.3153,2.2402,2.2402,2.2768,2.3332,2.3761,2.4017,2.4271,2.4645,2.4859,2.4945,2.4754,2.3819,2.2567,2.1189,2.0527,2.0217,2.0185,2.02,2.0173,2.0009,1.9722,1.9447,1.9231,1.8717,1.8173,1.7764,1.7117,1.6333,1.5294,1.4716,1.405,1.3067,1.1445,0.9631,0.7686,0.6884,0.6149,0.5374,0.4924,0.4939,0.5524,0.7078,0.9069,1.1512,1.4257,1.6577,1.8351,2.0309,2.0901,2.0096,2.1043,2.2128,2.3304,2.3486,2.4135,1.7153,2.1457,2.0435,2.0514,2.1201,2.2056,2.2695,2.3045,2.343,2.4058,2.3667,2.32,2.3206,2.2271,2.0626,1.7985,1.8238,1.8874,1.918,1.9836,2.0496,2.1043,2.1753,2.1862,2.1005,2.0257,1.938,1.8288,1.7958,1.7538,1.6895,1.6573,1.6399,1.6355,1.6323,1.6412,1.6674,1.7419,1.8008,1.8418,1.8133,1.8156,1.8449,1.8776,1.8983,1.9125,1.9945,2.0052,1.9716,2.0346,2.0815,2.1155,2.1221,2.1997,2.3106,2.3505,2.2836,2.1684,2.1388,2.1691,2.2403,2.3429,2.3944,2.4292,2.4994,2.504,2.4888,2.5004,2.3943,2.2421,2.0848,2.0316,2.0158,2.0029,2.0079,2.0089,1.9857,1.9239,1.8731,1.8681,1.8153,1.7608,1.7349,1.6741,1.5979,1.4954,1.4457,1.3967,1.3324,1.1433,0.9346,0.7253,0.6798,0.6435,0.5901,0.5568,0.5562,0.601,0.7693,0.958,1.1548,1.4194,1.6553,1.8486,2.0277,2.08,2.0029,2.0833,2.1934,2.3348,2.3739,2.4495,2.1991,2.2565,2.2286,2.2539,2.1711,2.1413,2.3646,2.2458,2.1536,2.3731,2.3673,2.3197,2.3195,2.3473,2.2757,1.9888,1.8961,1.8877,1.9659,2.0087,2.0946,2.2705,2.3056,2.3327,0.0,2.2192,2.0659,1.9533,1.9091,1.8667,1.8268,1.7927,1.7641,1.7468,1.783,1.7866,1.7563,1.8036,1.8459,1.8781,1.8968,1.8957,1.8804,1.9466,1.9584,1.9335,2.0002,2.0402,2.0562,2.0581,2.1562,2.3015,2.3093,2.3151,2.2995,2.134,2.1293,2.193,2.0827,2.1162,2.2343,2.3723,2.4701,2.5361,2.5461,2.4901,2.4167,2.3911,2.3065,2.1956,2.0789,2.045,2.0317,2.005,2.0143,2.0209,1.9857,1.8768,1.7814,1.7679,1.7618,1.7338,1.649,1.6328,1.6022,1.5226,1.4755,1.3891,1.2242,1.1015,0.9799,0.8468,0.8103,0.7793,0.7363,0.7598,0.7807,0.7829,0.9266,1.0625,1.1654,1.365,1.6125,1.9028,1.9771,2.0137,2.0106,2.0191,2.1162,2.2942,2.3668,2.4536,2.073,2.064,2.0657,2.1547,2.1469,2.121,2.1274,2.1309,2.1751,2.3278,2.3282,2.3228,2.398,2.4415,2.4307,2.3259,2.0749,1.9305,2.0375,2.1098,2.1646,2.21,2.3247,0.0,0.0,0.0,0.0,2.1626,2.034,1.9744,2.0145,1.932,1.882,1.8756,1.871,1.864,1.8533,1.8854,1.9091,1.9213,1.9449,1.9658,1.981,2.0176,2.0263,2.0182,2.0393,2.0466,2.0488,2.1693,2.2293,2.2488,2.2896,2.307,2.3031,2.2855,2.2524,2.2003,2.0809,2.0654,2.123,2.2871,2.3626,2.4093,2.5278,2.544,2.4682,2.2188,2.1218,2.0747,1.9917,1.9696,1.9665,1.956,1.9591,1.9525,1.9103,1.8011,1.7148,1.7246,1.6978,1.6639,1.6355,1.6123,1.5682,1.4845,1.4374,1.3467,1.164,1.1077,1.0207,0.8567,0.8087,0.789,0.7946,0.7743,0.7879,0.8407,0.9282,1.058,1.2283,1.4239,1.6342,1.8521,1.9351,1.9695,1.9572,2.0612,2.1642,2.2669,2.3657,2.4664,2.069,2.0477,2.0372,2.0797,2.0979,2.0927,2.0452,2.0537,2.1061,2.2329,2.3129,2.3845,2.4692,2.4934,2.504,2.5161,2.3054,2.1426,2.1537,2.2017,2.2426,2.2602,2.3671,2.4307,0.0,0.0,0.0,2.2532,2.1538,2.0892,2.0814,2.0133,1.9717,1.9643,1.9456,1.9357,1.9357,1.9541,1.9628,1.9663,1.9801,2.0018,2.0317,2.0453,2.0538,2.0527,2.0521,2.0469,2.0464,2.2037,2.2682,2.2717,2.3237,2.3626,2.3903,2.3981,2.3678,2.3087,2.1952,2.1858,2.2332,2.3088,2.3607,2.418,2.5356,2.5541,2.486,2.2388,2.101,2.0199,1.9782,1.9488,1.9217,1.8858,1.9109,1.909,1.7861,1.7173,1.6766,1.6667,1.6354,1.6185,1.6401,1.6159,1.5556,1.4447,1.3934,1.3158,1.1792,1.1433,1.0843,0.9463,0.8776,0.8471,0.8643,0.8391,0.8396,0.8839,0.9979,1.1385,1.3129,1.4748,1.6505,1.8438,1.9411,1.9878,1.9838,2.0951,2.2019,2.3035,2.414,2.5007,2.1795,2.1779,2.1216,2.0272,2.0172,2.0452,2.0981,2.008,1.95,2.0946,2.3052,2.475,2.519,0.0,2.4963,2.5563,2.5563,2.4885,2.3099,2.2814,2.3174,0.0,0.0,0.0,0.0,0.0,0.0,2.2488,0.0,2.2138,2.0563,2.0479,2.0372,2.0125,2.006,2.0022,2.0022,2.0022,2.0044,2.0117,2.0059,2.0114,2.0312,2.0371,2.0398,2.0391,2.0387,2.0398,2.0482,2.1653,2.2741,2.3708,2.4097,2.4743,2.5351,2.4549,2.4592,2.4955,2.407,2.451,2.5293,2.4272,2.4636,2.5486,2.5591,2.5213,2.4705,2.4304,2.2423,2.0481,2.0427,1.9932,1.9173,1.8063,1.8768,1.9026,1.6546,1.6445,1.6659,1.6031,1.5896,1.6039,1.6621,1.6413,1.563,1.4186,1.3531,1.3037,1.2544,1.2102,1.1579,1.1057,1.0137,0.9558,0.9558,0.9558,0.9485,0.9265,1.1271,1.2917,1.4024,1.5108,1.6635,1.8725,1.9805,2.0499,2.0838,2.1195,2.2236,2.388,2.4976,2.546,1.9564,1.9271,1.9039,1.8008,1.8372,1.8901,1.8613,1.8821,1.9383,2.0345,2.1557,2.2903,2.4496,2.4461,2.4398,2.4935,2.5388,0.0,2.4924,2.368,0.0,2.3918,2.4803,2.5468,2.5684,2.5405,0.0,0.0,2.3667,2.2996,2.2909,2.2127,2.1257,2.0357,2.0315,2.0293,2.0293,2.0297,2.0307,2.0312,2.0254,2.0304,2.0444,2.0366,2.0335,2.0329,2.0323,2.033,2.0443,2.1985,2.2921,2.3486,2.4385,2.4827,2.4953,2.4732,2.474,2.4841,2.46,2.4724,2.492,2.4655,2.4759,2.4934,2.4662,2.4484,2.432,2.4229,2.3719,2.2995,2.2034,2.1653,2.0911,1.8401,1.8778,1.9523,1.8844,1.8061,1.7501,1.7561,1.7053,1.6655,1.6814,1.6062,1.5316,1.4938,1.3921,1.3022,1.2567,1.2102,1.1579,1.1057,1.0457,1.0079,1.0079,1.0564,1.0608,1.0049,1.185,1.3231,1.3899,1.5734,1.7261,1.8399,1.9189,2.0111,2.1152,2.2005,2.2682,2.3183,2.4511,2.511,1.9515,1.8768,1.825,1.7169,1.7521,1.8026,1.754,1.7972,1.8759,1.976,2.0498,2.1513,2.3275,2.3949,2.4309,2.443,2.5093,0.0,2.5641,2.4687,2.4139,2.4551,2.5209,0.0,2.5646,2.5551,2.5469,0.0,2.4625,2.4292,2.4624,2.3278,2.1848,2.0406,2.0373,2.059,2.0978,2.1099,2.1347,2.171,2.1165,2.0886,2.0836,2.0405,2.0366,2.0597,0.0,2.0516,2.0967,2.2274,2.3252,2.4024,2.4625,2.4804,2.4714,2.4714,2.4591,2.4452,2.4452,2.4278,2.4136,2.4332,2.442,2.4309,2.3897,2.376,2.3699,2.3444,2.3364,2.3182,2.2485,2.2297,2.1667,1.9235,1.9194,1.9687,1.9688,1.9122,1.8526,1.8328,1.777,1.7184,1.6739,1.656,1.6108,1.4968,1.4727,1.42,1.2984,1.2589,1.2207,1.1726,1.1244,1.0954,1.0954,1.1314,1.1365,1.0974,1.2331,1.3584,1.4696,1.6044,1.7409,1.8709,1.9452,2.049,2.1832,2.283,2.3432,2.3622,2.4444,2.4853,2.0233,1.9061,1.8081,1.6953,1.6973,1.7223,1.7047,1.7227,1.7785,1.9027,1.9697,2.0433,2.1859,2.33,2.4236,2.4016,2.4782,2.5413,2.5465,2.5464,2.5479,2.5506,2.5477,2.5489,2.5537,2.5507,2.5376,2.5124,2.5291,2.5486,2.5665,2.4169,2.241,2.0355,2.0686,2.1274,2.202,2.2326,2.2748,2.3323,2.2269,2.1613,2.1301,2.0505,2.0402,2.0847,0.0,0.0,2.1718,2.2238,2.3352,2.4723,2.4719,2.461,2.4463,2.4451,2.4223,2.3891,2.3891,2.3584,2.3275,2.3676,2.3824,2.3722,2.335,2.3231,2.31,2.2663,2.2434,2.2295,2.231,2.2128,2.1565,2.0055,1.97,1.9688,1.9684,1.9695,1.9463,1.8712,1.8238,1.7711,1.6822,1.7322,1.7155,1.4938,1.5698,1.5828,1.3874,1.347,1.3143,1.2663,1.2226,1.1979,1.1912,1.2042,1.2112,1.2141,1.2931,1.4196,1.598,1.639,1.7349,1.8926,2.0,2.1178,2.2482,2.344,2.4099,2.4464,2.4529,2.4637,1.8906,1.777,1.7179,1.5821,1.5265,1.5221,1.5886,1.6039,1.6455,1.7865,1.8641,1.9441,2.0799,2.1956,2.2975,2.3792,2.4493,2.4769,2.4347,2.4891,2.5383,2.5493,2.5404,2.5293,2.5208,2.5282,0.0,0.0,0.0,2.5099,2.5508,2.5235,2.3601,2.0402,2.2413,2.3599,2.375,2.4144,2.3879,2.2981,2.2401,2.1903,2.1512,2.0652,2.0169,2.0148,0.0,0.0,2.2032,2.1112,2.2131,2.4307,2.4301,2.4051,2.3678,2.3689,2.3535,2.3333,2.3333,2.3282,2.3194,2.3285,2.3325,2.3351,2.3435,2.3347,2.3284,2.3744,2.3107,2.2295,2.2304,2.1215,2.0055,1.9774,1.9687,1.9713,1.9707,1.9687,1.9656,1.9506,1.8956,1.8468,1.8455,1.7518,1.6641,1.6166,1.6329,1.6384,1.5975,1.4881,1.3828,1.3136,1.3092,1.2947,1.249,1.3198,1.3778,1.3938,1.4511,1.5586,1.7302,1.7546,1.7512,1.725,1.9563,2.1276,2.2345,2.3025,2.3649,2.4247,2.4265,2.4299,1.8763,1.7562,1.6837,1.5566,1.4833,1.4504,1.4955,1.5332,1.584,1.6889,1.8023,1.9075,1.9986,2.1203,2.2251,2.2959,2.356,2.4007,2.4091,2.4496,2.4917,2.5342,2.5214,2.5067,2.4991,2.5056,2.5012,2.4854,0.0,2.4974,2.5381,2.3408,2.1514,1.9844,2.2659,2.3857,2.3156,2.3243,2.334,2.3415,2.2626,2.2497,2.2881,2.0733,2.0173,2.102,2.3242,0.0,2.2702,2.2428,2.3067,2.4213,2.4194,2.3656,2.2878,2.2888,2.2887,2.2947,2.2982,2.2875,2.2721,2.2721,2.2867,2.301,2.2903,2.2821,2.2813,2.3129,2.2789,2.2082,2.1165,2.0322,1.9703,1.9682,1.969,1.9716,1.9716,1.9716,1.9716,1.9716,1.9409,1.8969,1.8335,1.7572,1.6921,1.6557,1.6519,1.6494,1.6494,1.5874,1.5122,1.4195,1.3592,1.3509,1.4014,1.484,1.54,1.5491,1.6052,1.7107,1.8682,1.8871,1.9012,1.9197,2.0378,2.1506,2.2513,2.279,2.319,2.3679,2.3685,2.3759,1.8726,1.7464,1.6552,1.5169,1.4158,1.3644,1.4098,1.4554,1.5168,1.6168,1.7612,1.8806,1.9353,2.0575,2.1556,2.1837,2.2628,2.3338,2.3733,2.4372,2.5059,2.5763,2.4964,2.4476,2.48,2.4843,0.0,2.4536,0.0,0.0,2.5041,2.1807,1.9951,1.9935,2.2453,2.3295,2.2221,2.2206,2.2722,2.3739,2.3034,2.3241,2.4124,2.1529,2.0947,2.2043,2.327,0.0,0.0,2.37,2.3952,2.4171,2.3898,2.3188,2.2293,2.2297,2.2434,2.2625,2.2676,2.2511,2.2281,2.2291,2.2507,2.272,2.2406,2.2316,2.2242,2.1849,2.1745,2.1439,2.0039,1.9695,1.9721,1.9702,1.9693,1.9574,1.9107,1.902,1.9153,1.961,1.9706,1.9281,1.8018,1.7666,1.7363,1.6833,1.6607,1.6522,1.6522,1.6522,1.6183,1.5316,1.4432,1.4308,1.531,1.6228,1.6773,1.6853,1.7419,1.8308,1.9641,1.9924,2.0469,2.1306,2.1399,2.1807,2.2615,2.2616,2.2754,2.2999,2.2999,2.3082,1.8028,1.6807,1.6012,1.3852,1.2161,1.1485,1.3206,1.3401,1.3839,1.5942,1.7341,1.8327,1.8878,1.9783,2.0436,2.0487,0.0,2.3034,2.2525,2.4731,2.6716,2.756,2.4638,2.3087,2.449,2.4754,2.4638,0.0,0.0,0.0,2.4244,2.2856,2.2025,2.2025,2.2336,2.2415,2.2288,2.2817,2.3147,2.3253,2.3779,2.4093,2.4206,2.3886,2.3218,2.2259,2.2412,0.0,0.0,2.2941,2.3159,2.4094,2.2925,2.2392,2.2306,2.2289,2.2315,2.2327,2.235,2.2315,2.2305,2.2307,2.2335,2.2361,2.2308,2.2319,2.1991,2.0377,1.9953,1.9894,1.9728,1.9717,1.9681,1.9711,1.9705,1.9156,1.7194,1.6775,1.7374,1.9307,1.9706,1.9461,1.8641,1.7839,1.7352,1.7472,1.6931,1.6522,1.6522,1.6522,1.6471,1.6371,1.6248,1.5969,1.5446,1.6673,1.7626,1.7915,1.8295,1.8862,1.9671,2.0227,2.0707,2.1043,2.1789,2.2249,2.2328,2.2327,2.2361,2.2375,2.2375,2.238,1.9796,1.7182,1.4367,1.2291,1.1267,1.0944,1.1378,1.2457,1.3774,1.5116,1.6549,1.7787,1.8341,1.8977,1.9743,0.0,0.0,0.0,2.3294,2.4551,2.5789,2.7034,2.586,2.4479,0.0,0.0,2.3175,0.0,0.0,0.0,2.2209,2.2285,2.2289,2.2289,2.2289,2.2297,2.2306,2.2548,2.266,2.266,2.292,2.3067,2.3063,2.3059,2.279,2.2285,2.2285,0.0,0.0,2.2892,2.2919,2.2945,2.1916,2.1838,2.2231,2.1691,2.1845,2.2233,2.1869,2.1661,2.1501,2.1343,2.1021,2.0919,2.1982,2.1568,2.0605,1.9888,1.9691,1.9718,1.9696,1.969,1.969,1.969,1.9708,1.9464,1.8606,1.7404,1.6731,1.7597,1.8305,1.8581,1.8082,1.7612,1.7325,1.7406,1.6892,1.6522,1.6522,1.6522,1.6522,1.6522,1.6522,1.6366,1.6073,1.6604,1.725,1.8039,1.8849,1.9398,1.969,2.017,2.0491,2.0587,2.1199,2.1533,2.1533,2.1511,2.1639,2.1871,2.1871,2.2033,2.0628,1.7828,1.4299,1.161,1.039,0.9898,1.0116,1.1825,1.3632,1.4356,1.6034,1.7489,1.7879,1.8825,1.9842,0.0,0.0,2.2143,2.3341,2.4331,2.533,2.6369,0.0,2.5389,0.0,2.2819,0.0,0.0,0.0,0.0,0.0,2.1364,2.1949,2.227,2.2316,2.2045,2.1532,2.1516,2.1782,2.2286,2.2286,2.2287,2.2287,2.2292,2.2303,2.2314,0.0,0.0,0.0,2.2487,2.2309,2.184,2.1231,2.1238,2.1448,2.0846,2.0991,2.1456,2.1054,2.0781,2.0572,2.0409,2.004,1.9929,2.1161,2.0657,1.9687,1.971,1.9703,1.969,1.969,1.969,1.969,1.969,1.9716,1.9517,1.8903,1.7571,1.6517,1.6509,1.7089,1.7543,1.7303,1.7477,1.7527,1.7131,1.6752,1.6522,1.6522,1.6522,1.6522,1.6522,1.6522,1.6522,1.6522,1.6872,1.7395,1.8039,1.9132,1.969,1.969,1.9965,2.0124,2.0124,2.055,2.0797,2.0797,2.0926,2.1263,2.1709,2.1709,2.2073,1.9701,1.8659,1.6484,1.2105,0.9209,0.7944,0.9776,1.1492,1.2979,1.3893,1.5966,1.7611,1.7583,1.9455,2.0907,2.0729,2.2194,0.0,2.2055,2.4264,2.599,2.6006,2.5369,2.5054,2.5431,2.2762,0.0,0.0,0.0,0.0,0.0,2.0285,2.1135,2.2264,2.2296,2.1472,1.975,1.9735,2.0606,2.2288,2.2288,2.2304,2.231,2.231,2.231,0.0,0.0,0.0,0.0,2.1378,2.1021,2.1008,2.1006,2.048,1.9735,1.9703,1.9703,1.9717,1.97,1.9706,1.9718,1.9692,1.9711,1.9711,1.9726,1.9693,1.9684,1.9707,1.969,1.969,1.969,1.969,1.969,1.969,1.969,1.9097,1.6967,1.6504,1.6502,1.6514,1.6491,1.652,1.6496,1.7691,1.811,1.6731,1.6522,1.6522,1.6522,1.6522,1.6522,1.6522,1.6522,1.6522,1.6522,1.7773,1.843,1.8106,1.9132,1.969,1.969,1.9711,1.9726,1.9726,2.0089,2.0314,2.0314,2.0748,2.1359,2.1997,2.1997,2.2586,1.5283,1.4039,1.2417,1.0057,0.8917,0.8673,0.9877,1.1442,1.2987,1.3903,1.5591,1.6859,1.6837,1.8052,1.9821,2.2286,2.3173,0.0,0.0,2.4656,2.5045,2.531,2.3873,2.2912,0.0,0.0,0.0,0.0,0.0,0.0,0.0,1.9889,2.0156,2.0528,2.0512,2.0257,1.9703,1.9687,1.9988,2.0527,2.1711,2.2291,2.2302,2.2302,0.0,0.0,0.0,0.0,0.0,2.1356,2.067,2.0131,2.0395,2.0532,2.0514,1.9921,1.9687,1.9702,1.9688,1.9697,1.9713,1.9696,1.969,1.9683,1.9708,1.9707,1.9713,1.9696,1.969,1.969,1.969,1.969,1.969,1.969,1.9132,1.8416,1.7728,1.7008,1.6488,1.6486,1.649,1.6485,1.652,1.6857,1.7148,1.7047,1.671,1.6522,1.6522,1.6522,1.6522,1.6522,1.6522,1.6522,1.6522,1.8249,1.9316,1.9219,1.9501,1.969,1.969,1.969,1.969,1.969,1.9854,2.0116,2.0585,2.0731,2.127,2.2196,2.237,2.2903,1.3341,1.2241,1.1149,0.9264,0.96,1.0327,1.0379,1.2064,1.3903,1.479,1.5763,1.6731,1.7557,1.8261,1.9622,2.2452,2.3866,2.4868,2.5567,2.5468,2.5213,2.5016,0.0,0.0,0.0,0.0,0.0,0.0,0.0,0.0,0.0,1.969,1.9703,1.97,1.97,1.97,1.97,1.97,1.9705,1.9696,2.0795,2.1682,2.2296,2.1617,0.0,0.0,0.0,0.0,0.0,2.1085,2.0684,2.0188,2.01,2.0231,2.0454,1.9914,1.969,1.969,1.969,1.969,1.969,1.969,1.969,1.9683,1.9694,1.9693,1.9708,1.9708,1.9708,1.9916,2.091,2.0798,2.0318,1.9868,1.9216,1.8466,1.7692,1.6989,1.6504,1.6479,1.6522,1.6502,1.6519,1.6494,1.6595,1.6951,1.671,1.6522,1.6522,1.6522,1.6522,1.6522,1.6522,1.6522,1.6522,1.799,1.9002,1.9262,1.9553,1.9698,1.9708,1.9708,1.9716,1.9708,1.9708,2.0093,2.0816,2.1138,2.1639,2.233,2.2817,2.3246,0.0,1.2918,1.2246,0.9474,1.0872,1.2591,1.1344,1.3326,0.0,1.6333,1.6654,1.7431,1.9715,2.0034,2.0429,2.1867,2.4458,2.6336,2.6367,2.6484,2.6165,0.0,2.413,0.0,0.0,0.0,0.0,0.0,0.0,0.0,0.0,1.969,1.969,1.969,1.969,1.969,1.969,1.969,1.9697,1.9687,1.9687,2.0563,2.207,2.0431,0.0,0.0,0.0,0.0,0.0,2.0577,2.0905,2.0839,2.0015,1.969,1.969,1.969,1.9705,1.972,1.972,1.9713,1.9707,1.9707,1.9722,1.97,1.9707,1.9698,1.9732,1.9951,1.9995,2.0552,2.2968,2.2626,2.1351,2.0158,1.9754,1.9098,1.7058,1.661,1.661,1.6529,1.6504,1.6504,1.6504,1.6491,1.6522,1.6522,1.6522,1.6522,1.6522,1.6559,1.6584,1.6584,1.6541,1.6498,1.6498,1.7126,1.7796,1.8512,1.9272,1.9693,1.9713,1.9801,1.9885,1.9955,1.9901,2.0262,2.1035,2.1939,2.2393,2.2423,2.3223,2.3613,1.357,0.0,1.2258,0.9505,1.0856,1.3041,0.0,1.4985,1.6385,1.7205,1.8337,2.0215,2.3601,2.339,2.3443,2.5818,2.6244,2.6546,2.7203,2.6426,0.0,2.5508,2.3754,2.236,0.0,0.0,0.0,0.0,0.0,0.0,0.0,1.969,1.969,1.969,1.969,1.969,1.969,1.969,1.9681,1.9692,1.9692,1.9925,2.0303,1.9884,0.0,0.0,0.0,0.0,1.9708,1.994,2.0015,1.998,1.9777,1.969,1.969,1.969,1.9678,1.97,1.97,1.9711,1.9715,1.9715,1.9708,1.9684,1.9717,1.9685,2.0127,2.2118,2.2685,2.2797,2.3418,2.2415,2.1102,2.0624,1.9804,1.891,1.7996,1.7785,1.756,1.6667,1.65,1.65,1.65,1.6511,1.6522,1.6522,1.6522,1.6522,1.6522,1.698,1.7327,1.7327,1.6855,1.6512,1.6512,1.665,1.7182,1.8173,1.9137,1.9692,1.9713,2.067,2.1699,2.2665,2.1743,2.1339,2.1539,2.2736,2.3283,2.3298,2.3505,2.3613,1.339,1.29,1.252,1.1065,1.1773,1.3077,1.372,1.5159,1.6646,1.7426,1.9194,2.1308,2.3656,2.4826,2.5703,2.6535,2.6824,0.0,2.752,2.6437,2.5615,2.5615,2.3756,2.2425,0.0,0.0,0.0,0.0,0.0,0.0,0.0,1.969,1.969,1.969,1.969,1.969,1.969,1.969,1.969,1.969,1.969,1.969,1.969,1.969,1.969,0.0,0.0,0.0,1.969,1.969,1.969,1.969,1.969,1.9692,1.9686,1.9701,1.9704,1.9857,2.1085,2.0703,1.9936,2.1122,2.1481,2.1283,2.0104,2.0549,2.1773,2.3193,2.3611,2.3594,2.3594,2.2948,2.2016,2.1122,2.0425,1.9721,1.8766,1.8545,1.8332,1.7458,1.7384,1.7384,1.7063,1.7182,1.7287,1.7287,1.6841,1.649,1.6516,1.6823,1.7086,1.711,1.6715,1.6895,1.7949,1.802,1.8257,1.8797,1.9362,1.9691,1.9688,2.0382,2.1676,2.3564,2.2921,2.2577,2.2577,2.324,2.3595,2.3595,2.3595,2.3576,1.3514,1.3034,1.3049,1.3532,1.3489,1.3327,1.3418,1.4984,1.6621,1.7414,1.9653,2.1721,2.2717,2.5374,2.711,2.6184,0.0,0.0,2.7595,2.6437,2.5615,2.5615,2.3968,0.0,0.0,0.0,0.0,0.0,0.0,0.0,0.0,1.969,1.9624,1.9456,1.9456,1.9419,1.9361,1.9588,1.9639,1.9536,1.9551,1.9632,1.9713,1.9713,1.9683,0.0,0.0,0.0,1.9456,1.9536,1.9589,1.9605,1.9686,1.9677,1.9667,1.9329,1.966,2.0543,2.2407,2.1599,2.0175,2.2308,2.3298,2.3195,2.1026,2.1643,2.3024,2.2996,2.3318,2.3568,2.345,2.3435,2.3069,2.1625,2.1206,2.0716,1.9393,1.9108,1.8933,1.8369,1.8586,1.8659,1.8026,1.8194,1.8447,1.8447,1.7634,1.6919,1.6764,1.6925,1.6947,1.6788,1.6908,1.7738,1.9638,1.9787,1.9771,1.9731,2.009,2.0292,2.03,2.0315,2.1367,2.3565,2.3595,2.3595,2.3595,2.3595,2.3728,2.3893,2.3893,2.3908,1.4765,1.37,1.359,1.6507,1.6085,1.5184,1.582,1.6196,1.6716,1.7857,2.0172,2.2717,2.5162,2.6067,2.6852,2.7876,0.0,2.758,0.0,0.0,2.5615,2.5615,0.0,0.0,0.0,0.0,0.0,0.0,0.0,0.0,0.0,1.969,1.9287,1.8384,1.8346,1.82,1.7924,1.9082,1.9398,1.8763,1.8925,1.9249,1.9685,1.9685,1.9716,0.0,0.0,1.9185,1.8361,1.8829,1.9002,1.9043,1.9526,1.9698,1.9484,1.7652,1.9557,2.2754,2.0969,2.0117,1.9887,2.025,2.1856,2.3535,2.313,2.1766,2.0382,2.0375,2.1953,2.3435,2.2741,2.2565,2.2517,2.2283,2.165,2.0855,1.9883,1.9661,1.9459,1.8772,1.9168,1.9605,1.9504,1.9529,1.9538,1.9538,1.9386,1.899,1.8047,1.8727,1.8967,1.8019,1.8771,1.9459,1.975,1.9797,1.9801,1.9798,2.179,2.2992,2.302,2.302,2.3197,2.3595,2.3595,2.3595,2.3595,2.3595,2.4205,2.5288,2.5288,2.5274,1.5691,1.5224,1.5504,1.8431,1.8485,1.787,1.819,1.8286,1.8767,2.0737,2.152,2.2464,2.4307,2.6271,2.779,2.8404,0.0,2.7944,2.7675,2.6437,2.5615,0.0,0.0,0.0,0.0,0.0,0.0,0.0,0.0,0.0,0.0,0.0,1.8593,1.8121,1.7559,1.7338,1.7622,1.8412,1.8674,1.8349,1.9022,1.9232,1.9136,1.9537,1.9704,1.9664,0.0,1.8902,1.9007,1.8925,1.9072,1.94,1.9653,1.9743,1.9633,1.8647,1.9672,2.1363,2.0228,1.9799,1.9821,1.9821,2.0604,2.156,2.1559,2.0748,1.9808,1.9821,2.0641,2.1648,2.1941,2.203,2.1843,2.1151,2.0686,2.0265,1.9914,1.98,1.9723,1.9345,1.956,1.9801,1.9801,1.9774,1.9771,1.9771,1.9791,1.9613,1.912,1.9495,1.9597,1.9095,1.9495,1.9798,1.9798,1.9775,2.0077,2.0788,2.2583,2.3585,2.36,2.3612,2.3595,2.3595,2.2908,2.3157,2.4372,2.3896,2.4341,2.562,2.562,2.5588,1.6559,1.7053,1.8055,2.0424,2.1755,2.2454,2.2456,2.2036,2.2133,2.3944,2.4103,2.4158,2.4979,2.7257,0.0,2.8872,2.8559,2.8079,2.745,2.6348,0.0,0.0,0.0,0.0,0.0,0.0,0.0,0.0,0.0,0.0,0.0,0.0,1.7946,1.7894,1.713,1.689,1.7357,1.7787,1.7976,1.7974,1.891,1.8888,1.8145,1.8675,1.9105,1.9286,1.8484,1.8549,1.928,1.8958,1.9138,1.9557,1.9557,1.9634,1.9819,1.9793,1.9811,1.9799,1.9825,1.9798,1.9812,1.9787,2.0002,2.0206,2.0206,2.0207,2.0195,2.009,2.0041,2.0276,2.1247,2.1615,2.1418,2.0371,2.0265,2.0257,1.9886,2.001,2.0188,2.0097,1.992,1.9833,1.9999,1.9886,1.9798,1.9798,1.9813,1.98,1.9825,1.9813,1.98,1.9773,1.9798,1.9861,2.0064,2.0125,2.063,2.1601,2.2729,2.3334,2.3325,2.3361,2.326,2.301,2.2295,2.2847,2.4701,2.4145,2.448,2.5571,2.5729,2.5834,1.7446,1.9083,2.1087,2.2894,2.6917,3.0386,3.0378,2.8638,2.6915,2.6561,2.8616,3.0521,3.063,3.0238,2.9887,2.9902,2.8654,2.745,2.6752,0.0,0.0,0.0,0.0,0.0,0.0,0.0,0.0,0.0,0.0,0.0,0.0,0.0,0.0,1.734,1.7272,1.7024,1.6582,1.7282,1.7663,1.7637,1.8017,1.7665,1.663,1.6723,1.729,1.8226,1.8194,1.8036,1.7822,1.8453,1.8742,1.8795,1.8795,1.9196,1.9813,1.9799,1.9825,1.9825,1.9786,1.9798,1.9798,1.9773,2.0538,2.1362,2.1362,2.1364,2.1297,2.0911,2.0813,2.0859,2.0841,2.1293,2.1582,2.1109,2.1528,2.1615,2.0113,2.0623,2.1274,2.089,2.0286,1.9966,2.0564,2.0162,1.9798,1.9798,1.9786,1.9773,1.9798,1.9786,1.9773,1.9798,1.9798,2.0089,2.0734,2.1159,2.1423,2.1521,2.2266,2.2603,2.2513,2.2595,2.2221,2.1293,2.2118,2.2937,2.38,2.4235,2.484,2.551,2.6204,2.648,1.7977,1.8208,1.9174,2.311,2.6285,2.8387,2.8414,2.9148,2.979,2.9556,3.0412,3.1185,3.119,0.0,2.8307,2.9432,2.9146,2.8155,0.0,0.0,0.0,0.0,0.0,0.0,0.0,0.0,0.0,0.0,0.0,0.0,0.0,0.0,0.0,1.6786,1.6798,1.672,1.6505,1.6776,1.6913,1.6925,1.8389,1.8195,1.6519,1.6524,1.7109,1.812,1.7454,1.7823,1.8922,1.8551,1.8795,1.9358,1.9358,1.9546,1.9798,1.9798,1.9798,1.9798,1.9798,1.978,1.9874,2.0326,2.0794,2.1167,2.1433,2.1504,2.1455,2.1322,2.1259,2.1176,2.0847,2.0888,2.1121,2.1326,2.1568,2.1588,2.1011,2.0971,2.1095,2.0921,2.1039,2.1074,2.0877,2.0819,2.0761,2.0499,2.0109,1.977,1.977,1.977,1.977,1.977,2.0407,2.123,2.2192,2.1554,2.1213,2.1481,2.2113,2.2416,2.228,2.2828,2.261,2.1496,2.1836,2.2533,2.3423,2.3749,2.4657,2.6136,2.5912,2.6107,1.8397,1.8807,1.9912,2.377,2.6089,2.745,2.7441,2.9578,3.169,3.197,3.1603,3.1192,3.1196,0.0,0.0,0.0,2.8608,0.0,0.0,0.0,0.0,0.0,0.0,0.0,0.0,0.0,0.0,0.0,0.0,0.0,0.0,0.0,0.0,0.0,1.7038,1.6871,1.6504,1.6503,1.6836,1.7581,1.9054,1.861,1.65,1.6495,1.6948,1.7658,1.7593,1.8184,1.9245,1.8884,1.9144,1.9798,1.9798,1.9798,1.9811,1.982,1.9805,1.9818,1.9812,1.9785,1.9921,2.0811,2.1094,2.1168,2.145,2.1763,2.1995,2.1996,2.2027,2.1857,2.1267,2.1029,2.1071,2.1393,2.1619,2.1732,2.1556,2.1574,2.1604,2.1604,2.1977,2.2216,2.1663,2.1512,2.14,2.112,2.0643,2.0353,2.0353,2.0631,2.0828,2.0828,2.1537,2.2147,2.2539,2.199,2.1711,2.1995,2.238,2.2386,2.1825,2.2789,2.2844,2.168,2.1613,2.2047,2.2869,2.3234,2.4227,2.5893,2.6035,2.5827,1.8873,2.1481,2.4574,2.5228,2.7224,2.9019,2.9009,3.0818,3.2738,3.3606,3.2385,3.1189,3.1172,2.8095,0.0,2.7179,0.0,0.0,0.0,0.0,0.0,0.0,0.0,0.0,0.0,0.0,0.0,0.0,0.0,0.0,0.0,0.0,0.0,0.0,1.8229,1.7673,1.6527,1.6555,1.7651,1.9821,1.9821,1.867,1.6516,1.6516,1.6516,1.6622,1.8819,1.9207,1.8326,1.9345,1.9798,1.9798,1.9811,1.9811,1.9784,1.9818,1.9834,1.9829,1.9829,1.9825,2.0009,2.1132,2.1492,2.1535,2.1535,2.2228,2.3122,2.3102,2.3116,2.2923,2.2214,2.1743,2.1506,2.1506,2.192,2.2143,2.1642,2.2362,2.3078,2.3078,2.3111,2.3116,2.3116,2.2236,2.1506,2.1506,2.1506,2.1506,2.1506,2.2459,2.308,2.308,2.3096,2.2647,2.1629,2.2521,2.3078,2.3078,2.3078,2.2455,2.0971,2.2331,2.2572,2.1518,2.1547,2.1654,2.1992,2.2757,2.3644,2.4669,2.6652,2.5938,2.1435,2.3786,2.6015,2.5919,2.8243,3.0274,2.9228,3.082,3.242,3.2035,3.1547,3.056,2.8448,2.5924,0.0,0.0,0.0,0.0,0.0,0.0,0.0,0.0,0.0,0.0,0.0,0.0,0.0,0.0,0.0,0.0,0.0,0.0,0.0,0.0,1.9334,1.9158,1.882,1.8818,1.9143,1.9826,1.9826,1.9472,1.8807,1.8808,1.8601,1.8301,1.8808,1.9158,1.9345,1.9659,1.9798,1.9861,2.069,2.0511,1.9911,2.0694,2.1453,2.2137,2.2133,2.2122,2.2166,2.2547,2.264,2.2621,2.2621,2.283,2.3113,2.3072,2.3106,2.3022,2.2815,2.2689,2.2648,2.2648,2.2774,2.2815,2.2693,2.2855,2.3078,2.3078,2.311,2.3106,2.3106,2.2858,2.2648,2.2648,2.2648,2.2648,2.2648,2.2879,2.3086,2.3086,2.3103,2.2997,2.2621,2.2952,2.3078,2.3078,2.3078,2.2902,2.2468,2.2836,2.2946,2.2648,2.263,2.2643,2.2757,2.3005,2.3598,2.4611,2.4471,2.4543,2.3143,2.5053,2.6924,2.7878,2.9678,3.1033,3.0364,3.1429,3.2433,3.2282,3.0738,2.887,2.7055,2.5355,0.0,0.0,0.0,0.0,0.0,0.0,0.0,0.0,0.0,0.0,0.0,0.0,0.0,0.0,0.0,0.0,0.0,0.0,0.0,0.0,1.9798,1.9798,1.9798,1.9798,1.9798,1.9798,1.9798,1.9813,1.9775,1.9782,1.962,1.9334,1.9183,1.9409,1.9798,1.9798,1.9798,1.9938,2.1064,2.1077,2.0547,2.1101,2.2064,2.307,2.3127,2.3083,2.3073,2.3073,2.3094,2.3078,2.3078,2.3078,2.3078,2.3078,2.3078,2.3078,2.3078,2.3078,2.3078,2.3078,2.3078,2.3078,2.3078,2.3078,2.3078,2.3078,2.3078,2.3078,2.3078,2.3078,2.3078,2.3078,2.3078,2.3078,2.3078,2.3078,2.3078,2.3078,2.3078,2.3078,2.3078,2.3078,2.3078,2.3078,2.3078,2.3078,2.3078,2.3078,2.3078,2.3078,2.3078,2.3078,2.3078,2.3078,2.339,2.3962,2.339,2.3586,2.4204,2.5636,2.7412,3.0326,3.1138,3.1305,3.1707,3.1899,3.2336,3.3541,0.0,2.6956,2.672,2.5863,0.0,0.0,0.0,0.0,0.0,0.0,0.0,0.0,0.0,0.0,0.0,0.0,0.0,0.0,0.0,0.0,0.0,0.0,0.0,0.0,1.9798,1.9798,1.9798,1.9798,1.9798,0.0,1.9798,1.9798,1.9798,1.9798,1.9798,1.9798,1.9798,1.9798,1.9798,1.9798,1.9823,1.9924,2.1036,2.1463,2.1486,2.1215,2.1786,2.2819,2.3047,2.3078,2.3078,2.3078,2.3078,2.3078,2.3078,2.3078,2.3078,2.3078,2.3078,2.3078,2.3078,2.3078,2.3078,2.3078,2.3078,2.3078,2.3078,2.3078,2.3078,2.3078,2.3078,2.3078,2.3078,2.3078,2.3078,2.3078,2.3078,2.3078,2.3078,2.3078,2.3078,2.3078,2.3078,2.3078,2.3078,2.3078,2.3078,2.3078,2.3078,2.3078,2.3078,2.3078,2.3078,2.3078,2.3078,2.3078,2.3078,2.3078,2.3078,2.3078,2.3078,2.3175,2.5595,2.6455,2.7214,2.9462,3.0605,3.0932,2.9918,2.8767,2.9059,3.2983,3.15,2.8953,2.7052,2.5654,0.0,0.0,0.0,0.0,0.0,0.0,0.0,0.0,0.0,0.0,0.0,0.0,0.0,0.0,0.0,0.0,0.0,0.0,0.0,1.9798,1.9798,1.9798,1.9798,1.9798,1.9798,0.0,1.9798,1.9798,1.9798,1.9798,1.9798,1.9798,1.9798,1.9798,1.9798,1.9798,1.9793,1.9879,2.071,2.1212,2.1617,2.2355,2.1712,2.0768,2.2476,2.3078,2.3078,2.3078,2.3078,2.3078,2.3078,2.3078,2.3078,2.3078,2.3078,2.3078,2.3078,2.3078,2.3078,2.3078,2.3078,2.3078,2.3078,2.3078,2.3078,2.3078,2.3078,2.3078,2.3078,2.3078,2.3078,2.3078,2.3078,2.3078,2.3078,2.3078,2.3078,2.3078,2.3078,2.3078,2.3078,2.3078,2.3078,2.3078,2.3078,2.3078,2.3078,2.3078,2.3078,2.3078,2.3078,2.3078,2.3078,2.3078,2.3078,2.3078,2.3078,2.3599,2.6208,2.7363,2.8026,2.9114,2.9942,3.0145,2.8883,2.7637,2.7402,2.9896,2.9412,2.8201,2.6916,0.0,0.0,0.0,0.0,0.0,0.0,0.0,0.0,0.0,0.0,0.0,0.0,0.0,0.0,0.0,0.0,0.0,0.0,1.9798,1.9798,1.9798,1.9798,1.9798,1.9798,1.9798,1.9783,1.9775,1.9775,1.9809,1.9785,1.9793,1.9798,1.9811,1.9818,1.9775,1.9788,1.9789,2.0126,2.0722,2.1587,2.2084,2.2363,2.2862,2.2367,2.1569,2.2673,2.3078,2.3078,2.3078,2.3078,2.3078,2.3078,2.3078,2.3078,2.3078,2.3078,2.3078,2.3078,2.3078,2.3078,2.3078,2.3078,2.3078,2.3078,2.3078,2.3078,2.3078,2.3078,2.3078,2.3078,2.4007,2.4735,2.4735,2.3788,2.3331,2.3829,2.312,2.291,2.3841,2.3891,2.3928,2.3891,2.343,2.312,2.312,2.312,2.312,2.312,2.312,2.3617,2.4722,2.4735,2.4551,2.4192,2.3979,2.3841,2.3642,2.3642,2.3916,2.6122,2.8065,2.9394,2.9383,2.9501,2.9441,2.8846,2.7662,2.6842,2.7351,2.7046,2.6705,2.6687,0.0,0.0,0.0,0.0,0.0,0.0,0.0,0.0,0.0,0.0,0.0,0.0,0.0,0.0,0.0,0.0,0.0,1.9798,1.9798,1.9913,2.0103,1.9872,1.9897,2.0087,1.9907,1.9797,1.9799,1.9981,2.0007,1.9801,1.9982,1.9997,1.9778,1.9785,1.9799,1.9824,1.9817,2.0599,2.187,2.2745,2.3083,2.3114,2.3088,2.3115,2.3078,2.3067,2.3115,2.3078,2.3078,2.3078,2.3078,2.3078,2.3078,2.3078,2.3078,2.3078,2.3078,2.3078,2.3078,2.3078,2.3078,2.3078,2.3078,2.3078,2.3115,2.3092,2.3092,2.3081,2.3144,2.3353,2.5133,2.6493,2.6493,2.4898,2.3978,2.468,2.3551,2.3212,2.4412,2.4912,2.5103,2.51,2.4208,2.3664,2.3664,2.3664,2.3664,2.3664,2.3664,2.4555,2.6433,2.6519,2.6177,2.5601,2.5268,2.4935,2.4603,2.44,2.4347,2.4948,2.8157,3.0903,3.09,2.9985,2.9404,3.0531,2.8685,2.7451,0.0,2.8508,2.6681,0.0,0.0,0.0,0.0,0.0,0.0,0.0,0.0,0.0,0.0,0.0,0.0,0.0,0.0,0.0,0.0,0.0,0.0,1.9798,1.9798,2.0229,2.1245,2.0332,2.0296,2.1255,2.0318,1.9817,1.9809,2.081,2.0754,1.9825,2.0841,2.0711,1.9805,1.9785,1.9809,1.9809,1.9789,2.1006,2.2904,2.3019,2.3107,2.31,2.3096,2.3107,2.3115,2.3121,2.3107,2.3078,2.3078,2.3078,2.3078,2.3078,2.3078,2.3078,2.3078,2.3078,2.3078,2.3078,2.3078,2.3078,2.3078,2.3078,2.3078,2.3078,2.312,2.3071,2.3071,2.3116,2.342,2.4391,2.5666,2.6517,2.6517,2.6207,2.5756,2.4922,2.5408,2.5293,2.3855,2.5228,2.6272,2.6298,2.6104,2.6065,2.6065,2.6065,2.6065,2.6065,2.6065,2.6155,2.6503,2.6518,2.6453,2.6324,2.6298,2.6285,2.6181,2.5178,2.4968,2.5084,2.73,2.8977,2.896,2.9584,3.0195,3.0022,2.9599,2.9115,2.8748,2.8992,0.0,0.0,0.0,0.0,0.0,0.0,0.0,0.0,0.0,0.0,0.0,0.0,0.0,0.0,0.0,0.0,0.0,0.0,1.9783,1.9812,1.9812,2.0007,2.0538,2.0092,2.0662,2.2364,2.1881,2.1644,2.1661,2.2147,2.2121,2.1645,2.2178,2.1475,1.9825,1.9778,2.0523,2.1629,2.1626,2.2198,2.3128,2.3107,2.3071,2.3095,2.3103,2.2522,2.1581,2.0608,2.0865,2.1678,2.1678,2.2357,2.2973,2.2347,2.2579,2.3078,2.3078,2.3078,2.3078,2.3078,2.3078,2.3078,2.3078,2.3078,2.3251,2.3887,2.3903,2.3867,2.4305,2.4695,2.5165,2.564,2.6193,2.6504,2.6504,2.6178,2.5942,2.5791,2.5423,2.5202,2.5177,2.5462,2.5877,2.6455,2.6521,2.6521,2.6521,2.6521,2.6521,2.6521,2.6521,2.6518,2.6511,2.6473,2.6475,2.6521,2.6521,2.6521,2.6521,2.5971,2.5862,2.4859,2.6183,2.7058,2.7225,2.9018,3.0461,2.9346,0.0,3.0556,0.0,2.916,0.0,0.0,0.0,0.0,0.0,0.0,0.0,0.0,0.0,0.0,0.0,0.0,0.0,0.0,0.0,0.0,0.0,0.0,2.0263,2.0358,2.0382,2.0367,2.0362,2.0282,2.1181,2.3088,2.3101,2.3116,2.3114,2.3114,2.3077,2.3125,2.3111,2.2201,2.0616,2.0626,2.1565,2.3107,2.3107,2.2577,2.1815,2.1783,2.1771,2.1783,2.1788,2.0986,1.9748,1.8475,1.9072,2.0384,2.0384,2.1331,2.2327,2.1455,2.1794,2.2506,2.275,2.2823,2.2823,2.3078,2.3178,2.3351,2.3351,2.3464,2.3827,2.4987,2.4976,2.4988,2.5572,2.614,2.6504,2.6504,2.6486,2.6493,2.6493,2.6139,2.5963,2.6471,2.5529,2.5225,2.6346,2.5804,2.5664,2.6465,2.6533,2.6533,2.6533,2.6533,2.6533,2.6533,2.6533,2.6533,2.6533,2.6485,2.6485,2.6533,2.6533,2.6533,2.6533,2.6533,2.6533,2.3538,2.5093,2.6673,2.7332,2.8503,2.9483,2.9403,0.0,3.1153,3.0977,2.9284,0.0,0.0,0.0,0.0,0.0,0.0,0.0,0.0,0.0,0.0,0.0,0.0,0.0,0.0,0.0,0.0,0.0,0.0,2.1578,2.1873,2.1911,2.1895,2.1878,2.1592,2.1947,2.3075,2.3088,2.3088,2.3113,2.3113,2.3125,2.3078,2.3113,2.3015,2.2952,2.2905,2.3002,2.3078,2.3084,2.1183,1.828,1.83,1.8276,1.8243,1.8238,1.8222,1.8148,1.8046,1.8768,1.9737,1.9737,2.0189,2.073,2.0655,2.0643,2.091,2.1741,2.1939,2.2125,2.2884,2.354,2.3954,2.3954,2.4356,2.4999,2.6155,2.6413,2.6378,2.6451,2.6471,2.6483,2.6483,2.6496,2.6508,2.6508,2.6496,2.6496,2.6533,2.6427,2.6427,2.6452,2.6452,2.6452,2.6533,2.6533,2.6533,2.6533,2.6533,2.6533,2.6533,2.6533,2.6533,2.6533,2.6508,2.6508,2.6533,2.6533,2.6533,2.6533,2.6533,2.6533,2.2755,2.3454,2.432,2.6272,2.7498,2.8242,2.8232,2.859,2.8873,2.8873,0.0,0.0,0.0,0.0,0.0,0.0,0.0,0.0,0.0,0.0,0.0,0.0,0.0,0.0,0.0,0.0,0.0,0.0,0.0,0.0,2.2674,2.2236,2.2201,2.2714,2.2571,2.2742,2.3078,2.3078,2.3078,2.3078,2.3083,2.1932,1.9834,1.9827,2.0432,2.1565,2.266,2.1815,2.0025,2.2214,2.1099,1.8025,1.8025,1.8002,1.8012,1.7976,1.8014,1.8012,1.7976,1.8464,1.8978,1.8978,1.9552,2.0186,2.0497,2.0773,2.1248,2.2444,2.2799,2.3006,2.3952,2.4368,2.4519,2.4519,2.4933,2.5438,2.58,2.6219,2.6519,2.6508,2.6533,2.6533,2.6533,2.6533,2.6533,2.6533,2.5943,2.5734,2.6383,2.5955,2.5804,2.6452,2.6533,2.6533,2.6533,2.6533,2.6533,2.6533,2.6533,2.6533,2.6533,2.6533,2.6533,2.6533,2.6533,2.6533,2.6533,2.6533,2.6533,2.6533,2.6533,2.6533,2.2111,2.2623,2.3238,2.4976,2.6094,2.6872,2.7473,2.7603,2.7618,2.7613,0.0,0.0,0.0,0.0,0.0,0.0,0.0,0.0,0.0,0.0,0.0,0.0,0.0,0.0,0.0,0.0,0.0,0.0,0.0,0.0,2.3068,2.2623,2.258,2.3065,2.3078,2.3128,2.3119,2.3128,2.3117,2.3084,2.3108,2.1288,1.8009,1.7994,1.8636,1.9823,2.1277,2.1094,1.9824,2.0918,2.002,1.7979,1.7978,1.8008,1.8008,1.8008,1.8008,1.8037,1.8262,1.8497,1.8752,1.8818,1.9263,1.9796,2.0093,2.0313,2.0816,2.2014,2.2593,2.3077,2.4054,2.4673,2.5134,2.5322,2.5636,2.5887,2.5887,2.6189,2.6533,2.6533,2.6533,2.6533,2.6533,2.6533,2.6533,2.6533,2.5955,2.5734,2.6383,2.5955,2.5734,2.6452,2.6533,2.6533,2.6533,2.6533,2.6533,2.6533,2.6533,2.6533,2.6533,2.6533,2.6533,2.6533,2.6533,2.6533,2.6533,2.6533,2.6533,2.6533,2.6533,2.6533,0.0,0.0,0.0,2.3594,2.4226,0.0,2.7076,0.0,2.7606,2.7615,0.0,0.0,0.0,0.0,0.0,0.0,0.0,0.0,0.0,0.0,0.0,0.0,0.0,0.0,0.0,0.0,0.0,0.0,0.0,2.2573,2.3053,2.3078,2.309,2.3103,2.3115,2.3144,2.307,2.307,2.3084,2.3027,2.2955,2.1244,1.8022,1.8032,1.7968,1.8053,1.9137,2.0907,2.2714,1.9346,1.8025,1.7989,1.7978,1.8008,1.8008,1.8008,1.8018,1.8086,1.8685,1.8862,1.8941,1.9252,1.9307,1.9316,1.9326,1.9316,1.9515,2.0359,2.1328,2.2218,2.3191,2.4523,2.5762,2.6327,2.6533,2.6533,2.6533,2.6533,2.6533,2.6533,2.6533,2.6533,2.6533,2.6533,2.6533,2.6533,2.6452,2.6452,2.6533,2.6452,2.6452,2.6533,2.6533,2.6533,2.6533,2.6533,2.6533,2.6533,2.6533,2.6533,2.6533,2.6533,2.6533,2.6533,2.6533,2.6533,2.6533,2.6533,2.6533,2.6533,2.6533,2.6533,2.1095,0.0,0.0,0.0,0.0,0.0,0.0,0.0,2.7606,2.7615,0.0,0.0,0.0,0.0,0.0,0.0,0.0,0.0,0.0,0.0,0.0,0.0,0.0,0.0,0.0,0.0,0.0,0.0,2.2614,2.2915,2.3065,2.2567,2.2776,2.3865,2.3904,2.3666,2.3145,2.2657,2.2076,2.1295,1.9986,1.894,1.7981,1.7972,1.7994,1.8004,1.8352,1.8818,1.9354,1.8374,1.8002,1.7978,1.7978,1.8008,1.8008,1.8008,1.8017,1.8021,1.8225,1.8668,1.9197,1.9303,1.9746,2.0212,2.0223,1.999,2.0019,2.1269,2.2312,2.347,2.52,2.5965,2.6264,2.6496,2.6533,2.6533,2.6533,2.6533,2.6533,2.6533,2.6533,2.6533,2.6533,2.6533,2.6533,2.6533,2.5873,2.5664,2.6383,2.5873,2.5664,2.6383,2.6533,2.6533,2.6533,2.6533,2.6533,2.6533,2.6533,2.6533,2.6533,2.6533,2.6533,2.6533,2.6533,2.6533,2.6533,2.6533,2.6533,2.6533,2.6533,2.6533,2.0845,0.0,0.0,0.0,0.0,0.0,2.3381,2.5255,0.0,0.0,0.0,0.0,0.0,0.0,0.0,0.0,0.0,0.0,0.0,0.0,0.0,0.0,0.0,0.0,0.0,0.0,0.0,2.2686,2.2637,2.2445,2.2051,2.1616,2.1863,2.2943,2.3547,2.3663,2.3233,2.2457,2.1419,2.0047,1.8633,1.8113,1.8349,1.8095,1.8008,1.8008,1.8008,1.8008,1.8008,1.8173,1.8163,1.8027,1.8017,1.8006,1.8016,1.8011,1.8431,1.9046,1.9111,1.9409,1.9847,1.9831,2.0185,2.0629,2.0585,2.0391,2.0387,2.1151,2.2403,2.3891,2.5429,2.6164,2.6533,2.6533,2.6533,2.6533,2.6533,2.6533,2.6533,2.6533,2.6533,2.6533,2.6533,2.6533,2.6533,2.6533,2.6025,2.5804,2.6383,2.6025,2.5873,2.6465,2.6533,2.6533,2.6533,2.6533,2.6533,2.6533,2.6533,2.6533,2.6533,2.6533,2.6533,2.6533,2.6533,2.6533,2.6533,2.6533,2.6533,2.6533,2.6533,2.6533,0.0,0.0,0.0,0.0,0.0,0.0,2.3272,2.4535,2.6082,0.0,0.0,0.0,0.0,0.0,0.0,0.0,0.0,0.0,0.0,0.0,0.0,0.0,0.0,0.0,0.0,2.3228,2.3253,2.3131,2.238,2.1527,2.0649,2.0607,2.0753,2.1107,2.2476,2.3235,2.3345,2.2358,2.1009,1.9452,1.8574,1.8398,1.8832,1.834,1.8057,1.8008,1.8057,1.8076,1.8115,1.8535,1.8467,1.8125,1.8088,1.8161,1.8289,1.8288,1.9307,2.0604,2.0591,2.0572,2.0566,2.0633,2.0566,2.0566,2.0566,2.0566,2.0644,2.0712,2.2048,2.3745,2.4707,2.5734,2.6533,2.6533,2.6533,2.6533,2.6533,2.6533,2.6533,2.6533,2.6383,2.6383,2.6452,2.6383,2.6314,2.6314,2.6314,2.6314,2.6314,2.6314,2.6383,2.6465,2.6533,2.6533,2.6533,2.6533,2.6559,2.6622,2.6559,2.6559,2.6622,2.6559,2.6533,2.6533,2.6533,2.6533,2.6533,2.6533,2.6533,2.6533,2.6533,2.6533,0.0,0.0,0.0,0.0,0.0,0.0,2.1515,2.4,2.6693,0.0,2.5048,0.0,0.0,0.0,0.0,0.0,0.0,0.0,0.0,0.0,0.0,0.0,0.0,0.0,0.0,2.423,2.4149,2.3311,2.2643,2.1744,2.0633,2.0631,2.0663,2.0699,2.1418,2.2127,2.2831,2.1923,2.1113,2.0339,1.9481,1.8916,1.8652,1.8555,1.833,1.8027,1.8369,1.8446,1.8545,1.8984,1.8997,1.8744,1.8711,1.9262,2.006,2.0121,2.03,2.0612,2.0597,2.0559,2.0633,2.0624,2.0566,2.0566,2.0566,2.0566,2.0789,2.1517,2.2553,2.3745,2.4707,2.5734,2.6533,2.6533,2.6533,2.6533,2.6533,2.6533,2.6533,2.6533,2.5873,2.5523,2.6383,2.5804,2.53,2.53,2.53,2.53,2.53,2.53,2.5594,2.6383,2.6533,2.6533,2.6533,2.6533,2.6653,2.7092,2.6703,2.6653,2.7105,2.6703,2.6533,2.6533,2.6533,2.6533,2.6533,2.6533,2.6533,2.6533,2.6533,2.6533,0.0,0.0,0.0,2.32,0.0,0.0,0.0,0.0,2.3506,2.2756,2.3069,2.3259,2.2695,0.0,0.0,0.0,0.0,0.0,0.0,0.0,0.0,0.0,0.0,0.0,0.0,2.4648,2.4171,2.2728,2.2284,2.1496,2.0012,1.9981,2.001,2.0149,2.0424,2.0944,2.1627,2.1189,2.0862,2.0565,1.9703,1.9287,1.9258,1.8838,1.8643,1.8662,1.8867,1.8965,1.8994,1.9424,1.9482,1.9399,1.9325,1.959,2.0014,2.0442,2.0566,2.0639,2.0639,2.0584,2.0566,2.0566,2.0566,2.0566,2.0566,2.0566,2.0712,2.1155,2.2339,2.3599,2.412,2.5358,2.6533,2.6533,2.6533,2.6533,2.6533,2.6533,2.6533,2.6533,2.5664,2.53,2.6314,2.5664,2.5158,2.5664,2.53,2.5158,2.5664,2.53,2.5479,2.6759,2.6866,2.6768,2.6516,2.6735,2.6881,2.6907,2.6623,2.6703,2.7256,2.6753,2.6533,2.6533,2.6533,2.6533,2.6533,2.6533,2.6533,2.6533,2.6533,2.6533,0.0,0.0,0.0,0.0,0.0,2.1748,0.0,0.0,0.0,0.0,0.0,0.0,0.0,0.0,0.0,0.0,0.0,0.0,0.0,0.0,0.0,0.0,0.0,0.0,0.0,2.4266,2.3581,2.2324,2.1871,2.1031,1.9615,1.9531,1.9678,1.9839,1.9849,2.0109,2.0634,2.0566,2.0566,2.0557,1.9863,1.9668,1.9893,1.9199,1.9033,1.9287,1.9375,1.9404,1.9443,1.9863,2.0039,2.0039,1.9934,1.9734,1.9668,2.0323,2.0566,2.0566,2.0566,2.0566,2.0566,2.0566,2.0566,2.0566,2.0566,2.0566,2.0566,2.0566,2.1941,2.3323,2.343,2.4981,2.6533,2.6533,2.6533,2.6533,2.6533,2.6533,2.6533,2.6533,2.5664,2.53,2.6314,2.5511,2.5004,2.5791,2.5217,2.5028,2.5938,2.5515,2.5648,2.7011,2.7145,2.6858,2.6224,2.6541,2.6615,2.655,2.6333,2.6564,2.7256,2.6753,2.6533,2.6533,2.6533,2.6533,2.6533,2.6533,2.6533,2.6533,2.6533,2.6533,0.0,0.0,0.0,0.0,2.1942,0.0,0.0,0.0,0.0,0.0,0.0,0.0,0.0,0.0,0.0,0.0,0.0,0.0,0.0,0.0,0.0,0.0,0.0,0.0,0.0,0.0,2.2247,2.3271,2.1722,2.0677,2.0477,2.042,2.0439,2.0488,2.0488,2.0518,2.0566,2.0566,2.0566,2.0566,2.0469,2.0244,1.9912,1.9814,1.959,1.9307,1.9678,1.9844,1.9873,2.0312,2.0498,2.0498,2.0488,2.0478,2.0478,2.0547,2.0566,2.0566,2.0566,2.0566,2.0566,2.0566,2.0566,2.0566,2.0566,2.0566,2.0566,2.0566,2.1546,2.2769,2.3323,2.4981,2.6533,2.6533,2.6533,2.6533,2.6533,2.6533,2.6533,2.6533,2.5664,2.53,2.6314,2.4909,2.3745,2.3806,2.3734,2.3892,2.4482,2.5207,2.5946,2.6506,2.6566,2.6188,2.506,2.4698,2.5096,2.6399,2.566,2.5825,2.7256,2.6753,2.6533,2.6533,2.6533,2.6533,2.6533,2.6533,2.6533,2.6533,2.6533,2.6533,0.0,0.0,0.0,0.0,0.0,0.0,2.1767,0.0,2.2871,0.0,0.0,0.0,0.0,0.0,0.0,0.0,0.0,0.0,0.0,0.0,0.0,0.0,0.0,0.0,0.0,0.0,0.0,0.0,0.0,2.0799,2.1342,2.0858,2.075,2.1056,2.0791,2.0566,2.0566,2.0566,2.0566,2.0634,2.0312,2.0225,2.0283,2.0029,1.9951,2.0039,2.0215,2.0293,2.0303,2.0488,2.0566,2.0566,2.0566,2.0566,2.0566,2.0566,2.0566,2.0566,2.0566,2.0566,2.0566,2.0566,2.0566,2.0566,2.0566,2.0566,2.0722,2.1522,2.2083,2.2809,2.4051,2.5429,2.6533,2.6533,2.6533,2.6533,2.6533,2.6533,2.6533,2.6533,2.5664,2.53,2.6314,2.5288,2.4552,2.5134,2.4253,2.3852,2.4946,2.5004,2.524,2.589,2.6605,2.641,2.4919,2.4735,2.4826,2.5158,2.5268,2.5767,2.6763,2.6623,2.6469,2.6533,2.6533,2.6533,2.6533,2.6533,2.6533,2.6533,2.6533,2.6533,2.182,0.0,0.0,0.0,0.0,0.0,0.0,0.0,0.0,0.0,0.0,0.0,0.0,0.0,0.0,0.0,0.0,0.0,0.0,0.0,0.0,0.0,0.0,0.0,0.0,0.0,0.0,0.0,0.0,0.0,2.214,2.1629,2.135,2.1369,2.1017,2.0684,2.0566,2.0566,2.0566,2.0634,2.0244,2.0254,2.0557,2.0244,2.0264,2.0566,2.0566,2.0566,2.0566,2.0566,2.0566,2.0566,2.0566,2.0566,2.0566,2.0566,2.0566,2.0566,2.0566,2.0566,2.0566,2.0566,2.0566,2.0566,2.0566,2.0566,2.0799,2.1752,2.2777,2.3768,2.442,2.5511,2.6533,2.6533,2.6533,2.6383,2.6164,2.6094,2.6025,2.5721,2.5075,2.485,2.5569,2.4838,2.4552,2.5499,2.4296,2.3671,2.4842,2.4796,2.4815,2.5337,2.6153,2.5965,2.4426,2.432,2.4191,2.3998,2.4759,2.5464,2.5961,2.6031,2.6226,2.6465,2.6533,2.6533,2.6533,2.6533,2.6533,2.6533,2.6533,2.6533,0.0,0.0,0.0,2.1766,0.0,0.0,0.0,0.0,1.9869,0.0,0.0,0.0,0.0,0.0,0.0,1.5406,0.0,0.0,0.0,0.0,0.0,0.0,0.0,0.0,0.0,0.0,0.0,0.0,0.0,0.0,2.2899,2.3022,2.2543,2.145,2.124,2.1006,2.0566,2.0566,2.0566,2.0566,2.0547,2.0557,2.0566,2.0547,2.0557,2.0566,2.0566,2.0566,2.0566,2.0566,2.0566,2.0566,2.0566,2.0566,2.0566,2.0566,2.0566,2.0566,2.0566,2.0566,2.0566,2.0566,2.0566,2.0566,2.0566,2.0566,2.0644,2.0644,2.3448,2.591,2.405,2.4992,2.6533,2.6533,2.6533,2.6245,2.5229,2.5075,2.4779,2.3818,2.3588,2.3588,2.3588,2.2776,2.2403,2.3441,2.3102,2.2955,2.3488,2.4738,2.537,2.4883,2.4851,2.4447,2.3212,2.282,2.2798,2.3405,2.394,2.4314,2.4584,2.486,2.5523,2.6452,2.6533,2.6533,2.6533,2.6533,2.6533,2.6533,2.6533,2.6533,0.0,0.0,2.074,2.1896,0.0,0.0,0.0,0.0,0.0,0.0,0.0,0.0,0.0,0.0,1.7144,1.7141,0.0,0.0,0.0,0.0,0.0,0.0,0.0,0.0,0.0,0.0,0.0,0.0,0.0,0.0,0.0,2.2375,2.2429,2.21,2.1816,2.1455,2.1016,2.1006,2.0859,2.0566,2.0566,2.0566,2.0566,2.0566,2.0566,2.0566,2.0566,2.0566,2.0566,2.0566,2.0566,2.0566,2.0566,2.0566,2.0566,2.0566,2.0566,2.0566,2.0566,2.0566,2.0566,2.0566,2.0566,2.0566,2.0566,2.0566,2.0605,2.0562,2.1541,2.3032,2.5003,2.5975,2.6533,2.6533,2.6533,2.6233,2.5229,2.5004,2.4933,2.4564,2.3441,2.2925,2.4264,2.2563,2.1593,2.322,2.3037,2.2898,2.3349,2.4136,2.4449,2.375,2.4382,2.4382,2.3222,2.2754,2.2512,2.2685,2.3753,2.4626,2.5102,2.614,2.6667,2.6465,2.6533,2.6533,2.6533,2.6533,2.6533,2.6533,2.6533,2.6533,1.9633,1.9926,0.0,2.2328,2.1327,0.0,2.1866,0.0,0.0,0.0,0.0,0.0,0.0,0.0,0.0,1.8018,1.7076,0.0,0.0,1.7975,0.0,0.0,0.0,0.0,0.0,0.0,1.8981,1.9953,0.0,0.0,0.0,0.0,2.2529,2.251,2.2246,2.1826,2.124,2.123,2.1016,2.0566,2.0566,2.0566,2.0566,2.0566,2.0566,2.0566,2.0566,2.0566,2.0566,2.0566,2.0566,2.0566,2.0566,2.0566,2.0566,2.0566,2.0566,2.0566,2.0566,2.0566,2.0566,2.0566,2.0566,2.0566,2.0566,2.0566,2.0605,2.0572,2.0612,2.1429,2.4907,2.6119,2.6533,2.6533,2.6533,2.6094,2.4779,2.4492,2.4264,2.3599,2.2477,2.2147,2.3422,2.2216,2.1587,2.2994,2.2766,2.2533,2.2972,2.3504,2.3659,2.3193,2.38,2.3887,2.3135,2.2891,2.2637,2.2581,2.336,2.425,2.5333,2.6016,2.6396,2.6477,2.6533,2.6533,2.6533,2.6533,2.6533,2.6533,2.6533,2.6533]}]]